[[{"header":{"parameterUnit":"m.s-1","parameterCategory":1,"la1":31.0,"la2":29.5877,"lo1":-88.7671,"lo2":-86.6584,"dy":0.0162,"dx":0.0185,"nx":115,"ny":88,"refTime":"2024-07-16T06:00:00:Z","depth":0,"parameterNumber":2,"parameterNumberName":"U-component_of_WINDS"},"data":[0.0,0.0,0.0,0.0,0.0,0.0,0.0,0.0,0.0,0.0,0.0,0.0,0.0,0.0,0.0,0.0,0.0,0.0,0.0,0.0,0.0,0.0,0.0,0.0,0.0,0.0,0.0,0.0,0.0,0.0,0.0,0.0,0.0,0.0,0.0,0.0,0.0,0.0,0.0,0.0,0.0,0.0,0.0,0.0,0.0,0.0,0.0,0.0,0.0,0.0,0.0,0.0,0.0,0.0,0.0,0.0,0.0,0.0,0.0,0.0,0.0,0.0,0.0,0.0,0.0,0.0,0.0,0.0,0.0,0.0,0.0,0.0,0.0,0.0,0.0,0.0,0.0,0.0,0.0,0.0,0.0,0.0,0.0,0.0,0.0,0.0,0.0,0.0,0.0,0.0,0.0,0.0,0.0,0.0,0.0,0.0,0.0,0.0,0.0,0.0,0.0,0.0,0.0,0.0,0.0,0.0,0.0,0.0,0.0,0.0,0.0,0.0,0.0,0.0,0.0,0.0,0.0,0.0,0.0,0.0,0.0,0.0,0.0,0.0,0.0,0.0,0.0,0.0,0.0,0.0,0.0,0.0,0.0,0.0,0.0,0.0,0.0,0.0,0.0,0.0,0.0,0.0,0.0,0.0,0.0,0.0,0.0,0.0,0.0,0.0,0.0,0.0,0.0,0.0,0.0,0.0,0.0,0.0,0.0,0.0,0.0,0.0,0.0,0.0,0.0,0.0,0.0,0.0,0.0,0.0,0.0,0.0,0.0,0.0,0.0,0.0,0.0,0.0,0.0,0.0,0.0,0.0,0.0,0.0,0.0,0.0,0.0,0.0,0.0,0.0,0.0,0.0,0.0,0.0,0.0,0.0,0.0,0.0,0.0,0.0,0.0,0.0,0.0,0.0,0.0,0.0,0.0,0.0,0.0,0.0,0.0,0.0,0.0,0.0,0.0,0.0,0.0,0.0,0.0,0.0,0.0,0.0,0.0,0.0,0.0,0.0,0.0,0.0,0.0,0.0,0.0,0.0,0.0,0.0,0.0,0.0,0.0,0.0,0.0,0.0,0.0,0.0,0.0,0.0,0.0,0.0,0.0,0.0,0.0,0.0,0.0,0.0,0.0,0.0,0.0,0.0,0.0,0.0,0.0,0.0,0.0,0.0,0.0,0.0,0.0,0.0,0.0,0.0,0.0,0.0,0.0,0.0,0.0,0.0,0.0,0.0,0.0,0.0,0.0,0.0,0.0,0.0,0.0,0.0,0.0,0.0,0.0,0.0,0.0,0.0,0.0,0.0,0.0,0.0,0.0,0.0,0.0,0.0,0.0,0.0,0.0,0.0,0.0,0.0,0.0,0.0,0.0,0.0,0.0,0.0,0.0,0.0,0.0,0.0,0.0,0.0,0.0,0.0,0.0,0.0,0.0,0.0,0.0,0.0,0.0,0.0,0.0,0.0,0.0,0.0,0.0,0.0,0.0,0.0,0.0,0.0,0.0,0.0,0.0,0.0,0.0,0.0,0.0,0.0,0.0,0.0,0.0,0.0,0.0,0.0,0.0,0.0,0.0,0.0,0.0,0.0,0.0,0.0,0.0,0.0,0.0,0.0,0.0,0.0,0.0,0.0,0.0,0.0,0.0,0.0,0.0,0.0,0.0,0.0,0.0,0.0,0.0,0.0,0.0,0.0,0.0,0.0,0.0,0.0,0.0,0.0,0.0,0.0,0.0,0.0,0.0,0.0,0.0,0.0,0.0,0.0,0.0,0.0,0.0,0.0,0.0,0.0,0.0,0.0,0.0,0.0,0.0,0.0,0.0,0.0,0.0,0.0,0.0,0.0,0.0,0.0,0.0,0.0,0.0,0.0,0.0,0.0,0.0,0.0,0.0,0.0,0.0,0.0,0.0,0.0,0.0,0.0,0.0,0.0,0.0,0.0,0.0,0.0,0.0,0.0,0.0,0.0,0.0,0.0,0.0,0.0,0.0,0.0,0.0,0.0,0.0,0.0,0.0,0.0,0.0,0.0,0.0,0.0,0.0,0.0,0.0,0.0,0.0,0.0,0.0,0.0,0.0,0.0,0.0,0.0,0.0,0.0,0.0,0.0,0.0,0.0,0.0,0.0,0.0,0.0,0.0,0.0,0.0,0.0,0.0,0.0,0.0,0.0,0.0,0.0,0.0,0.0,0.0,0.0,0.0,0.0,0.0,0.0,0.0,0.0,0.0,0.0,0.0,0.0,0.0,0.0,0.0,0.0,0.0,0.0,0.0,0.0,0.0,0.0,0.0,0.0,0.0,0.0,0.0,0.0,0.0,0.0,0.0,0.0,0.0,0.0,0.0,0.0,0.0,0.0,0.0,0.0,0.0,0.0,0.0,0.0,0.0,0.0,0.0,0.0,0.0,0.0,0.0,0.0,0.0,0.0,0.0,0.0,0.0,0.0,0.0,0.0,0.0,0.0,0.0,0.0,0.0,0.0,0.0,0.0,0.0,0.0,0.0,0.0,0.0,0.0,0.0,0.0,0.0,0.0,0.0,0.0,0.0,0.0,0.0,0.0,0.0,0.0,0.0,0.0,0.0,0.0,0.0,0.0,0.0,0.0,0.0,0.0,0.0,0.0,0.0,0.0,0.0,0.0,0.0,0.0,0.0,0.0,0.0,0.0,0.0,0.0,0.0,0.0,0.0,0.0,0.0,0.0,0.0,0.0,0.0,0.0,0.0,0.0,0.0,0.0,0.0,0.0,0.0,0.0,0.0,0.0,0.0,0.0,0.0,0.0,0.0,0.0,0.0,0.0,0.0,0.0,0.0,0.0,0.0,0.0,0.0,0.0,0.0,0.0,0.0,0.0,0.0,0.0,0.0,0.0,0.0,0.0,0.0,0.0,0.0,0.0,0.0,0.0,0.0,0.0,0.0,0.0,0.0,0.0,0.0,0.0,0.0,0.0,0.0,0.0,0.0,0.0,0.0,0.0,0.0,0.0,0.0,0.0,0.0,0.0,0.0,0.0,0.0,0.0,0.0,0.0,0.0,0.0,0.0,0.0,0.0,0.0,0.0,0.0,0.0,0.0,0.0,0.0,0.0,0.0,0.0,0.0,0.0,0.0,0.0,0.0,0.0,0.0,0.0,0.0,0.0,0.0,0.0,0.0,0.0,0.0,0.0,0.0,0.0,0.0,0.0,0.0,0.0,0.0,0.0,0.0,0.0,0.0,0.0,0.0,0.0,0.0,0.0,0.0,0.0,0.0,0.0,0.0,0.0,0.0,0.0,0.0,0.0,0.0,0.0,0.0,0.0,0.0,0.0,0.0,0.0,0.0,0.0,0.0,0.0,0.0,0.0,0.0,0.0,0.0,0.0,0.0,0.0,0.0,0.0,0.0,0.0,0.0,0.0,0.0,0.0,0.0,0.0,0.0,0.0,0.0,0.0,0.0,0.0,0.0,0.0,0.0,0.0,0.0,0.0,0.0,0.0,0.0,0.0,0.0,0.0,0.0,0.0,0.0,0.0,0.0,0.0,0.0,0.0,0.0,0.0,0.0,0.0,0.0,0.0,0.0,0.0,0.0,0.0,0.0,0.0,0.0,0.0,0.0,0.0,0.0,0.0,0.0,0.0,0.0,0.0,0.0,0.0,0.0,0.0,0.0,0.0,0.0,0.0,0.0,0.0,0.0,0.0,0.0,0.0,0.0,0.0,0.0,0.0,0.0,0.0,0.0,0.0,0.0,0.0,0.0,0.0,0.0,0.0,0.0,0.0,0.0,0.0,0.0,0.0,0.0,0.0,0.0,0.0,0.0,0.0,0.0,0.0,0.0,0.0,0.0,0.0,0.0,0.0,0.0,0.0,0.0,0.0,0.0,0.0,0.0,0.0,0.0,0.0,0.0,0.0,0.0,0.0,0.0,0.0,0.0,0.0,0.0,0.0,0.0,0.0,0.0,0.0,0.0,0.0,0.0,0.0,0.0,0.0,0.0,0.0,0.0,0.0,0.0,0.0,0.0,0.0,0.0,0.0,0.0,0.0,0.0,0.0,0.0,0.0,0.0,0.0,0.0,0.0,0.0,0.0,0.0,0.0,0.0,0.0,0.0,0.0,0.0,0.0,0.0,0.0,0.0,0.0,0.0,0.0,0.0,0.0,0.0,0.0,0.0,0.0,0.0,0.0,0.0,0.0,0.0,0.0,0.0,0.0,0.0,0.0,0.0,0.0,0.0,0.0,0.0,0.0,0.0,0.0,0.0,0.0,0.0,0.0,0.0,0.0,0.0,0.0,0.0,0.0,0.0,-2.1592,0.0,0.0,0.0,0.0,0.0,0.0,0.0,0.0,0.0,0.0,0.0,0.0,0.0,0.0,0.0,0.0,0.0,0.0,0.0,0.0,0.0,0.0,0.0,0.0,0.0,0.0,0.0,0.0,0.0,0.0,0.0,0.0,0.0,0.0,0.0,0.0,0.0,0.0,0.0,0.0,0.0,0.0,0.0,0.0,0.0,0.0,0.0,0.0,0.0,0.0,0.0,0.0,0.0,0.0,0.0,0.0,0.0,0.0,0.0,0.0,0.0,0.0,0.0,0.0,0.0,0.0,0.0,0.0,0.0,0.0,0.0,0.0,0.0,0.0,0.0,0.0,0.0,0.0,0.0,0.0,0.0,0.0,0.0,0.0,0.0,0.0,0.0,0.0,0.0,0.0,0.0,0.0,0.0,0.0,0.0,0.0,0.0,0.0,0.0,0.0,0.0,0.0,0.0,0.0,0.0,0.0,0.0,0.0,0.0,0.0,-2.3768,-2.4153,-2.2639,-2.1794,-2.1757,0.0,0.0,0.0,0.0,0.0,0.0,0.0,0.0,0.0,0.0,0.0,0.0,0.0,0.0,0.0,0.0,0.0,0.0,0.0,0.0,0.0,0.0,0.0,0.0,0.0,0.0,0.0,0.0,0.0,0.0,0.0,0.0,0.0,0.0,0.0,0.0,0.0,0.0,0.0,0.0,0.0,0.0,0.0,0.0,0.0,0.0,0.0,0.0,0.0,0.0,0.0,0.0,0.0,0.0,0.0,0.0,0.0,0.0,0.0,0.0,0.0,0.0,0.0,0.0,0.0,0.0,0.0,0.0,0.0,0.0,0.0,0.0,0.0,0.0,0.0,0.0,0.0,0.0,0.0,0.0,0.0,0.0,0.0,0.0,0.0,0.0,0.0,0.0,0.0,0.0,0.0,0.0,0.0,0.0,0.0,0.0,0.0,0.0,0.0,0.0,0.0,0.0,0.0,0.0,0.0,0.0,0.0,0.0,0.0,0.0,0.0,0.0,-2.3263,-2.2437,-2.2051,0.0,0.0,0.0,0.0,0.0,0.0,0.0,0.0,0.0,0.0,0.0,0.0,0.0,0.0,0.0,0.0,0.0,0.0,0.0,0.0,0.0,0.0,0.0,0.0,0.0,0.0,0.0,0.0,0.0,0.0,0.0,0.0,0.0,0.0,0.0,0.0,0.0,0.0,0.0,0.0,0.0,0.0,0.0,0.0,0.0,0.0,0.0,0.0,0.0,0.0,0.0,0.0,0.0,0.0,0.0,0.0,0.0,0.0,0.0,0.0,0.0,0.0,0.0,0.0,0.0,0.0,0.0,0.0,0.0,0.0,0.0,0.0,0.0,0.0,0.0,0.0,0.0,0.0,0.0,0.0,0.0,0.0,0.0,0.0,0.0,0.0,0.0,0.0,0.0,0.0,0.0,0.0,0.0,0.0,0.0,0.0,0.0,0.0,0.0,0.0,0.0,0.0,0.0,0.0,0.0,0.0,0.0,0.0,0.0,0.0,-2.3731,-2.5246,-2.5117,0.0,-2.3006,0.0,0.0,0.0,0.0,0.0,0.0,0.0,0.0,0.0,0.0,0.0,0.0,0.0,0.0,0.0,0.0,0.0,0.0,0.0,0.0,0.0,0.0,0.0,0.0,0.0,0.0,0.0,0.0,0.0,0.0,0.0,0.0,0.0,0.0,0.0,0.0,0.0,0.0,0.0,0.0,0.0,0.0,0.0,0.0,0.0,0.0,0.0,0.0,0.0,0.0,0.0,0.0,0.0,0.0,0.0,0.0,0.0,0.0,0.0,0.0,0.0,0.0,0.0,0.0,0.0,0.0,0.0,0.0,0.0,0.0,0.0,0.0,0.0,0.0,0.0,0.0,0.0,0.0,0.0,0.0,0.0,0.0,0.0,0.0,0.0,0.0,0.0,0.0,0.0,0.0,0.0,0.0,0.0,0.0,0.0,0.0,0.0,0.0,0.0,0.0,0.0,0.0,0.0,0.0,0.0,0.0,0.0,0.0,0.0,0.0,0.0,-2.5384,-2.4952,-2.4181,0.0,0.0,0.0,0.0,0.0,0.0,0.0,0.0,0.0,0.0,0.0,0.0,0.0,0.0,0.0,0.0,0.0,0.0,0.0,0.0,0.0,0.0,0.0,0.0,0.0,0.0,0.0,0.0,0.0,0.0,0.0,0.0,0.0,0.0,0.0,0.0,0.0,0.0,0.0,0.0,0.0,0.0,0.0,0.0,0.0,0.0,0.0,0.0,0.0,0.0,0.0,0.0,0.0,0.0,0.0,0.0,0.0,0.0,0.0,0.0,0.0,0.0,0.0,0.0,0.0,0.0,0.0,0.0,0.0,0.0,0.0,0.0,0.0,0.0,0.0,0.0,0.0,0.0,0.0,0.0,0.0,0.0,0.0,0.0,0.0,0.0,0.0,0.0,0.0,0.0,0.0,0.0,0.0,0.0,0.0,0.0,0.0,0.0,0.0,0.0,0.0,0.0,0.0,0.0,0.0,0.0,0.0,0.0,0.0,0.0,-2.3823,0.0,-2.5944,-2.5283,-2.4281,-2.3024,0.0,0.0,0.0,0.0,0.0,0.0,0.0,0.0,0.0,0.0,0.0,0.0,0.0,0.0,0.0,0.0,0.0,0.0,0.0,0.0,0.0,0.0,0.0,0.0,0.0,0.0,0.0,0.0,0.0,0.0,0.0,0.0,0.0,0.0,0.0,0.0,0.0,0.0,0.0,0.0,0.0,0.0,0.0,0.0,0.0,0.0,0.0,0.0,0.0,0.0,0.0,0.0,0.0,0.0,0.0,0.0,0.0,0.0,0.0,0.0,0.0,0.0,0.0,0.0,0.0,0.0,0.0,0.0,0.0,0.0,0.0,0.0,0.0,0.0,0.0,0.0,0.0,0.0,0.0,0.0,0.0,0.0,0.0,0.0,0.0,0.0,0.0,0.0,0.0,0.0,0.0,0.0,0.0,0.0,0.0,0.0,0.0,0.0,0.0,0.0,0.0,0.0,0.0,0.0,0.0,0.0,0.0,0.0,0.0,-2.4905,-2.5328,-2.7596,-2.6906,-2.5401,0.0,0.0,0.0,0.0,0.0,0.0,0.0,0.0,0.0,0.0,0.0,0.0,0.0,0.0,0.0,0.0,0.0,0.0,0.0,0.0,0.0,0.0,0.0,0.0,0.0,0.0,0.0,0.0,0.0,0.0,0.0,0.0,0.0,0.0,0.0,0.0,0.0,0.0,0.0,0.0,0.0,0.0,0.0,0.0,0.0,0.0,0.0,0.0,0.0,0.0,0.0,0.0,0.0,0.0,0.0,0.0,0.0,0.0,0.0,0.0,0.0,0.0,0.0,0.0,0.0,0.0,0.0,0.0,0.0,0.0,0.0,0.0,0.0,0.0,0.0,0.0,0.0,0.0,0.0,0.0,0.0,0.0,0.0,0.0,0.0,0.0,0.0,0.0,0.0,0.0,0.0,0.0,0.0,0.0,0.0,0.0,0.0,0.0,0.0,0.0,0.0,0.0,0.0,0.0,0.0,0.0,0.0,0.0,0.0,-2.1877,-2.3391,-2.6098,0.0,-2.6851,-2.4887,0.0,0.0,0.0,0.0,0.0,0.0,0.0,0.0,0.0,0.0,0.0,0.0,0.0,0.0,0.0,0.0,0.0,0.0,0.0,0.0,0.0,0.0,0.0,0.0,0.0,0.0,0.0,0.0,0.0,0.0,0.0,0.0,0.0,0.0,0.0,0.0,0.0,0.0,0.0,0.0,0.0,0.0,0.0,0.0,0.0,0.0,0.0,0.0,0.0,0.0,0.0,0.0,0.0,0.0,0.0,0.0,0.0,0.0,0.0,0.0,0.0,0.0,0.0,0.0,0.0,0.0,0.0,0.0,0.0,0.0,0.0,0.0,0.0,0.0,0.0,0.0,0.0,0.0,0.0,0.0,0.0,0.0,0.0,0.0,0.0,0.0,0.0,0.0,0.0,0.0,0.0,0.0,0.0,0.0,0.0,0.0,0.0,0.0,0.0,0.0,0.0,0.0,0.0,0.0,0.0,0.0,0.0,0.0,0.0,-2.1675,0.0,-2.7475,0.0,-2.6833,-2.4612,0.0,0.0,0.0,0.0,0.0,0.0,0.0,0.0,0.0,0.0,0.0,0.0,0.0,0.0,0.0,0.0,0.0,0.0,0.0,0.0,0.0,0.0,0.0,0.0,0.0,0.0,0.0,0.0,0.0,0.0,0.0,0.0,0.0,0.0,0.0,0.0,0.0,0.0,0.0,0.0,0.0,0.0,0.0,0.0,0.0,0.0,0.0,0.0,0.0,0.0,0.0,0.0,0.0,0.0,0.0,0.0,0.0,0.0,0.0,0.0,0.0,0.0,0.0,0.0,0.0,0.0,0.0,0.0,0.0,0.0,0.0,0.0,0.0,0.0,0.0,0.0,0.0,0.0,0.0,0.0,0.0,0.0,0.0,0.0,0.0,0.0,0.0,0.0,0.0,0.0,0.0,0.0,0.0,0.0,0.0,0.0,0.0,0.0,0.0,0.0,0.0,0.0,0.0,0.0,0.0,0.0,0.0,0.0,-2.1721,-2.6337,-2.876,-2.9292,-2.7934,-2.7016,-2.4657,0.0,0.0,0.0,0.0,0.0,0.0,0.0,0.0,0.0,0.0,0.0,0.0,0.0,0.0,0.0,0.0,0.0,0.0,0.0,0.0,0.0,0.0,0.0,0.0,0.0,0.0,0.0,0.0,0.0,0.0,0.0,0.0,0.0,0.0,0.0,0.0,0.0,0.0,0.0,0.0,0.0,0.0,0.0,0.0,0.0,0.0,0.0,0.0,0.0,0.0,0.0,0.0,0.0,0.0,0.0,0.0,0.0,0.0,0.0,0.0,0.0,0.0,0.0,0.0,0.0,0.0,0.0,0.0,0.0,0.0,0.0,0.0,0.0,0.0,0.0,0.0,0.0,0.0,0.0,0.0,0.0,0.0,0.0,0.0,0.0,0.0,0.0,0.0,0.0,0.0,0.0,0.0,0.0,0.0,0.0,0.0,0.0,0.0,0.0,0.0,0.0,0.0,0.0,0.0,0.0,0.0,0.0,0.0,0.0,-2.576,-2.7578,-2.9384,-3.0889,-2.7108,-2.4887,0.0,0.0,0.0,0.0,0.0,0.0,0.0,0.0,0.0,0.0,0.0,0.0,0.0,0.0,0.0,0.0,0.0,0.0,0.0,0.0,0.0,0.0,0.0,0.0,0.0,0.0,0.0,0.0,0.0,0.0,0.0,0.0,0.0,0.0,0.0,0.0,0.0,0.0,0.0,0.0,0.0,0.0,0.0,0.0,0.0,0.0,0.0,0.0,0.0,0.0,0.0,0.0,0.0,0.0,0.0,0.0,0.0,0.0,0.0,0.0,0.0,0.0,0.0,0.0,0.0,0.0,0.0,0.0,0.0,0.0,0.0,0.0,0.0,0.0,0.0,0.0,0.0,0.0,0.0,0.0,0.0,0.0,0.0,0.0,0.0,0.0,0.0,0.0,0.0,0.0,0.0,0.0,0.0,0.0,0.0,0.0,0.0,0.0,0.0,0.0,0.0,0.0,0.0,0.0,0.0,0.0,0.0,0.0,0.0,-2.8154,-2.9971,-3.1476,-3.2564,-2.8565,-2.6043,-2.5189,0.0,0.0,0.0,0.0,0.0,0.0,0.0,0.0,0.0,0.0,0.0,0.0,0.0,0.0,0.0,0.0,0.0,0.0,0.0,0.0,0.0,0.0,0.0,0.0,0.0,0.0,0.0,0.0,0.0,0.0,0.0,0.0,0.0,0.0,0.0,0.0,0.0,0.0,0.0,0.0,0.0,0.0,0.0,0.0,0.0,0.0,0.0,0.0,0.0,0.0,0.0,0.0,0.0,0.0,0.0,0.0,0.0,0.0,0.0,0.0,0.0,0.0,0.0,0.0,0.0,0.0,0.0,0.0,0.0,0.0,0.0,0.0,0.0,0.0,0.0,0.0,0.0,0.0,0.0,0.0,0.0,0.0,0.0,0.0,0.0,0.0,0.0,0.0,0.0,0.0,0.0,0.0,0.0,0.0,0.0,0.0,0.0,0.0,0.0,0.0,0.0,0.0,0.0,0.0,0.0,0.0,0.0,0.0,-3.2784,-3.5312,-3.5477,-3.3151,-3.128,-2.8154,0.0,0.0,0.0,0.0,0.0,0.0,0.0,0.0,0.0,0.0,0.0,0.0,0.0,0.0,0.0,0.0,0.0,0.0,0.0,0.0,0.0,0.0,0.0,0.0,0.0,0.0,0.0,0.0,0.0,0.0,0.0,0.0,0.0,0.0,0.0,0.0,0.0,0.0,0.0,0.0,0.0,0.0,0.0,0.0,0.0,0.0,0.0,0.0,0.0,0.0,0.0,0.0,0.0,0.0,0.0,0.0,0.0,0.0,0.0,0.0,0.0,0.0,0.0,0.0,0.0,0.0,0.0,0.0,0.0,0.0,0.0,0.0,0.0,0.0,0.0,0.0,0.0,0.0,0.0,0.0,0.0,0.0,0.0,0.0,0.0,0.0,0.0,0.0,0.0,0.0,0.0,0.0,0.0,0.0,0.0,0.0,0.0,0.0,0.0,0.0,0.0,0.0,0.0,0.0,0.0,0.0,0.0,0.0,0.0,-3.5293,-3.8872,-3.9863,-3.7973,-3.4087,-3.0546,0.0,0.0,0.0,0.0,0.0,0.0,0.0,0.0,0.0,0.0,0.0,0.0,0.0,0.0,0.0,0.0,0.0,0.0,0.0,0.0,0.0,0.0,0.0,0.0,0.0,0.0,0.0,0.0,0.0,0.0,0.0,0.0,0.0,0.0,0.0,0.0,0.0,0.0,0.0,0.0,0.0,0.0,0.0,0.0,0.0,0.0,0.0,0.0,0.0,0.0,0.0,0.0,0.0,0.0,0.0,0.0,0.0,0.0,0.0,0.0,0.0,0.0,0.0,0.0,0.0,0.0,0.0,0.0,0.0,0.0,0.0,0.0,0.0,0.0,0.0,0.0,0.0,0.0,0.0,0.0,0.0,0.0,0.0,0.0,0.0,0.0,0.0,0.0,0.0,0.0,0.0,0.0,0.0,0.0,0.0,0.0,0.0,0.0,0.0,0.0,0.0,0.0,0.0,0.0,0.0,0.0,0.0,0.0,-3.3532,-3.7257,-4.157,-4.3222,-4.1956,-3.7533,-3.3206,0.0,0.0,0.0,0.0,0.0,0.0,0.0,0.0,0.0,0.0,0.0,0.0,0.0,0.0,0.0,0.0,0.0,0.0,0.0,0.0,0.0,0.0,0.0,0.0,0.0,0.0,0.0,0.0,0.0,0.0,0.0,0.0,0.0,0.0,0.0,0.0,0.0,0.0,0.0,0.0,0.0,0.0,0.0,0.0,0.0,0.0,0.0,0.0,0.0,0.0,0.0,0.0,0.0,0.0,0.0,0.0,0.0,0.0,0.0,0.0,0.0,0.0,0.0,0.0,0.0,0.0,0.0,0.0,0.0,0.0,0.0,0.0,0.0,0.0,0.0,0.0,0.0,0.0,0.0,0.0,0.0,0.0,0.0,0.0,0.0,0.0,0.0,0.0,0.0,0.0,0.0,0.0,0.0,0.0,0.0,0.0,0.0,0.0,0.0,0.0,0.0,0.0,0.0,0.0,0.0,0.0,0.0,0.0,-3.5477,-3.8912,-4.3497,-4.5553,-4.4746,-4.0928,-3.5793,0.0,0.0,0.0,0.0,0.0,0.0,0.0,0.0,0.0,0.0,0.0,0.0,0.0,0.0,0.0,0.0,0.0,0.0,0.0,0.0,0.0,0.0,0.0,0.0,0.0,0.0,0.0,0.0,0.0,0.0,0.0,0.0,0.0,0.0,0.0,0.0,0.0,0.0,0.0,0.0,0.0,0.0,0.0,0.0,0.0,0.0,0.0,0.0,0.0,0.0,0.0,0.0,0.0,0.0,0.0,0.0,0.0,0.0,0.0,0.0,0.0,0.0,0.0,0.0,0.0,0.0,0.0,0.0,0.0,0.0,0.0,0.0,0.0,0.0,0.0,0.0,0.0,0.0,0.0,0.0,0.0,0.0,0.0,0.0,0.0,0.0,0.0,0.0,0.0,0.0,0.0,0.0,0.0,0.0,0.0,0.0,0.0,0.0,0.0,0.0,0.0,0.0,0.0,0.0,0.0,0.0,0.0,0.0,-3.6009,-4.0508,-4.4085,-4.581,-4.5626,-4.1754,-3.689,0.0,0.0,0.0,0.0,0.0,0.0,0.0,0.0,0.0,0.0,0.0,0.0,0.0,0.0,0.0,0.0,0.0,0.0,0.0,0.0,0.0,0.0,0.0,0.0,0.0,0.0,0.0,0.0,0.0,0.0,0.0,0.0,0.0,0.0,0.0,0.0,0.0,0.0,0.0,0.0,0.0,0.0,0.0,0.0,0.0,0.0,0.0,0.0,-2.3164,0.0,0.0,0.0,0.0,0.0,0.0,0.0,0.0,0.0,0.0,0.0,0.0,0.0,0.0,0.0,0.0,0.0,0.0,0.0,0.0,0.0,0.0,0.0,0.0,0.0,0.0,0.0,0.0,0.0,0.0,0.0,0.0,0.0,0.0,0.0,0.0,0.0,0.0,0.0,0.0,0.0,0.0,0.0,0.0,0.0,0.0,0.0,0.0,0.0,0.0,0.0,0.0,0.0,0.0,0.0,0.0,0.0,0.0,0.0,-3.6541,-4.2047,-4.4617,-4.5902,-4.5773,-4.2727,-3.834,0.0,0.0,0.0,0.0,0.0,0.0,0.0,0.0,0.0,0.0,0.0,0.0,0.0,0.0,0.0,0.0,0.0,0.0,0.0,0.0,0.0,0.0,0.0,0.0,0.0,0.0,0.0,0.0,0.0,0.0,0.0,0.0,0.0,0.0,0.0,0.0,0.0,0.0,0.0,0.0,0.0,0.0,0.0,0.0,0.0,0.0,0.0,0.0,0.0,0.0,0.0,0.0,0.0,0.0,0.0,0.0,0.0,0.0,0.0,0.0,0.0,0.0,0.0,0.0,0.0,0.0,0.0,0.0,0.0,0.0,0.0,0.0,0.0,0.0,0.0,0.0,0.0,0.0,0.0,0.0,0.0,0.0,0.0,0.0,0.0,0.0,0.0,0.0,0.0,0.0,0.0,0.0,0.0,0.0,0.0,0.0,0.0,0.0,0.0,0.0,0.0,0.0,0.0,0.0,0.0,0.0,0.0,-3.2441,-3.7074,-4.3571,-4.5314,-4.603,-4.5865,-4.3571,-3.957,-3.3844,0.0,0.0,0.0,0.0,0.0,0.0,0.0,0.0,0.0,0.0,0.0,0.0,0.0,0.0,0.0,0.0,0.0,0.0,0.0,0.0,0.0,0.0,0.0,0.0,0.0,0.0,0.0,0.0,0.0,0.0,0.0,0.0,0.0,0.0,0.0,0.0,0.0,0.0,-2.009,-2.2461,0.0,0.0,0.0,0.0,0.0,0.0,0.0,0.0,-2.536,0.0,0.0,0.0,0.0,0.0,0.0,0.0,0.0,0.0,0.0,0.0,0.0,0.0,0.0,0.0,0.0,0.0,0.0,0.0,0.0,0.0,0.0,0.0,0.0,0.0,0.0,0.0,0.0,0.0,0.0,0.0,0.0,0.0,0.0,0.0,0.0,0.0,0.0,0.0,0.0,0.0,0.0,0.0,0.0,0.0,0.0,0.0,0.0,0.0,0.0,0.0,0.0,0.0,0.0,0.0,0.0,-3.3863,-3.3885,-3.7606,-4.5278,-4.6434,-4.6581,-4.5865,-4.3552,-3.9313,-3.3096,0.0,0.0,0.0,0.0,0.0,0.0,0.0,0.0,0.0,0.0,0.0,0.0,0.0,0.0,0.0,0.0,0.0,0.0,0.0,0.0,0.0,0.0,0.0,0.0,0.0,0.0,0.0,0.0,0.0,0.0,0.0,0.0,0.0,0.0,0.0,0.0,0.0,0.0,0.0,-2.4996,-2.6074,0.0,0.0,0.0,0.0,0.0,0.0,0.0,0.0,-2.6435,0.0,0.0,0.0,0.0,0.0,0.0,0.0,0.0,0.0,0.0,0.0,0.0,0.0,0.0,0.0,0.0,0.0,0.0,0.0,0.0,0.0,0.0,0.0,0.0,0.0,0.0,0.0,0.0,0.0,0.0,0.0,0.0,0.0,0.0,0.0,0.0,0.0,0.0,0.0,0.0,0.0,0.0,0.0,0.0,0.0,0.0,0.0,0.0,0.0,0.0,0.0,0.0,0.0,0.0,0.0,-3.2782,-3.4435,-3.8615,-4.559,-4.5883,-4.5883,-4.581,-4.1937,-3.7345,0.0,0.0,0.0,0.0,0.0,0.0,0.0,0.0,0.0,0.0,0.0,0.0,0.0,0.0,0.0,0.0,0.0,0.0,0.0,0.0,0.0,0.0,0.0,0.0,0.0,0.0,0.0,0.0,0.0,0.0,0.0,0.0,0.0,0.0,0.0,0.0,0.0,0.0,0.0,0.0,-2.6201,-2.7128,-2.8233,0.0,0.0,0.0,0.0,0.0,0.0,-2.76,-2.7296,0.0,0.0,0.0,0.0,0.0,0.0,0.0,0.0,0.0,0.0,0.0,0.0,0.0,0.0,0.0,0.0,0.0,0.0,0.0,0.0,0.0,0.0,0.0,0.0,0.0,0.0,0.0,0.0,0.0,0.0,0.0,0.0,0.0,0.0,0.0,0.0,0.0,0.0,0.0,0.0,0.0,0.0,0.0,0.0,0.0,0.0,0.0,0.0,0.0,0.0,0.0,0.0,0.0,0.0,0.0,-3.1334,-3.4784,-3.9496,-4.5314,-4.5204,-4.5168,-4.5553,-4.0359,-3.5583,0.0,0.0,0.0,0.0,0.0,0.0,0.0,0.0,0.0,0.0,0.0,0.0,0.0,0.0,0.0,0.0,0.0,0.0,0.0,0.0,0.0,0.0,0.0,0.0,0.0,0.0,0.0,0.0,0.0,0.0,0.0,0.0,0.0,0.0,0.0,0.0,0.0,0.0,0.0,0.0,0.0,-2.8128,-2.9265,-2.8956,0.0,0.0,0.0,0.0,-2.8304,-2.8904,0.0,0.0,0.0,0.0,0.0,0.0,0.0,0.0,0.0,0.0,0.0,0.0,0.0,0.0,0.0,0.0,0.0,0.0,0.0,0.0,0.0,0.0,0.0,0.0,0.0,0.0,0.0,0.0,0.0,0.0,0.0,0.0,0.0,0.0,0.0,0.0,0.0,0.0,0.0,0.0,0.0,0.0,0.0,0.0,0.0,0.0,0.0,0.0,0.0,0.0,0.0,0.0,0.0,0.0,0.0,0.0,-3.1334,-3.5316,-3.979,-4.4562,-4.5443,-4.548,-4.4783,-4.0065,-3.5583,0.0,0.0,0.0,0.0,0.0,0.0,0.0,0.0,0.0,0.0,0.0,0.0,0.0,0.0,0.0,0.0,0.0,0.0,0.0,0.0,0.0,0.0,0.0,0.0,0.0,0.0,0.0,0.0,0.0,0.0,0.0,0.0,0.0,0.0,0.0,0.0,0.0,0.0,0.0,0.0,0.0,-2.9231,-2.9455,-2.9369,-2.9489,0.0,0.0,0.0,-3.1878,-3.3177,0.0,0.0,0.0,0.0,0.0,0.0,0.0,0.0,0.0,0.0,0.0,0.0,0.0,0.0,0.0,0.0,0.0,0.0,0.0,0.0,0.0,0.0,0.0,0.0,0.0,0.0,0.0,0.0,0.0,0.0,0.0,0.0,0.0,0.0,0.0,0.0,0.0,0.0,0.0,0.0,0.0,0.0,0.0,0.0,0.0,0.0,0.0,0.0,0.0,0.0,0.0,0.0,0.0,0.0,0.0,-2.6345,-3.0717,-3.5628,-4.0065,-4.3846,-4.436,-4.4378,-4.4011,-3.7991,-3.3256,0.0,0.0,0.0,0.0,0.0,0.0,0.0,0.0,0.0,0.0,0.0,0.0,0.0,0.0,0.0,0.0,0.0,0.0,0.0,0.0,0.0,0.0,0.0,0.0,0.0,0.0,0.0,0.0,0.0,0.0,0.0,0.0,0.0,0.0,0.0,0.0,0.0,0.0,0.0,0.0,0.0,0.0,-3.1152,-3.1651,0.0,0.0,0.0,-3.2752,-3.2511,0.0,0.0,0.0,0.0,0.0,0.0,0.0,0.0,0.0,0.0,0.0,0.0,0.0,0.0,0.0,0.0,0.0,0.0,0.0,0.0,0.0,0.0,0.0,0.0,0.0,0.0,0.0,0.0,0.0,0.0,0.0,0.0,0.0,0.0,0.0,0.0,0.0,0.0,0.0,0.0,0.0,0.0,0.0,0.0,0.0,0.0,0.0,0.0,0.0,0.0,0.0,0.0,0.0,0.0,0.0,0.0,0.0,-3.021,-3.6009,-4.0359,-4.3092,-4.3387,-4.3406,-4.3094,-3.6909,0.0,0.0,0.0,0.0,0.0,0.0,0.0,0.0,0.0,0.0,0.0,0.0,0.0,0.0,0.0,0.0,0.0,0.0,0.0,0.0,0.0,0.0,0.0,0.0,0.0,0.0,0.0,-1.0636,0.0,0.0,0.0,0.0,0.0,0.0,0.0,0.0,0.0,0.0,0.0,0.0,0.0,0.0,-3.1308,-3.2439,-3.3453,-3.4168,0.0,0.0,-3.3997,-3.3328,-3.4211,-3.3841,0.0,0.0,0.0,0.0,0.0,0.0,0.0,0.0,0.0,0.0,0.0,0.0,0.0,0.0,0.0,0.0,0.0,0.0,0.0,0.0,0.0,0.0,0.0,0.0,0.0,0.0,0.0,0.0,0.0,0.0,0.0,0.0,0.0,0.0,0.0,0.0,0.0,0.0,0.0,0.0,0.0,0.0,0.0,0.0,0.0,0.0,0.0,0.0,0.0,0.0,0.0,0.0,0.0,0.0,0.0,-3.0283,-3.6541,-4.0634,-4.2323,-4.3112,-4.3147,-4.2359,-3.8248,-3.4156,0.0,0.0,0.0,0.0,0.0,0.0,0.0,0.0,0.0,0.0,0.0,0.0,0.0,0.0,0.0,0.0,0.0,0.0,0.0,0.0,0.0,0.0,0.0,0.0,0.0,0.0,0.0,0.0,0.0,0.0,0.0,0.0,0.0,0.0,0.0,0.0,0.0,0.0,0.0,0.0,0.0,-3.1645,-3.2488,-3.3775,-3.5125,0.0,0.0,-3.5591,-3.5424,-3.7271,-3.661,-3.0129,0.0,0.0,0.0,0.0,0.0,0.0,0.0,0.0,0.0,0.0,0.0,0.0,0.0,0.0,0.0,0.0,0.0,0.0,0.0,0.0,0.0,0.0,0.0,0.0,0.0,0.0,0.0,0.0,0.0,0.0,0.0,0.0,0.0,0.0,0.0,0.0,0.0,0.0,0.0,0.0,0.0,0.0,0.0,0.0,0.0,0.0,0.0,0.0,0.0,0.0,0.0,0.0,0.0,-2.6227,-2.9482,-3.6358,-4.0432,-4.1552,-4.2359,-4.2378,-4.1589,-3.7624,-3.3592,0.0,0.0,0.0,0.0,0.0,0.0,0.0,0.0,0.0,0.0,0.0,0.0,0.0,0.0,0.0,0.0,0.0,0.0,0.0,0.0,0.0,0.0,0.0,0.0,0.0,0.0,0.0,0.0,-1.6581,-1.6925,-1.7551,0.0,0.0,0.0,0.0,0.0,0.0,0.0,0.0,0.0,0.0,-3.3571,-3.564,-3.6418,0.0,0.0,-3.757,-3.7072,-3.7026,-3.6243,-3.4414,-3.0922,-2.8281,0.0,0.0,0.0,0.0,0.0,0.0,0.0,0.0,0.0,0.0,0.0,0.0,0.0,0.0,0.0,0.0,0.0,0.0,0.0,0.0,0.0,0.0,0.0,0.0,0.0,0.0,0.0,0.0,0.0,0.0,0.0,0.0,0.0,0.0,0.0,0.0,0.0,0.0,0.0,0.0,0.0,0.0,0.0,0.0,0.0,0.0,0.0,0.0,0.0,0.0,0.0,0.0,-2.6153,-2.9354,-3.6321,-4.0396,-4.1442,-4.2011,-4.1919,-4.104,-3.7848,-3.4197,0.0,0.0,0.0,0.0,0.0,0.0,0.0,0.0,0.0,0.0,0.0,0.0,0.0,0.0,0.0,0.0,0.0,0.0,0.0,0.0,0.0,0.0,0.0,0.0,0.0,0.0,0.0,0.0,-1.8308,-1.8427,-1.8855,0.0,0.0,0.0,0.0,0.0,0.0,0.0,0.0,0.0,0.0,-3.5074,-3.7312,-3.7878,-3.8109,-3.8319,-3.7889,-3.733,-3.6671,-3.5351,-3.3694,-3.1546,0.0,0.0,0.0,0.0,0.0,0.0,0.0,0.0,0.0,0.0,0.0,0.0,0.0,0.0,0.0,0.0,0.0,0.0,0.0,0.0,0.0,0.0,0.0,0.0,0.0,0.0,0.0,0.0,0.0,0.0,-1.5637,0.0,0.0,0.0,0.0,0.0,0.0,0.0,0.0,0.0,0.0,0.0,0.0,0.0,0.0,0.0,0.0,0.0,0.0,0.0,0.0,0.0,0.0,0.0,-3.0191,-3.6615,-4.0671,-4.2176,-4.2286,-4.1901,-4.1058,-3.9462,-3.667,-3.2528,0.0,0.0,0.0,0.0,0.0,0.0,0.0,0.0,0.0,0.0,0.0,0.0,0.0,0.0,0.0,0.0,0.0,0.0,0.0,0.0,0.0,0.0,0.0,0.0,0.0,0.0,-1.7124,-1.8165,-1.8838,0.0,0.0,0.0,0.0,0.0,0.0,0.0,0.0,0.0,0.0,-3.3237,-3.5859,-3.6745,-3.7449,-3.7686,-3.7049,-3.6897,-3.6101,-3.4049,-3.5284,-3.5475,0.0,0.0,0.0,0.0,0.0,0.0,0.0,0.0,0.0,0.0,0.0,0.0,0.0,0.0,0.0,0.0,0.0,0.0,0.0,0.0,0.0,0.0,0.0,0.0,0.0,0.0,0.0,-2.1859,-2.1226,0.0,0.0,0.0,0.0,0.0,0.0,0.0,0.0,0.0,0.0,0.0,-3.0155,-3.0448,0.0,0.0,0.0,0.0,0.0,0.0,0.0,0.0,0.0,0.0,0.0,0.0,-2.8312,-3.1158,-3.7404,-4.0948,-4.1479,-4.1499,-4.113,-4.0304,-3.8759,-3.5734,-3.1146,0.0,0.0,0.0,0.0,0.0,0.0,0.0,0.0,0.0,0.0,0.0,0.0,0.0,0.0,0.0,0.0,0.0,0.0,0.0,0.0,0.0,0.0,0.0,0.0,0.0,-1.7001,0.0,0.0,0.0,0.0,0.0,0.0,0.0,0.0,0.0,0.0,0.0,-2.9127,-3.2577,-3.41,-3.5504,-3.728,-3.7753,-3.8159,0.0,0.0,0.0,0.0,0.0,0.0,0.0,0.0,0.0,0.0,0.0,0.0,0.0,0.0,-3.4252,-2.8804,-2.7435,-2.7351,-2.8078,0.0,0.0,0.0,0.0,0.0,0.0,0.0,0.0,0.0,0.0,0.0,0.0,0.0,0.0,-2.6153,0.0,-2.3602,0.0,0.0,0.0,0.0,0.0,0.0,0.0,0.0,-3.0907,-3.3128,-3.5087,-3.5385,-3.5092,0.0,-3.2687,-2.8638,0.0,0.0,0.0,0.0,0.0,0.0,0.0,0.0,-2.9677,-3.1971,-3.794,-4.1224,-4.148,-4.1242,-4.0726,-3.99,-3.808,-3.544,-3.1971,-2.8771,-2.5815,0.0,0.0,0.0,0.0,0.0,0.0,0.0,0.0,0.0,0.0,0.0,0.0,0.0,0.0,0.0,0.0,0.0,0.0,0.0,0.0,0.0,0.0,0.0,-1.7804,0.0,0.0,0.0,0.0,0.0,0.0,0.0,0.0,0.0,-2.6183,-2.8891,-3.2107,-3.5267,-3.6129,-3.6705,-3.7415,0.0,0.0,0.0,0.0,0.0,0.0,0.0,-3.3609,-3.3833,-3.2696,-3.229,-3.3947,-3.6468,-3.7973,-3.6998,0.0,0.0,-3.3119,-3.1647,-3.1613,-3.2628,-3.2188,-3.1935,-3.2933,-3.3355,-3.3525,0.0,0.0,0.0,0.0,0.0,0.0,0.0,0.0,-3.0467,-3.0834,0.0,-2.8264,0.0,0.0,0.0,0.0,0.0,0.0,0.0,0.0,-3.8762,-4.0634,-3.797,-3.856,-3.8487,-3.7749,-3.7603,-3.5899,-3.2601,-2.6565,0.0,0.0,0.0,0.0,0.0,0.0,-3.1078,-3.2894,-3.8325,-4.1499,-4.2176,-4.148,-4.0689,-3.9772,-3.7547,-3.5881,-3.4899,-3.1922,-2.8833,-2.5686,-2.2464,0.0,0.0,0.0,0.0,0.0,0.0,0.0,0.0,0.0,0.0,0.0,0.0,0.0,0.0,0.0,0.0,0.0,0.0,0.0,0.0,-1.815,0.0,0.0,0.0,0.0,0.0,0.0,0.0,0.0,0.0,0.0,-2.9501,-3.2276,-3.5318,-3.7533,0.0,0.0,0.0,0.0,-3.7956,-3.5267,-3.5334,-3.5115,-3.3173,-3.5639,-3.7601,-3.6998,0.0,0.0,-3.8396,-3.8684,-3.8819,-3.7371,-3.9554,-4.1068,-4.0265,-3.7652,-3.6309,-3.7601,-3.6265,-3.5391,-3.6626,-3.7432,-3.7922,-3.8843,0.0,0.0,0.0,0.0,-3.3348,-3.4527,-3.7037,-3.5895,-3.5234,-3.4798,-3.328,0.0,0.0,0.0,0.0,0.0,0.0,-3.489,-3.7533,-4.0215,-4.2176,-4.3461,-4.313,-4.2873,-4.258,-4.091,-3.9882,-3.935,-3.5349,-3.0313,-2.4438,0.0,0.0,0.0,0.0,-3.3293,-3.6152,-3.9955,-4.1791,-4.1444,-4.1205,-4.0175,-3.8227,-3.696,-3.5899,-3.5023,-3.3568,-3.1549,-2.8936,-2.63,0.0,0.0,0.0,0.0,0.0,0.0,0.0,0.0,0.0,0.0,0.0,0.0,0.0,0.0,0.0,0.0,0.0,0.0,0.0,-1.7904,-1.9663,-2.0599,0.0,0.0,0.0,0.0,0.0,0.0,0.0,0.0,0.0,-3.4477,-3.451,-3.5131,0.0,0.0,-3.6062,-3.596,-3.7246,-3.8464,-3.9174,0.0,0.0,0.0,-3.892,-3.8193,-3.9022,-4.0747,-4.1762,-4.1136,-4.2127,-4.2871,-4.2398,-4.3075,-4.3565,-4.3278,-4.1728,-4.0578,-4.0882,-4.0476,-4.0172,-4.0637,-4.0899,-4.1035,-4.5953,-4.1991,-3.8932,-3.8202,-3.8958,-3.8254,-3.9433,-4.1803,-4.0797,-4.0249,-3.9992,-3.8542,-3.6619,-3.4486,-3.371,0.0,0.0,0.0,-3.8542,-4.1827,-4.2635,-4.4048,-4.5773,-4.5058,-4.4709,-4.4599,-4.291,-4.2286,-4.2708,-3.9861,-3.584,-3.076,0.0,0.0,-2.8845,-3.2596,-3.5661,-3.7991,-4.0818,-4.1919,-4.1095,-4.0175,-3.8982,-3.7547,-3.6395,-3.5536,-3.5023,-3.4229,-3.2981,-3.1207,-2.884,-2.564,0.0,0.0,0.0,0.0,0.0,0.0,0.0,0.0,0.0,0.0,0.0,-1.5013,0.0,0.0,0.0,0.0,-1.829,-1.9888,-2.1198,-2.2622,0.0,0.0,0.0,0.0,0.0,0.0,0.0,-3.085,-3.4315,-3.706,-3.798,-3.7574,-3.7618,-3.8826,-3.843,-3.799,-3.7855,0.0,-4.0476,-4.1491,-4.1255,-4.1424,-4.2726,-4.133,-4.0485,-4.1677,-4.2574,-4.321,-4.3261,-4.4022,-4.4564,-4.4598,-4.4598,-4.4598,-4.4598,-4.3819,-4.32,-4.321,-4.2946,-4.2844,-4.3115,-4.321,-4.32,-5.138,-5.0713,-4.4698,-4.2168,-4.2118,-4.2597,-4.3689,-4.5145,-4.4965,-4.5296,-4.581,-4.3608,-4.2176,-4.1297,-3.8395,0.0,0.0,-4.1187,-4.2746,-4.4929,-4.5736,-4.6049,-4.5957,-4.5186,-4.4764,-4.4673,-4.3883,-4.3479,-4.3404,-4.1256,-3.9735,-3.8854,-3.6619,-3.4949,-3.4082,-3.6266,-3.7933,-3.8799,-4.1056,-4.1829,-4.1095,-3.8744,-3.7474,-3.7382,-3.5775,-3.4876,-3.4802,-3.4014,-3.3275,-3.2472,-3.0326,-2.7666,-2.4502,0.0,0.0,0.0,0.0,0.0,0.0,0.0,0.0,0.0,0.0,0.0,0.0,0.0,0.0,0.0,-2.2881,0.0,-2.6279,-2.6561,0.0,0.0,0.0,-2.8888,-3.1534,-3.4286,-3.5971,-3.6039,0.0,0.0,0.0,0.0,-4.183,-4.254,-4.3031,-4.2817,-4.1474,-4.2472,-4.3267,-4.2726,-4.2668,-4.2692,-4.3166,-4.3267,-4.3589,-4.4181,-4.4598,-4.4513,-4.4496,-4.4564,-4.4598,-4.4598,-4.4598,-4.4598,-4.4598,-4.4547,-4.4598,-4.4513,-4.3978,-4.3724,-4.4327,-4.4462,-4.4445,-5.1918,-5.1231,-4.9654,-4.8582,-4.7774,-4.6633,-4.6709,-4.7555,-4.6856,-4.6636,-4.6727,-4.5553,-4.4929,-4.4709,-4.3956,-4.3938,-4.4507,-4.5315,-4.5975,-4.6562,-4.7352,-4.7407,-4.6764,-4.5993,-4.5296,-4.469,-4.3883,-4.3479,-4.3461,-4.2945,-4.1919,-4.0563,-3.9921,-3.7995,-3.4912,-3.656,-3.819,-3.9606,-4.0799,-4.1297,-4.104,-3.8744,-3.7217,-3.6578,-3.4981,-3.3775,-3.3188,-3.2394,-3.188,-3.1678,-3.0558,-2.8741,-2.6135,-2.2162,0.0,0.0,0.0,0.0,0.0,0.0,0.0,0.0,0.0,-1.9869,-1.601,0.0,-2.1915,0.0,-2.5829,-2.8732,-2.8998,-3.0148,0.0,0.0,-3.2593,-3.3956,-3.6789,-3.8244,-3.9225,-3.9817,-4.1001,-4.2219,-4.3352,-4.4164,-4.4908,-4.5585,-4.3893,-4.2422,-4.21,-4.3335,-4.4451,-4.4857,-4.5331,-4.5923,-4.6244,-4.5737,-4.4993,-4.4649,-4.4598,-4.4598,-4.4598,-4.4598,-4.4598,-4.4598,-4.4598,-4.4598,-4.4598,-4.4598,-4.4598,-4.4598,-4.4445,-4.435,-4.4564,-4.4598,-4.4598,-5.2884,-5.2438,-5.2085,-5.1176,-4.9898,-4.8919,-4.8716,-4.9048,-4.8144,-4.7701,-4.759,-4.7168,-4.6966,-4.6966,-4.6985,-4.6966,-4.7003,-4.7443,-4.7626,-4.7645,-4.8085,-4.7865,-4.7076,-4.6287,-4.548,-4.4673,-4.3883,-4.3296,-4.2983,-4.3314,-4.2855,-4.1662,-4.1992,-4.0671,-3.7848,-3.7936,-3.8469,-3.9368,-4.0157,-4.0744,-4.1003,-3.8744,-3.6776,-3.522,-3.3587,-3.2173,-3.1041,-3.0577,-3.0338,-3.0301,-2.9567,-2.8356,-2.6649,-2.3446,-2.0878,0.0,0.0,0.0,0.0,0.0,0.0,0.0,0.0,0.0,0.0,0.0,-2.5786,0.0,-3.054,0.0,-3.3294,-3.4844,-3.6233,-3.7068,-3.7256,-3.8308,-4.0705,-4.1653,-4.2371,-4.3115,-4.3842,-4.4739,-4.5923,-4.643,-4.6955,-4.7665,-4.6346,-4.5162,-4.4925,-4.5568,-4.6329,-4.7056,-4.7513,-4.7631,-4.7513,-4.6464,-4.5449,-4.4784,-4.4598,-4.4598,-4.4598,-4.4598,-4.4598,-4.4598,-4.4598,-4.4598,-4.4598,-4.4598,-4.4598,-4.4598,-4.4598,-4.4598,-4.4598,-4.4598,-4.4598,-5.3813,-5.3738,-5.3051,-5.1918,-5.058,-5.0397,-4.9991,-4.9381,-4.844,-4.8015,-4.7994,-4.8214,-4.8324,-4.8324,-4.8324,-4.8324,-4.8324,-4.8324,-4.8324,-4.8306,-4.8195,-4.7718,-4.6911,-4.6122,-4.5333,-4.4544,-4.3828,-4.313,-4.247,-4.3057,-4.2947,-4.2194,-4.2743,-4.2268,-4.0802,-3.9405,-3.8707,-3.8707,-3.9478,-4.023,-4.0875,-3.8377,-3.6005,-3.3862,-3.2027,-3.0448,-2.9078,-2.8895,-2.884,-2.8822,-2.8191,-2.7585,-2.7024,-2.4675,-2.2749,0.0,-1.9832,0.0,0.0,0.0,0.0,0.0,0.0,0.0,0.0,-2.8785,-3.0485,-3.2192,-3.5734,-3.805,-3.8297,-3.9768,-4.1101,-4.2015,-4.1615,-4.1891,-4.3457,-4.4332,-4.5066,-4.5783,-4.654,-4.7285,-4.7945,-4.8084,-4.8369,-4.8812,-4.8778,-4.8389,-4.8122,-4.7936,-4.8173,-4.8934,-4.9018,-4.8392,-4.7141,-4.6312,-4.5585,-4.4852,-4.4598,-4.4598,-4.4598,-4.4598,-4.4598,-4.4598,-4.4598,-4.4598,-4.4598,-4.4598,-4.4598,-4.4598,-4.4598,-4.4598,-4.4598,-4.4598,-4.4598,-5.3813,-5.3775,-5.3645,-5.3404,-5.3051,-5.2401,-5.0156,-4.6937,-4.5914,-4.5827,-4.6452,-4.7737,-4.8324,-4.8324,-4.8324,-4.8324,-4.8324,-4.8324,-4.8324,-4.8288,-4.7626,-4.6892,-4.6122,-4.5296,-4.4525,-4.3736,-4.3571,-4.3423,-4.324,-4.2763,-4.2121,-4.1315,-4.0818,-4.0102,-3.9187,0.0,0.0,0.0,-3.9496,-3.9974,-3.9992,-3.6431,-3.4284,-3.3733,-3.0968,0.0,-2.9005,-2.8374,-2.8026,-2.8026,-2.7879,0.0,0.0,0.0,0.0,0.0,0.0,0.0,0.0,0.0,0.0,0.0,-2.9928,-2.9836,-3.0497,-3.2564,-3.4821,-3.7096,-3.9103,-4.0933,-4.2521,-4.3125,-4.3762,-4.4483,-4.3744,-4.3681,-4.4914,-4.5426,-4.5937,-4.6656,-4.7549,-4.8357,-4.9022,-4.9193,-4.9167,-4.9165,-4.9185,-4.9073,-4.8798,-4.8765,-4.8832,-4.8984,-4.8984,-4.8443,-4.7005,-4.6633,-4.5991,-4.5004,-4.4598,-4.4598,-4.4598,-4.4598,-4.4598,-4.4598,-4.4598,-4.4598,-4.4598,-4.4598,-4.4598,-4.4598,-4.4598,-4.4598,-4.4598,-4.4598,-4.4598,-5.3813,0.0,-5.3813,-5.3348,0.0,-5.2178,-5.0098,-4.7004,-4.7272,-4.7315,-4.7279,-4.8089,-4.8458,-4.8402,-4.7592,-4.7224,-4.7169,-4.6324,-4.614,-4.6489,-4.6104,-4.57,-4.5296,-4.4892,-4.4287,-4.3497,-4.3479,-4.3294,-4.2909,-4.2488,-4.1901,-4.113,-4.1075,-4.0891,-4.0506,-4.0873,-4.0671,-3.9918,-4.0286,-4.0487,-4.0396,-3.7698,-3.544,-3.3807,0.0,0.0,0.0,0.0,0.0,0.0,0.0,0.0,0.0,0.0,0.0,-2.9469,-2.8441,-2.8466,-2.9989,-3.0155,-3.1568,-3.4743,-3.6101,-3.6101,-3.4555,-3.6982,-3.9294,-4.0928,-4.2472,-4.3943,-4.5309,-4.5722,-4.6014,-4.6248,-4.5622,-4.5333,-4.5623,-4.6391,-4.6934,-4.7176,-4.8165,-4.9095,-4.9436,-4.9488,-4.9458,-4.9367,-4.935,-4.932,-4.9246,-4.9094,-4.9018,-4.8984,-4.8663,-4.8071,-4.7039,-4.6447,-4.5923,-4.4886,-4.4598,-4.4598,-4.4598,-4.4598,-4.4598,-4.4598,-4.4598,-4.4598,-4.4598,-4.4598,-4.4598,-4.4598,-4.4598,-4.4598,-4.4598,-4.4598,-4.4598,-5.3813,-5.3813,-5.3813,-5.3032,-5.1825,-5.1825,-5.0506,-4.8407,0.0,0.0,0.0,-4.831,-4.8458,-4.8513,-4.7149,-4.6542,-4.645,-4.5037,-4.4671,-4.5149,-4.4984,-4.4837,-4.4691,-4.4544,-4.414,-4.3497,-4.3479,-4.3184,-4.2525,-4.2378,-4.1974,-4.1442,-4.1992,-4.2359,-4.2543,-4.3167,-4.2837,-4.1572,-4.1224,-4.1113,-4.1058,-3.9405,-3.7055,-3.4082,-3.2449,-3.0925,-2.9482,-2.9427,-2.9482,-2.9629,-2.9629,-3.0069,-3.098,-3.0907,-3.1274,-3.2173,-3.226,-3.2976,-3.4523,-3.4669,-3.6028,-3.9111,-4.1313,-4.1332,-3.8539,-4.102,-4.3057,-4.3846,-4.5259,-4.6434,-4.7223,-4.7456,-4.7551,-4.7446,-4.69,-4.631,-4.5887,-4.7012,-4.7679,-4.7512,-4.859,-4.9577,-4.9607,-4.9607,-4.9577,-4.953,-4.9393,-4.9359,-4.927,-4.9114,-4.9032,-4.8968,-4.8612,-4.7885,-4.6955,-4.638,-4.5585,-4.4801,-4.4598,-4.4598,-4.4598,-4.4598,-4.4598,-4.4598,-4.4598,-4.4598,-4.4598,-4.4598,-4.4598,-4.4598,-4.4598,-4.4598,-4.4598,-4.4598,-4.4598,-5.3813,-5.3813,-5.3813,-5.3683,-5.3478,-5.346,-5.2475,-5.0673,-4.8007,-4.6716,-4.6574,-4.7257,-4.7959,-4.8587,-4.8365,-4.8255,-4.8218,-4.7924,-4.75,0.0,-4.6085,-4.5369,-4.469,-4.3993,-4.3608,-4.3497,-4.3479,-4.346,-4.3259,-4.2616,-4.2231,-4.2139,-4.2249,-4.2616,-4.3277,-4.3424,-4.3369,-4.313,-4.1809,-4.1113,-4.1077,-3.8854,-3.678,-3.4894,-3.3298,-3.2008,-3.1109,-3.1072,-3.1384,-3.2051,-3.2087,-3.2766,-3.4197,-3.3647,-3.399,-3.544,-3.5605,-3.6303,-3.7866,-3.801,-3.9111,-4.1534,-4.2745,-4.2818,-4.1809,-4.3296,-4.4709,-4.548,-4.6324,-4.7259,-4.7974,-4.7804,-4.7632,-4.7548,-4.6653,-4.5975,-4.5943,-4.6933,-4.761,-4.7539,-4.8919,-4.9918,-4.9889,-4.9906,-4.9813,-4.9622,-4.9164,-4.8728,-4.8731,-4.8929,-4.9104,-4.9032,-4.8917,-4.8274,-4.7192,-4.6752,-4.6092,-4.4818,-4.4666,-4.4666,-4.4598,-4.4598,-4.4598,-4.4598,-4.4598,-4.4598,-4.4598,-4.4598,-4.4598,-4.4598,-4.4598,-4.4598,-4.4598,-4.4598,-4.4598,-5.3813,-5.3813,-5.3813,-5.3813,-5.3738,-5.2865,-5.2085,-5.1138,-4.83,-4.7041,-4.7044,-4.7396,-4.7767,-4.8008,-4.714,-4.6974,-4.7345,-4.6408,-4.5986,-4.5986,-4.5125,-4.4743,-4.4724,-4.3918,-4.3479,-4.3479,-4.3479,-4.3479,-4.3406,-4.269,-4.2103,-4.1699,-4.1662,-4.2047,-4.2818,-4.3294,-4.3479,-4.3496,-4.2782,-4.2194,-4.1735,-4.0249,-3.867,-3.7041,-3.5844,-3.4885,-3.4082,-3.3605,-3.3752,-3.4578,-3.416,-3.4637,-3.6211,-3.6009,-3.6354,-3.7496,-3.7606,-3.812,-3.9276,-4.0157,-4.113,-4.2231,-4.3039,-4.3552,-4.3608,-4.3864,-4.4562,-4.5755,-4.625,-4.6966,-4.8141,-4.8113,-4.7977,-4.7995,-4.747,-4.7106,-4.6962,-4.7583,-4.8111,-4.8119,-4.9048,-4.9833,-4.9988,-5.0011,-4.9757,-4.9309,-4.8862,-4.865,-4.854,-4.9068,-4.9381,-4.9168,-4.9107,-4.8606,-4.761,-4.7411,-4.6769,-4.5432,-4.5196,-4.5038,-4.4733,-4.4598,-4.4598,-4.4598,-4.4598,-4.4598,-4.4598,-4.4598,-4.4598,-4.4598,-4.4598,-4.4598,-4.4598,-4.4598,-4.4598,-5.3813,-5.3813,-5.3813,-5.3813,-5.3645,-5.2085,-5.1398,-5.1175,-4.8964,-4.7868,-4.7701,-4.7516,-4.7534,-4.7571,-4.6277,-4.6151,-4.6689,-4.5568,-4.5073,-4.5186,-4.4583,-4.4404,-4.4535,-4.3859,-4.3513,-4.3513,-4.3496,-4.3479,-4.3406,-4.2855,-4.2176,-4.1425,-4.1187,-4.1499,-4.2304,-4.3111,-4.3479,-4.3479,-4.3479,-4.3185,-4.258,-4.1956,-4.0799,-3.9074,-3.834,-3.7676,-3.6853,-3.6013,-3.6046,-3.6982,-3.6303,-3.6509,-3.7896,-3.7878,-3.8227,-3.9093,-3.9056,-3.9423,-4.0396,-4.1589,-4.2378,-4.258,-4.313,-4.3754,-4.4287,-4.3864,-4.425,-4.5847,-4.6416,-4.704,-4.8067,-4.8287,-4.8267,-4.8172,-4.8152,-4.7856,-4.7578,-4.8089,-4.8506,-4.8413,-4.9056,-4.9711,-4.9847,-4.9948,-4.97,-4.9016,-4.893,-4.8988,-4.8787,-4.9274,-4.9585,-4.9376,-4.9154,-4.8634,-4.7937,-4.7471,-4.6811,-4.5704,-4.5427,-4.5151,-4.4761,-4.4626,-4.4598,-4.4598,-4.4598,-4.4598,-4.4598,-4.4598,-4.4598,-4.4598,-4.4598,-4.4598,-4.4598,-4.4598,-4.4598,-5.3813,-5.3813,-5.3813,-5.3813,-5.3627,-5.2067,-5.1398,-5.1156,-4.9522,-4.837,-4.7664,-4.6921,-4.7014,-4.7627,-4.7478,-4.7777,-4.852,-4.8414,-4.7509,-4.6251,-4.6036,-4.5227,-4.4046,-4.3688,-4.3582,-4.3582,-4.3532,-4.3496,-4.3496,-4.3386,-4.2947,-4.2194,-4.1462,-4.1497,-4.2268,-4.3074,-4.3479,-4.3479,-4.3479,-4.3478,-4.3404,-4.3314,-4.2158,-3.9861,-3.9717,-3.9294,-3.845,-3.7713,-3.7988,-3.9331,-3.8707,-3.8707,-3.9441,-3.8982,-3.9242,-4.0636,-4.0157,-4.0432,-4.1846,-4.2231,-4.2598,-4.3313,-4.3423,-4.3551,-4.3698,-4.3606,-4.4488,-4.6452,-4.7608,-4.7939,-4.8288,-4.8306,-4.8152,-4.7836,-4.7756,-4.7485,-4.7249,-4.7615,-4.8063,-4.8045,-4.901,-4.9626,-4.9774,-4.9952,-4.97,-4.8992,-4.9366,-4.9481,-4.8936,-4.9436,-4.9872,-4.9576,-4.903,-4.8211,-4.7488,-4.6601,-4.6113,-4.5312,-4.4918,-4.4834,-4.4777,-4.4665,-4.4598,-4.4598,-4.4598,-4.4598,-4.4598,-4.4598,-4.4598,-4.4598,-4.4598,-4.4598,-4.4598,-4.4598,-4.4598,-5.3813,-5.3813,-5.3813,-5.3813,-5.359,-5.2085,-5.1398,-5.1231,-4.9615,-4.8463,-4.7646,-4.6847,-4.668,-4.6995,-4.6995,-4.7423,-4.8166,-4.815,-4.7817,-4.704,-4.6066,-4.5181,-4.4591,-4.3972,-4.3719,-4.3703,-4.3599,-4.3548,-4.3474,-4.3037,-4.2378,-4.1645,-4.1242,-4.104,-4.1001,-4.2158,-4.2782,-4.2818,-4.3258,-4.3479,-4.3479,-4.3479,-4.258,-4.0855,-4.0616,-4.023,-3.9386,-3.819,-3.8465,-4.0286,-3.8946,-3.8579,-3.9824,-3.9129,-3.8982,-3.9627,-3.9845,-4.0175,-4.0836,-4.1754,-4.2433,-4.2763,-4.3258,-4.3663,-4.4158,-4.4213,-4.5039,-4.6691,-4.7003,-4.7058,-4.7553,-4.8031,-4.8229,-4.8055,-4.8034,-4.7935,-4.7772,-4.7982,-4.8369,-4.9046,-4.91,-4.9572,-5.0409,-5.0461,-4.9995,-4.9439,-4.9627,-4.9552,-4.8992,-4.9482,-4.9913,-4.9751,-4.8822,-4.8117,-4.7786,-4.721,-4.6425,-4.5838,-4.5578,-4.5471,-4.4861,-4.4748,-4.4709,-4.4643,-4.4615,-4.4598,-4.4598,-4.4598,-4.4598,-4.4598,-4.4598,-4.4598,-4.4598,-4.4598,-4.4598,-5.3813,-5.3813,-5.3813,-5.3683,-5.3348,-5.2011,-5.1268,-5.0878,-4.9503,-4.8574,-4.798,-4.7181,-4.6748,-4.6608,-4.6543,-4.694,-4.7646,-4.7701,-4.7571,-4.7237,-4.5815,-4.5041,-4.4747,-4.4147,-4.3837,-4.382,-4.3667,-4.3582,-4.3473,-4.2705,-4.2011,-4.1462,-4.1205,-4.0818,-4.0432,-4.1644,-4.2176,-4.2047,-4.2745,-4.3075,-4.2855,-4.2837,-4.2286,-4.1205,-4.0875,-4.0487,-3.99,-3.8576,-3.8726,-4.0598,-3.8872,-3.8465,-3.9735,-3.9129,-3.8817,-3.9038,-3.9551,-4.0102,-4.0506,-4.1442,-4.2176,-4.2635,-4.3369,-4.4066,-4.4562,-4.4709,-4.5223,-4.614,-4.6122,-4.6324,-4.7333,-4.7957,-4.8288,-4.8324,-4.8324,-4.8324,-4.8305,-4.8324,-4.859,-4.9325,-4.8981,-4.9325,-5.0771,-5.0945,-5.0591,-5.0293,-5.0171,-5.0057,-4.9689,-4.9994,-5.0183,-4.9894,-4.8622,-4.7933,-4.8072,-4.713,-4.6531,-4.6154,-4.5751,-4.5463,-4.4998,-4.493,-4.4803,-4.4737,-4.4699,-4.4643,-4.4598,-4.4598,-4.4598,-4.4598,-4.4598,-4.4598,-4.4598,-4.4598,-4.4598,-5.3813,-5.3813,-5.3813,-5.3348,-5.2605,-5.1714,-5.0915,-5.0226,-4.9298,-4.887,-4.8719,-4.7977,-4.7359,-4.6877,-4.665,-4.6956,-4.7625,-4.7646,-4.7274,-4.6587,-4.5695,-4.4859,-4.4079,-4.3929,-4.3899,-4.3881,-4.3718,-4.3582,-4.3477,-4.2743,-4.2286,-4.2194,-4.1479,-4.1093,-4.1038,-4.1754,-4.1882,-4.1313,-4.2011,-4.2047,-4.137,-4.126,-4.1205,-4.0985,-4.0377,-3.9974,-3.9808,-3.9093,-3.9093,-3.9955,-3.9111,-3.9001,-3.9717,-3.9129,-3.9019,-3.9662,-3.9827,-4.0524,-4.1662,-4.1499,-4.1791,-4.3167,-4.3975,-4.4617,-4.458,-4.4672,-4.4838,-4.4893,-4.57,-4.6599,-4.781,-4.8177,-4.8306,-4.8324,-4.8324,-4.8324,-4.8324,-4.8324,-4.8324,-4.8556,-4.8785,-4.931,-5.0366,-5.1112,-5.139,-5.1387,-5.1426,-5.1376,-5.1187,-5.0991,-5.0504,-4.9704,-4.8657,-4.7717,-4.7586,-4.6639,-4.5711,-4.5316,-4.5218,-4.5015,-4.5103,-4.5069,-4.4855,-4.4763,-4.465,-4.4595,-4.4603,-4.4598,-4.4626,-4.4598,-4.4615,-4.4615,-4.4598,-4.4598,-4.4598,-5.3813,-5.3757,-5.3255,-5.2847,-5.2475,-5.1156,-5.0518,-5.0331,-4.9562,-4.9315,-4.9311,-4.8625,-4.7853,-4.7149,-4.7052,-4.7083,-4.7171,-4.702,-4.6773,-4.642,-4.5658,-4.4841,-4.4079,-4.3974,-4.3958,-4.3942,-4.3849,-4.3751,-4.3684,-4.3391,-4.2934,-4.2296,-4.156,-4.0903,-4.0579,-4.1148,-4.1148,-4.0561,-4.1607,-4.1919,-4.1077,-4.0598,-4.0322,-4.0322,-4.0081,-3.9882,-3.9882,-3.9111,-3.9313,-4.0616,-3.9441,-3.9056,-3.9698,-3.9148,-3.8817,-3.9093,-3.9129,-3.9606,-4.0598,-4.1001,-4.1554,-4.2616,-4.3461,-4.3975,-4.4011,-4.4415,-4.4893,-4.5443,-4.6195,-4.6984,-4.7406,-4.7975,-4.8324,-4.8306,-4.8306,-4.8324,-4.8324,-4.8324,-4.8508,-4.9076,-4.9633,-5.0052,-5.0068,-5.1009,-5.1679,-5.1458,-5.1784,-5.1934,-5.1651,-5.1398,-5.0959,-5.0082,-4.8869,-4.7696,-4.7149,-4.6187,-4.5284,-4.4837,-4.4552,-4.4156,-4.407,-4.3941,-4.3724,-4.4295,-4.4326,-4.4619,-4.464,-4.472,-4.4692,-4.4665,-4.4654,-4.4692,-4.4598,-4.4692,-4.4665,-5.4017,-5.3994,-5.3227,-5.2722,-5.233,-5.0983,-5.0365,-5.0305,-4.9774,-4.9627,-4.9657,-4.921,-4.8415,-4.7536,-4.734,-4.7093,-4.6763,-4.6719,-4.6607,-4.6326,-4.5799,-4.5088,-4.4377,-4.425,-4.4269,-4.425,-4.4196,-4.4079,-4.3945,-4.3929,-4.3534,-4.2836,-4.2044,-4.1204,-4.057,-4.0868,-4.0648,-4.0008,-4.0855,-4.1111,-4.0343,-3.9808,-3.9515,-3.9515,-3.9515,-3.9496,-3.9496,-3.9001,-3.9132,-3.9994,-3.9261,-3.8964,-3.9368,-3.9001,-3.8707,-3.8707,-3.8707,-3.9056,-3.9845,-4.0653,-4.1444,-4.2286,-4.3277,-4.3883,-4.392,-4.4378,-4.4947,-4.5535,-4.6232,-4.6654,-4.6654,-4.7498,-4.8196,-4.803,-4.8122,-4.8306,-4.8324,-4.8324,-4.8563,-4.9058,-4.9793,-4.9975,-4.9884,-5.1077,-5.1645,-5.1475,-5.2144,-5.2404,-5.1896,-5.1509,-5.0874,-4.9709,-4.8359,-4.7114,-4.6275,-4.5334,-4.4766,-4.4376,-4.404,-4.3577,-4.3241,-4.3036,-4.315,-4.3735,-4.4189,-4.456,-4.4746,-4.4838,-4.4814,-4.4786,-4.4879,-4.4971,-4.4906,-4.4869,-4.4906,-5.4479,-5.4599,-5.3844,-5.2952,-5.2218,-5.1239,-5.0496,-4.9936,-4.9822,-4.9844,-4.9904,-4.9794,-4.9054,-4.793,-4.7546,-4.7015,-4.6645,-4.6966,-4.6758,-4.6081,-4.6045,-4.5571,-4.4764,-4.4733,-4.4714,-4.4714,-4.4701,-4.4511,-4.4236,-4.4225,-4.4035,-4.3698,-4.2937,-4.214,-4.1233,-4.1227,-4.043,-3.9482,-3.9816,-3.9659,-3.8836,-3.8817,-3.8817,-3.8781,-3.8799,-3.8799,-3.8781,-3.8726,-3.8762,-3.8817,-3.8781,-3.8707,-3.8799,-3.8707,-3.8707,-3.8707,-3.8707,-3.9093,-3.99,-4.0708,-4.1462,-4.2451,-4.3791,-4.4525,-4.4397,-4.4672,-4.4819,-4.4929,-4.5571,-4.5773,-4.5425,-4.6837,-4.7939,-4.7333,-4.7792,-4.8159,-4.8214,-4.8269,-4.8324,-4.8489,-4.9114,-4.9555,-4.9884,-5.0767,-5.155,-5.1841,-5.2315,-5.2529,-5.1819,-5.1322,-5.0093,-4.8432,-4.7324,-4.6449,-4.5416,-4.4484,-4.4182,-4.3874,-4.3574,-4.3235,-4.303,-4.2838,-4.3106,-4.3642,-4.4597,-4.4977,-4.5523,-4.5554,-4.5266,-4.5213,-4.5275,-4.5372,-4.539,-4.539,-4.5346,-5.47,-5.4602,-5.3252,-5.2532,-5.213,-5.0789,-5.0106,-5.0094,-5.0068,-5.0183,-5.0388,-5.0429,-4.9829,-4.8863,-4.817,-4.7442,-4.6781,-4.6923,-4.6655,-4.6107,-4.602,-4.5615,-4.4933,-4.48,-4.4788,-4.4807,-4.4795,-4.4714,-4.4624,-4.4612,-4.4533,-4.4293,-4.3622,-4.3064,-4.258,-4.1908,-4.096,-4.0095,-3.9929,-3.9571,-3.8839,-3.8719,-3.8707,-3.8707,-3.8707,-3.8707,-3.8707,-3.8707,-3.8707,-3.8707,-3.8707,-3.8707,-3.8707,-3.8707,-3.8707,-3.8707,-3.8707,-3.935,-4.0543,-4.0985,-4.1735,-4.2965,-4.4121,-4.4342,-4.4121,-4.4892,-4.5168,-4.4947,-4.5847,-4.6214,-4.537,-4.6342,-4.7259,-4.7113,-4.7314,-4.748,-4.7461,-4.748,-4.7736,-4.8214,-4.8545,-4.893,-4.9482,-5.0271,-5.0657,-5.1114,-5.1463,-5.1463,-5.1147,-5.0533,-4.9738,-4.8273,-4.7146,-4.5824,-4.4872,-4.4121,-4.3701,-4.3518,-4.3275,-4.2968,-4.2763,-4.272,-4.3002,-4.3708,-4.4663,-4.5428,-4.5982,-4.614,-4.581,-4.5835,-4.6017,-4.6042,-4.6017,-4.595,-4.5933,-5.5037,-5.4941,-5.3334,-5.2647,-5.2438,-5.0836,-5.0214,-5.0369,-5.038,-5.0504,-5.0673,-5.0683,-5.0221,-4.9356,-4.849,-4.7663,-4.6923,-4.6586,-4.6215,-4.5966,-4.6237,-4.5886,-4.5181,-4.5096,-4.5096,-4.5096,-4.5096,-4.5041,-4.4962,-4.495,-4.4872,-4.465,-4.4221,-4.3749,-4.3322,-4.2385,-4.1479,-4.0664,-4.0081,-3.9574,-3.9142,-3.8939,-3.8851,-3.8837,-3.875,-3.8707,-3.8707,-3.8707,-3.8707,-3.8707,-3.8707,-3.8707,-3.8707,-3.8707,-3.8817,-3.9038,-3.8946,-3.9276,-4.0524,-4.1203,-4.1919,-4.3039,-4.4342,-4.4782,-4.4342,-4.5039,-4.5057,-4.4617,-4.5369,-4.5792,-4.5131,-4.5847,-4.6599,-4.6636,-4.6636,-4.6654,-4.6636,-4.6636,-4.7003,-4.7553,-4.7846,-4.8288,-4.8857,-4.95,-4.9739,-5.027,-5.06,-5.0362,-5.0068,-4.9444,-4.8508,-4.748,-4.614,-4.5059,-4.4344,-4.3761,-4.3251,-4.3116,-4.2999,-4.2671,-4.2413,-4.2417,-4.2594,-4.3732,-4.4735,-4.549,-4.6095,-4.633,-4.6269,-4.6507,-4.66,-4.6653,-4.663,-4.6607,-4.6566,-5.5442,-5.5434,-5.3865,-5.3095,-5.2815,-5.1326,-5.0624,-5.0673,-5.0673,-5.0673,-5.0683,-5.0683,-5.0279,-4.9433,-4.8567,-4.7721,-4.6971,-4.6259,-4.5942,-4.6022,-4.6397,-4.6349,-4.56,-4.5504,-4.5485,-4.5522,-4.555,-4.5448,-4.5232,-4.5222,-4.5085,-4.4908,-4.4813,-4.4457,-4.3729,-4.2749,-4.1834,-4.1083,-4.0082,-3.9526,-3.9458,-3.9224,-3.9073,-3.9059,-3.8837,-3.8707,-3.8707,-3.8707,-3.8707,-3.8707,-3.8707,-3.8707,-3.8707,-3.8726,-3.9166,-3.9606,-3.9111,-3.9368,-4.0139,-4.1405,-4.2396,-4.2892,-4.458,-4.5553,-4.4819,-4.4709,-4.4544,-4.3809,-4.4525,-4.4947,-4.4929,-4.5516,-4.5883,-4.5755,-4.5773,-4.581,-4.5847,-4.5847,-4.6214,-4.6837,-4.7094,-4.7424,-4.8324,-4.9022,-4.9408,-4.9721,-5.005,-4.9426,-4.8728,-4.7921,-4.6948,-4.5975,-4.5076,-4.4507,-4.3883,-4.3738,-4.3304,-4.3251,-4.3121,-4.2858,-4.2554,-4.2554,-4.2809,-4.3915,-4.4669,-4.545,-4.6072,-4.6341,-4.6552,-4.6655,-4.6841,-4.7126,-4.7255,-4.7212,-4.7168,-5.5284,-5.4703,-5.3645,-5.2837,-5.2164,-5.1106,-5.0683,-5.0683,-5.0683,-5.0683,-5.0683,-5.0683,-5.0577,-5.0212,-4.8759,-4.7971,-4.7567,-4.6894,-4.6567,-4.6586,-4.6731,-4.6413,-4.5748,-4.5594,-4.5594,-4.5594,-4.5594,-4.5568,-4.5504,-4.5476,-4.5429,-4.54,-4.5323,-4.5256,-4.4863,-4.3404,-4.2531,-4.1982,-4.0469,-3.9663,-3.9604,-3.9311,-3.9101,-3.9073,-3.8851,-3.8723,-3.8707,-3.8707,-3.8707,-3.8707,-3.8707,-3.8707,-3.8744,-3.9184,-3.9368,-3.9166,-3.9423,-3.9918,-4.0744,-4.1699,-4.2763,-4.4011,-4.5112,-4.5516,-4.48,-4.4709,-4.4305,-4.3938,-4.4672,-4.5296,-4.4966,-4.5388,-4.5333,-4.4415,-4.469,-4.5021,-4.5021,-4.5057,-4.5333,-4.6085,-4.6691,-4.7314,-4.803,-4.8471,-4.8893,-4.9224,-4.8838,-4.8122,-4.7498,-4.6489,-4.559,-4.5094,-4.4378,-4.3938,-4.3589,-4.3534,-4.3462,-4.3444,-4.3394,-4.334,-4.3178,-4.316,-4.3616,-4.4419,-4.4599,-4.5193,-4.591,-4.6422,-4.6577,-4.6716,-4.722,-4.7559,-4.7779,-4.7834,-4.7733,-5.4914,-5.4376,-5.3164,-5.2365,-5.1808,-5.1029,-5.0683,-5.0683,-5.0683,-5.0683,-5.0683,-5.0683,-5.0683,-5.051,-4.8894,-4.8115,-4.799,-4.7269,-4.6701,-4.6336,-4.6317,-4.6028,-4.5671,-4.5594,-4.5594,-4.5594,-4.5594,-4.5594,-4.5586,-4.5594,-4.5594,-4.5577,-4.5594,-4.5594,-4.5453,-4.4209,-4.3148,-4.2632,-4.1293,-4.0392,-4.0007,-3.9656,-3.9439,-3.935,-3.9101,-3.8925,-3.8807,-3.8795,-3.8765,-3.8704,-3.8707,-3.8707,-3.8726,-3.9093,-3.9313,-3.9166,-3.9368,-3.9845,-4.1001,-4.1864,-4.302,-4.4452,-4.5443,-4.5608,-4.5259,-4.4947,-4.436,-4.379,-4.4745,-4.5021,-4.4911,-4.5149,-4.4745,-4.3883,-4.392,-4.4195,-4.4213,-4.4195,-4.458,-4.5241,-4.5828,-4.6544,-4.759,-4.7755,-4.8233,-4.8563,-4.7994,-4.7278,-4.6562,-4.5388,-4.4507,-4.4213,-4.4011,-4.3681,-4.3534,-4.3497,-4.3479,-4.3479,-4.3479,-4.3479,-4.3479,-4.3479,-4.37,-4.4105,-4.4452,-4.4856,-4.5424,-4.603,-4.6524,-4.683,-4.7458,-4.7843,-4.7988,-4.8004,-4.7965,-5.4444,-5.4222,-5.2587,-5.1846,-5.1635,-5.1029,-5.0683,-5.0683,-5.0683,-5.0683,-5.0683,-5.0683,-5.0683,-5.0577,-4.8913,-4.8096,-4.8067,-4.7442,-4.6778,-4.6317,-4.6028,-4.5825,-4.5633,-4.5594,-4.5594,-4.5594,-4.5594,-4.5594,-4.5594,-4.5594,-4.5594,-4.5594,-4.5594,-4.5594,-4.5413,-4.4654,-4.3895,-4.3141,-4.2061,-4.1203,-4.0595,-4.0166,-3.9835,-3.9667,-3.9389,-3.9129,-3.895,-3.8896,-3.8837,-3.8738,-3.8704,-3.8719,-3.8738,-3.8759,-3.9056,-3.9551,-3.9423,-3.9863,-4.0965,-4.1974,-4.3075,-4.4489,-4.5351,-4.5755,-4.5461,-4.4874,-4.4176,-4.357,-4.4232,-4.469,-4.4745,-4.4746,-4.4378,-4.3699,-4.3534,-4.3497,-4.3479,-4.3479,-4.3773,-4.4452,-4.4618,-4.5461,-4.6305,-4.6984,-4.7223,-4.7517,-4.6947,-4.6287,-4.5681,-4.4892,-4.4176,-4.3736,-4.3608,-4.3534,-4.3497,-4.3479,-4.3479,-4.3479,-4.3479,-4.3479,-4.3479,-4.3479,-4.3479,-4.3681,-4.403,-4.4268,-4.4525,-4.5204,-4.5975,-4.6507,-4.6837,-4.7387,-4.7865,-4.779,-4.7751,-5.409,-5.3395,-5.2346,-5.1548,-5.0991,-5.077,-5.0683,-5.0683,-5.0683,-5.0673,-5.0673,-5.0673,-5.0673,-5.0577,-4.8913,-4.8096,-4.8058,-4.7778,-4.7702,-4.7548,-4.6855,-4.6201,-4.5748,-4.5594,-4.5594,-4.5594,-4.5594,-4.5594,-4.5594,-4.5594,-4.5594,-4.5594,-4.5594,-4.5594,-4.5479,-4.4836,-4.4259,-4.3761,-4.2563,-4.1731,-4.1266,-4.053,-4.007,-3.9899,-3.9537,-3.9192,-3.8964,-3.891,-3.8896,-3.8866,-3.8851,-3.8837,-3.8869,-3.935,-3.9485,-3.9417,-4.012,-4.0726,-4.1258,-4.2378,-4.3626,-4.4544,-4.4801,-4.4947,-4.4911,-4.4268,-4.3754,-4.3626,-4.4195,-4.4672,-4.4691,-4.4709,-4.4268,-4.3681,-4.3479,-4.3479,-4.3479,-4.3479,-4.3608,-4.3828,-4.4323,-4.4856,-4.5241,-4.5902,-4.6159,-4.6287,-4.5902,-4.5259,-4.48,-4.436,-4.392,-4.3479,-4.3479,-4.3479,-4.3479,-4.3479,-4.3479,-4.3479,-4.3479,-4.3479,-4.3479,-4.3479,-4.3479,-4.3515,-4.3606,-4.3791,-4.403,-4.4378,-4.5131,-4.5645,-4.6195,-4.6727,-4.7168,-4.7278,-4.7406,-5.3658,-5.3128,-5.1867,-5.1087,-5.075,-5.0683,-5.0683,-5.0683,-5.0683,-5.0462,-5.025,-5.0481,-5.0481,-4.999,-4.8759,-4.8096,-4.7875,-4.724,-4.7144,-4.7182,-4.6663,-4.6028,-4.5729,-4.5594,-4.5594,-4.5594,-4.5594,-4.5594,-4.5594,-4.5594,-4.5594,-4.5594,-4.5594,-4.5594,-4.5594,-4.5114,-4.4701,-4.4239,-4.3453,-4.261,-4.1739,-4.1193,-4.0501,-4.0138,-3.9739,-3.9445,-3.9345,-3.9245,-3.9192,-3.9156,-3.9078,-3.895,-3.8977,-3.9574,-3.9743,-3.9712,-4.0486,-4.1411,-4.191,-4.2483,-4.3439,-4.4599,-4.4397,-4.4433,-4.4397,-4.3956,-4.3534,-4.3663,-4.4158,-4.4709,-4.4654,-4.4268,-4.3901,-4.3644,-4.3479,-4.3479,-4.3479,-4.3479,-4.3479,-4.3552,-4.3883,-4.4305,-4.4727,-4.5112,-4.5535,-4.5828,-4.5425,-4.4819,-4.4672,-4.4232,-4.3791,-4.3479,-4.3479,-4.3479,-4.3479,-4.3479,-4.3479,-4.3479,-4.3479,-4.3479,-4.3479,-4.3479,-4.3479,-4.3515,-4.3533,-4.3515,-4.3736,-4.4066,-4.4378,-4.4947,-4.5535,-4.6049,-4.6397,-4.6526,-4.6617,-5.3108,-5.2984,-5.1385,-5.0702,-5.0683,-5.0683,-5.0693,-5.0683,-5.0683,-5.0385,-4.9837,-5.0394,-5.0337,-4.9548,-4.8567,-4.8105,-4.7509,-4.6547,-4.624,-4.6836,-4.6144,-4.5748,-4.5594,-4.5594,-4.5594,-4.5594,-4.5594,-4.5594,-4.5594,-4.5594,-4.5594,-4.5594,-4.5594,-4.5594,-4.5594,-4.5575,-4.5229,-4.4624,-4.422,-4.3423,-4.2231,-4.1802,-4.117,-4.032,-3.9983,-3.9797,-3.9698,-3.959,-3.952,-3.9502,-3.9397,-3.9287,-3.9316,-3.9664,-4.0236,-4.0277,-4.1166,-4.1815,-4.2265,-4.2656,-4.3323,-4.4469,-4.4008,-4.3899,-4.4157,-4.3974,-4.3735,-4.3901,-4.4323,-4.4599,-4.4488,-4.4011,-4.3626,-4.3479,-4.3479,-4.3479,-4.3479,-4.3479,-4.3479,-4.3497,-4.3626,-4.392,-4.4195,-4.4507,-4.4966,-4.5241,-4.4819,-4.4489,-4.4323,-4.4121,-4.3681,-4.3479,-4.3479,-4.3479,-4.3479,-4.3479,-4.3479,-4.3479,-4.3479,-4.3479,-4.3479,-4.3479,-4.3479,-4.3479,-4.3479,-4.3479,-4.3479,-4.3681,-4.403,-4.4433,-4.4911,-4.548,-4.57,-4.5755,-4.5938,-5.2285,-5.2202,-5.1208,-5.0738,-5.0711,-5.0692,-5.0683,-5.0693,-5.0654,-5.0635,-5.0423,-5.0596,-5.0462,-4.9933,-4.8721,-4.7778,-4.6951,-4.6086,-4.6028,-4.6567,-4.599,-4.5594,-4.5594,-4.5594,-4.5594,-4.5594,-4.5594,-4.5594,-4.5594,-4.5594,-4.5594,-4.5594,-4.5594,-4.5594,-4.5594,-4.5594,-4.5537,-4.5171,-4.472,-4.3874,-4.3008,-4.2212,-4.1519,-4.0595,-4.0463,-4.03,-4.0024,-3.9851,-3.9671,-3.9576,-4.0108,-4.0301,-4.0323,-4.0377,-4.0674,-4.1228,-4.1952,-4.2543,-4.2714,-4.3215,-4.3535,-4.3763,-4.3743,-4.3635,-4.3731,-4.3696,-4.3788,-4.4194,-4.4378,-4.4433,-4.3754,-4.3606,-4.3533,-4.3496,-4.3496,-4.3479,-4.3479,-4.3479,-4.3479,-4.3479,-4.3533,-4.3551,-4.3809,-4.3975,-4.4176,-4.4397,-4.4176,-4.3975,-4.3864,-4.3773,-4.3571,-4.3479,-4.3479,-4.3479,-4.3479,-4.3479,-4.3479,-4.3479,-4.3479,-4.3479,-4.3479,-4.3479,-4.3479,-4.3479,-4.3479,-4.3479,-4.3479,-4.3479,-4.3608,-4.3938,-4.4433,-4.4947,-4.5076,-4.5223,-4.5736,-5.2125,-5.2024,-5.1194,-5.0821,-5.0757,-5.071,-5.0682,-5.0625,-5.024,-4.976,-4.9452,-4.9336,-4.9106,-4.8606,-4.7971,-4.7028,-4.6278,-4.5864,-4.5864,-4.6067,-4.5806,-4.5594,-4.5594,-4.5594,-4.5594,-4.5594,-4.5594,-4.5594,-4.5594,-4.5594,-4.5594,-4.5594,-4.5594,-4.5594,-4.5594,-4.5594,-4.5594,-4.5479,-4.5133,-4.4528,-4.3701,-4.2893,-4.2142,-4.1859,-4.1651,-4.1626,-4.1533,-4.1339,-4.1276,-4.1263,-4.143,-4.1713,-4.1882,-4.1978,-4.1992,-4.2259,-4.2854,-4.3286,-4.3275,-4.3684,-4.3749,-4.3651,-4.3667,-4.3634,-4.3549,-4.3587,-4.3788,-4.3974,-4.4085,-4.3955,-4.3621,-4.3532,-4.3532,-4.3531,-4.3532,-4.3515,-4.3479,-4.3479,-4.3479,-4.3479,-4.3497,-4.3515,-4.3497,-4.3571,-4.3516,-4.3479,-4.3479,-4.3479,-4.3479,-4.3479,-4.3479,-4.3479,-4.3479,-4.3479,-4.3479,-4.3479,-4.3479,-4.3479,-4.3479,-4.3479,-4.3479,-4.3479,-4.3479,-4.3479,-4.3479,-4.3479,-4.3479,-4.3479,-4.3479,-4.3552,-4.4176,-4.4654,-4.4599,-4.4782,-4.5241,-5.1915,-5.1796,-5.1159,-5.0775,-5.0598,-5.0708,-5.0488,-5.0162,-4.9701,-4.9018,-4.821,-4.8134,-4.7855,-4.7298,-4.6951,-4.6451,-4.5652,-4.5594,-4.5633,-4.5652,-4.5633,-4.5594,-4.5594,-4.5594,-4.5594,-4.5594,-4.5594,-4.5594,-4.5594,-4.5594,-4.5594,-4.5594,-4.5594,-4.5594,-4.5594,-4.5594,-4.5594,-4.5594,-4.5575,-4.5152,-4.4335,-4.3547,-4.3085,-4.3085,-4.3085,-4.3,-4.2823,-4.2649,-4.2527,-4.2515,-4.2658,-4.2936,-4.3478,-4.3732,-4.363,-4.339,-4.3785,-4.3958,-4.3926,-4.3894,-4.383,-4.3718,-4.3701,-4.3651,-4.3641,-4.3679,-4.3753,-4.3588,-4.3773,-4.3753,-4.3622,-4.3513,-4.3532,-4.3549,-4.3513,-4.3479,-4.3479,-4.3479,-4.3479,-4.3479,-4.3479,-4.3479,-4.3479,-4.3479,-4.3479,-4.3479,-4.3479,-4.3479,-4.3479,-4.3479,-4.3479,-4.3479,-4.3479,-4.3479,-4.3479,-4.3479,-4.3479,-4.3479,-4.3479,-4.3479,-4.3479,-4.3479,-4.3479,-4.3479,-4.3479,-4.3479,-4.3479,-4.3479,-4.3479,-4.3663,-4.414,-4.4433,-4.4525,-4.4415,-4.4544,-5.1053,-5.1045,-5.0948,-5.0468,-4.9934,-5.0477,-4.995,-4.8808,-4.9169,-4.9024,-4.8118,-4.8065,-4.7912,-4.7661,-4.7076,-4.6374,-4.5825,-4.5594,-4.5594,-4.5594,-4.5594,-4.5594,-4.5594,-4.5594,-4.5594,-4.5594,-4.5594,-4.5594,-4.5594,-4.5594,-4.5594,-4.5594,-4.5594,-4.5594,-4.5594,-4.5594,-4.5594,-4.5594,-4.5594,-4.519,-4.4412,-4.3643,-4.3335,-4.3239,-4.3258,-4.3316,-4.3412,-4.3342,-4.3212,-4.3015,-4.3452,-4.3651,-4.3741,-4.4289,-4.458,-4.4518,-4.4423,-4.425,-4.4064,-4.4002,-4.3958,-4.3881,-4.3878,-4.3814,-4.3795,-4.4008,-4.4064,-4.3551,-4.4029,-4.412,-4.3676,-4.3532,-4.3515,-4.3532,-4.3513,-4.3496,-4.3479,-4.3479,-4.3479,-4.3479,-4.3479,-4.3479,-4.3479,-4.3479,-4.3479,-4.3479,-4.3479,-4.3479,-4.3479,-4.3479,-4.3479,-4.3479,-4.3479,-4.3479,-4.3479,-4.3479,-4.3479,-4.3479,-4.3479,-4.3479,-4.3479,-4.3479,-4.3479,-4.3479,-4.3479,-4.3479,-4.3479,-4.3479,-4.3479,-4.3681,-4.403,-4.4342,-4.4599,-4.4397,-4.4176,-5.0028,-5.084,-5.0422,-5.002,-4.9656,-4.9517,-4.9021,-4.8373,-4.8079,-4.7841,-4.7428,-4.6901,-4.6719,-4.669,-4.6268,-4.597,-4.5652,-4.5594,-4.5594,-4.5594,-4.5594,-4.5594,-4.5594,-4.5594,-4.5594,-4.5594,-4.5594,-4.5594,-4.5594,-4.5594,-4.5594,-4.5594,-4.5594,-4.5594,-4.5594,-4.5594,-4.5594,-4.5594,-4.5575,-4.5402,-4.5028,-4.4701,-4.4498,-4.447,-4.4451,-4.4432,-4.4432,-4.4509,-4.4483,-4.4402,-4.4757,-4.4825,-4.4805,-4.5032,-4.5182,-4.5019,-4.4931,-4.4663,-4.4303,-4.4217,-4.4106,-4.3961,-4.3929,-4.3865,-4.381,-4.3962,-4.4113,-4.3724,-4.3964,-4.3981,-4.3778,-4.3634,-4.3617,-4.3617,-4.3566,-4.3513,-4.3496,-4.3479,-4.3479,-4.3479,-4.3496,-4.3532,-4.3549,-4.3532,-4.3532,-4.3479,-4.3479,-4.3479,-4.3479,-4.3479,-4.3479,-4.3479,-4.3479,-4.3479,-4.3479,-4.3479,-4.3479,-4.3479,-4.3479,-4.3479,-4.3479,-4.3479,-4.3479,-4.3479,-4.3479,-4.3479,-4.3479,-4.3479,-4.3479,-4.3663,-4.3883,-4.4085,-4.4305,-4.4544,-4.4323,-4.9765,-5.0782,-4.9803,-4.9378,-4.932,-4.8613,-4.806,-4.7584,-4.7199,-4.6848,-4.6504,-4.5986,-4.568,-4.5614,-4.5671,-4.5652,-4.5614,-4.5594,-4.5594,-4.5594,-4.5594,-4.5594,-4.5594,-4.5594,-4.5594,-4.5594,-4.5594,-4.5594,-4.5594,-4.5594,-4.5594,-4.5594,-4.5594,-4.5594,-4.5594,-4.5594,-4.5594,-4.5594,-4.5594,-4.5556,-4.5498,-4.5518,-4.5498,-4.5537,-4.5594,-4.5594,-4.5594,-4.5518,-4.5509,-4.549,-4.5442,-4.5425,-4.5454,-4.5446,-4.5448,-4.5322,-4.5253,-4.5085,-4.4751,-4.4546,-4.4351,-4.414,-4.3913,-4.3881,-4.3835,-4.3802,-4.3788,-4.3771,-4.3808,-4.3876,-4.3835,-4.3718,-4.3701,-4.3703,-4.3669,-4.36,-4.3566,-4.3583,-4.36,-4.3635,-4.3652,-4.3635,-4.3635,-4.3618,-4.3566,-4.3496,-4.3479,-4.3496,-4.3496,-4.3496,-4.3479,-4.3479,-4.3479,-4.3479,-4.3479,-4.3479,-4.3479,-4.3479,-4.3479,-4.3479,-4.3479,-4.3479,-4.3479,-4.3479,-4.3479,-4.3479,-4.3479,-4.3479,-4.3497,-4.3608,-4.3699,-4.3754,-4.3956,-4.425,-4.4323,-5.0801,-5.0763,-4.9146,-4.8527,-4.8566,-4.843,-4.7475,-4.6513,-4.6851,-4.6642,-4.6113,-4.5753,-4.5648,-4.5622,-4.5594,-4.5594,-4.5594,-4.5594,-4.5594,-4.5594,-4.5594,-4.5594,-4.5594,-4.5594,-4.5594,-4.5594,-4.5594,-4.5594,-4.5594,-4.5594,-4.5594,-4.5594,-4.5594,-4.5594,-4.5594,-4.5594,-4.5594,-4.5594,-4.5594,-4.5594,-4.5594,-4.5594,-4.5594,-4.5594,-4.5594,-4.5594,-4.5594,-4.5594,-4.5594,-4.5594,-4.5594,-4.5594,-4.5594,-4.5594,-4.5531,-4.5522,-4.5504,-4.5342,-4.5118,-4.4872,-4.4637,-4.4374,-4.4166,-4.3986,-4.3958,-4.3849,-4.3802,-4.3818,-4.3835,-4.3837,-4.3837,-4.3788,-4.3786,-4.3788,-4.3771,-4.3719,-4.3703,-4.3719,-4.3754,-4.3771,-4.3771,-4.3738,-4.3703,-4.3686,-4.3652,-4.3618,-4.3513,-4.3513,-4.3496,-4.3496,-4.3496,-4.3479,-4.3479,-4.3479,-4.3479,-4.3479,-4.3479,-4.3479,-4.3479,-4.3479,-4.3479,-4.3479,-4.3479,-4.3479,-4.3479,-4.3479,-4.3479,-4.3479,-4.3479,-4.3479,-4.3534,-4.3608,-4.3626,-4.3809,-4.3828,-4.9467,-5.0627,-4.7947,-4.7715,-4.9146,-4.8624,-4.799,-4.7465,-4.7666,-4.7306,-4.6405,-4.594,-4.5657,-4.5603,-4.5594,-4.5594,-4.5594,-4.5594,-4.5594,-4.5594,-4.5594,-4.5594,-4.5594,-4.5594,-4.5594,-4.5594,-4.5594,-4.5594,-4.5594,-4.5594,-4.5594,-4.5594,-4.5594,-4.5594,-4.5594,-4.5594,-4.5594,-4.5594,-4.5594,-4.5594,-4.5594,-4.5594,-4.5594,-4.5594,-4.5594,-4.5594,-4.5594,-4.5594,-4.5594,-4.5594,-4.5594,-4.5594,-4.5594,-4.5594,-4.5594,-4.5594,-4.5594,-4.5522,-4.5419,-4.5171,-4.4919,-4.4701,-4.4525,-4.4374,-4.4221,-4.4162,-4.4064,-4.4005,-4.391,-4.3945,-4.3929,-4.3881,-4.3867,-4.3869,-4.3853,-4.382,-4.382,-4.3837,-4.3818,-4.3835,-4.382,-4.3771,-4.3788,-4.3788,-4.3754,-4.3721,-4.3617,-4.3548,-4.3566,-4.3549,-4.3549,-4.3549,-4.3549,-4.3532,-4.3513,-4.3496,-4.3496,-4.3479,-4.3479,-4.3479,-4.3479,-4.3479,-4.3479,-4.3479,-4.3479,-4.3479,-4.3479,-4.3479,-4.3479,-4.3479,-4.3479,-4.3497,-4.3497,-4.3479,-4.3479,-4.8682,-5.0152,-4.7695,-4.7773,-4.9455,-4.8488,-4.799,-4.7948,-4.7874,-4.741,-4.6508,-4.5929,-4.5662,-4.5637,-4.5637,-4.5637,-4.5637,-4.5648,-4.5631,-4.5631,-4.5603,-4.5594,-4.5594,-4.5594,-4.5594,-4.5594,-4.5594,-4.5594,-4.5594,-4.5594,-4.5594,-4.5594,-4.5594,-4.5594,-4.5594,-4.5594,-4.5594,-4.5594,-4.5594,-4.5594,-4.5594,-4.5594,-4.5594,-4.5594,-4.5594,-4.5594,-4.5594,-4.5594,-4.5594,-4.5594,-4.5594,-4.5594,-4.5594,-4.5594,-4.5594,-4.5594,-4.5594,-4.5594,-4.5522,-4.5342,-4.5118,-4.4931,-4.4788,-4.4663,-4.4572,-4.4519,-4.443,-4.4308,-4.421,-4.4121,-4.4091,-4.4036,-4.3961,-4.3929,-4.3913,-4.3897,-4.3899,-4.3899,-4.3881,-4.3865,-4.3867,-4.3867,-4.3883,-4.3883,-4.3818,-4.3786,-4.3719,-4.3667,-4.3686,-4.3669,-4.3634,-4.3652,-4.3635,-4.3583,-4.3549,-4.3549,-4.3531,-4.3479,-4.3479,-4.3479,-4.3479,-4.3479,-4.3479,-4.3479,-4.3479,-4.3479,-4.3479,-4.3479,-4.3479,-4.3479,-4.3479,-4.3479,-4.3479,-4.3479,-4.3479,-4.8856,-4.9591,-4.8604,-4.872,-4.9378,-4.7869,-4.7231,-4.7378,-4.7252,-4.677,-4.6036,-4.5766,-4.57,-4.5692,-4.5684,-4.5684,-4.5676,-4.5671,-4.5673,-4.5665,-4.564,-4.5603,-4.5594,-4.5594,-4.5594,-4.5594,-4.5594,-4.5594,-4.5594,-4.5594,-4.5594,-4.5594,-4.5594,-4.5594,-4.5594,-4.5594,-4.5594,-4.5594,-4.5594,-4.5594,-4.5594,-4.5594,-4.5594,-4.5594,-4.5594,-4.5594,-4.5594,-4.5594,-4.5594,-4.5594,-4.5594,-4.5594,-4.5594,-4.5594,-4.5594,-4.5594,-4.5594,-4.5594,-4.5577,-4.5342,-4.5232,-4.5191,-4.5063,-4.4896,-4.4831,-4.4807,-4.4739,-4.4604,-4.4506,-4.4397,-4.4303,-4.4225,-4.4121,-4.4033,-4.4033,-4.3989,-4.3989,-4.3961,-4.3945,-4.3929,-4.3958,-4.3989,-4.3989,-4.3992,-4.3897,-4.3849,-4.382,-4.3788,-4.3788,-4.3754,-4.3719,-4.3703,-4.3703,-4.3686,-4.3634,-4.3617,-4.3583,-4.3513,-4.3479,-4.3479,-4.3479,-4.3479,-4.3479,-4.3479,-4.3479,-4.3479,-4.3479,-4.3479,-4.3479,-4.3479,-4.3479,-4.3479,-4.3479,-4.3479,-4.3479,-4.8063,-4.8701,-4.727,-4.7509,-4.8662,-4.8237,-4.7966,-4.785,-4.7371,-4.6904,-4.6546,-4.6074,-4.5731,-4.5696,-4.5688,-4.5688,-4.5708,-4.568,-4.5695,-4.5701,-4.5665,-4.564,-4.5622,-4.5603,-4.5594,-4.5594,-4.5594,-4.5594,-4.5594,-4.5594,-4.5594,-4.5594,-4.5594,-4.5594,-4.5594,-4.5594,-4.5594,-4.5594,-4.5594,-4.5594,-4.5594,-4.5594,-4.5594,-4.5594,-4.5594,-4.5594,-4.5594,-4.5594,-4.5594,-4.5594,-4.5594,-4.5594,-4.5594,-4.5594,-4.5594,-4.5594,-4.5594,-4.5594,-4.5586,-4.5504,-4.5476,-4.5419,-4.5342,-4.5182,-4.5096,-4.5074,-4.4985,-4.4868,-4.4751,-4.4676,-4.4624,-4.4599,-4.4525,-4.4318,-4.425,-4.4136,-4.4075,-4.402,-4.3974,-4.3974,-4.4005,-4.4005,-4.4005,-4.4005,-4.3961,-4.3929,-4.3899,-4.3867,-4.3867,-4.3802,-4.3753,-4.3753,-4.3771,-4.3771,-4.3736,-4.3701,-4.3651,-4.36,-4.3531,-4.3479,-4.3479,-4.3496,-4.3496,-4.3515,-4.3496,-4.3479,-4.3479,-4.3479,-4.3479,-4.3479,-4.3479,-4.3479,-4.3479,-4.3479,-4.3479,-4.7173,-4.7753,-4.6399,-4.6612,-4.7831,-4.7947,-4.7947,-4.7792,-4.7038,-4.6636,-4.6486,-4.6015,-4.5776,-4.5734,-4.5727,-4.5727,-4.5746,-4.5731,-4.5723,-4.5742,-4.5706,-4.5671,-4.5646,-4.564,-4.5637,-4.5629,-4.5603,-4.5594,-4.564,-4.5603,-4.5594,-4.5594,-4.5594,-4.5594,-4.5594,-4.5594,-4.5594,-4.5594,-4.5594,-4.5594,-4.5594,-4.5594,-4.5594,-4.5594,-4.5594,-4.5594,-4.5594,-4.5594,-4.5594,-4.5594,-4.5594,-4.5594,-4.5594,-4.5594,-4.5594,-4.5594,-4.5594,-4.5594,-4.5586,-4.5586,-4.5568,-4.5568,-4.5594,-4.5513,-4.5362,-4.5342,-4.5263,-4.5159,-4.5007,-4.4962,-4.4931,-4.4938,-4.4782,-4.4578,-4.4511,-4.4388,-4.4318,-4.4279,-4.4166,-4.4151,-4.4064,-4.4067,-4.402,-4.4005,-4.3989,-4.3992,-4.3976,-4.3945,-4.3929,-4.3881,-4.3851,-4.3851,-4.3851,-4.3851,-4.3835,-4.3802,-4.3734,-4.3684,-4.3617,-4.3566,-4.3531,-4.3548,-4.3549,-4.3515,-4.3515,-4.3496,-4.3479,-4.3479,-4.3496,-4.3496,-4.3479,-4.3479,-4.3479,-4.3479,-4.3479,-4.6283,-4.689,-4.6155,-4.6283,-4.6987,-4.7057,-4.7057,-4.6987,-4.6194,-4.5865,-4.5838,-4.5858,-4.5793,-4.58,-4.58,-4.5773,-4.5786,-4.5783,-4.5788,-4.5773,-4.5743,-4.57,-4.5684,-4.5679,-4.5679,-4.566,-4.5643,-4.5646,-4.5673,-4.5657,-4.562,-4.5603,-4.5612,-4.5612,-4.5603,-4.5603,-4.5603,-4.5594,-4.5594,-4.5594,-4.5594,-4.5594,-4.5594,-4.5594,-4.5594,-4.5594,-4.5594,-4.5594,-4.5594,-4.5594,-4.5594,-4.5594,-4.5594,-4.5594,-4.5594,-4.5594,-4.5594,-4.5594,-4.5594,-4.5594,-4.5594,-4.5594,-4.5594,-4.5586,-4.5568,-4.5522,-4.5457,-4.541,-4.5312,-4.5243,-4.5211,-4.5063,-4.4915,-4.4856,-4.4831,-4.4739,-4.4688,-4.4585,-4.4452,-4.436,-4.4221,-4.4166,-4.4106,-4.4094,-4.4124,-4.3989,-4.3992,-4.3992,-4.3976,-4.3992,-4.3945,-4.3961,-4.3961,-4.3961,-4.3929,-4.3865,-4.3835,-4.3767,-4.3753,-4.3703,-4.3651,-4.3615,-4.3617,-4.3618,-4.3549,-4.3513,-4.3513,-4.3513,-4.3496,-4.3496,-4.3496,-4.3479,-4.3479,-4.3479,-4.3479,-4.5935,-4.6136,-4.5904,-4.5962,-4.6155,-4.6194,-4.6174,-4.6116,-4.5865,-4.5807,-4.5807,-4.5807,-4.5807,-4.5807,-4.5807,-4.5807,-4.58,-4.5812,-4.581,-4.5788,-4.5773,-4.5731,-4.5708,-4.57,-4.57,-4.5692,-4.5684,-4.5668,-4.5703,-4.5687,-4.5662,-4.5665,-4.5665,-4.5665,-4.5665,-4.5665,-4.5648,-4.5631,-4.5603,-4.5603,-4.5603,-4.5603,-4.5603,-4.5614,-4.5594,-4.5594,-4.5594,-4.5594,-4.5594,-4.5594,-4.5594,-4.5594,-4.5594,-4.5594,-4.5594,-4.5594,-4.5594,-4.5594,-4.5594,-4.5594,-4.5594,-4.5594,-4.5594,-4.5594,-4.5594,-4.5594,-4.5594,-4.5531,-4.5513,-4.5438,-4.541,-4.5302,-4.518,-4.5107,-4.5074,-4.503,-4.4954,-4.4825,-4.4682,-4.4572,-4.4457,-4.4388,-4.4318,-4.4289,-4.4308,-4.4109,-4.402,-4.4051,-4.402,-4.402,-4.4005,-4.4005,-4.3989,-4.3992,-4.3958,-4.391,-4.3897,-4.3867,-4.3851,-4.3802,-4.3769,-4.3736,-4.3736,-4.3703,-4.3652,-4.3617,-4.3565,-4.3565,-4.3583,-4.3532,-4.3515,-4.3496,-4.3479,-4.3496,-4.3479,-4.5807,-4.5807,-4.5807,-4.5807,-4.5807,-4.5807,-4.5807,-4.5807,-4.5807,-4.5807,-4.5807,-4.5807,-4.5807,-4.5807,-4.5807,-4.5807,-4.5807,-4.58,-4.5812,-4.5798,-4.581,-4.5776,-4.5754,-4.5739,-4.5746,-4.5739,-4.5723,-4.5708,-4.5723,-4.5708,-4.5684,-4.5687,-4.5687,-4.5687,-4.5687,-4.5687,-4.5679,-4.5662,-4.5646,-4.5627,-4.5637,-4.5648,-4.564,-4.5631,-4.5603,-4.5594,-4.5594,-4.5594,-4.5594,-4.5594,-4.5594,-4.5594,-4.5594,-4.5594,-4.5594,-4.5594,-4.5594,-4.5594,-4.5594,-4.5594,-4.5594,-4.5594,-4.5594,-4.5594,-4.5594,-4.5594,-4.5594,-4.5577,-4.5586,-4.5586,-4.5586,-4.5577,-4.5466,-4.5371,-4.5332,-4.5273,-4.515,-4.5041,-4.4908,-4.4812,-4.4726,-4.4676,-4.4606,-4.4585,-4.4533,-4.4457,-4.4379,-4.4336,-4.421,-4.4064,-4.4036,-4.4005,-4.4005,-4.3989,-4.3974,-4.3958,-4.3961,-4.3929,-4.3929,-4.3897,-4.3867,-4.3835,-4.3818,-4.3786,-4.3788,-4.3736,-4.3684,-4.3667,-4.3686,-4.3635,-4.3566,-4.3566,-4.3549,-4.3496,-4.3496,-4.5633,-4.5691,-4.578,-4.5807,-4.5807,-4.5807,-4.5807,-4.5807,-4.5807,-4.5807,-4.5807,-4.5807,-4.5807,-4.5807,-4.5807,-4.5807,-4.5807,-4.5807,-4.5807,-4.5807,-4.5819,-4.5786,-4.5798,-4.581,-4.5783,-4.5783,-4.5776,-4.5754,-4.5773,-4.5746,-4.5712,-4.5696,-4.5708,-4.5708,-4.5727,-4.5727,-4.5727,-4.5715,-4.5708,-4.5688,-4.5684,-4.5687,-4.5682,-4.5673,-4.5648,-4.5622,-4.5622,-4.5603,-4.5603,-4.5603,-4.5603,-4.5603,-4.5594,-4.5594,-4.5594,-4.5594,-4.5594,-4.5594,-4.5594,-4.5594,-4.5594,-4.5594,-4.5594,-4.5594,-4.5594,-4.5594,-4.5594,-4.5594,-4.5594,-4.5594,-4.5594,-4.5594,-4.5531,-4.5485,-4.5466,-4.5448,-4.5381,-4.5273,-4.5201,-4.5107,-4.5063,-4.4988,-4.4872,-4.4825,-4.4751,-4.477,-4.4707,-4.4604,-4.4498,-4.4265,-4.414,-4.4064,-4.402,-4.402,-4.3989,-4.3989,-4.3989,-4.3989,-4.3989,-4.3958,-4.3929,-4.3897,-4.3881,-4.3865,-4.3849,-4.3835,-4.3802,-4.3786,-4.3769,-4.3754,-4.3686,-4.3634,-4.3617,-4.3583,-4.3532,-4.4291,-4.4949,-4.5529,-4.5807,-4.5807,-4.5807,-4.5807,-4.5807,-4.5807,-4.5807,-4.5807,-4.5807,-4.5807,-4.5807,-4.5807,-4.5807,-4.5807,-4.5807,-4.5807,-4.5807,-4.5807,-4.5807,-4.5807,-4.5812,-4.5819,-4.58,-4.5786,-4.5791,-4.5798,-4.5791,-4.5776,-4.5773,-4.5773,-4.5773,-4.5773,-4.5773,-4.5761,-4.5757,-4.5757,-4.5734,-4.5696,-4.5688,-4.5692,-4.5695,-4.569,-4.5662,-4.5662,-4.5662,-4.5654,-4.5665,-4.5665,-4.5648,-4.5594,-4.5594,-4.5594,-4.5594,-4.5594,-4.5594,-4.5594,-4.5594,-4.5594,-4.5594,-4.5594,-4.5594,-4.5594,-4.5594,-4.5594,-4.5594,-4.5594,-4.5594,-4.5594,-4.5594,-4.5594,-4.5594,-4.5594,-4.5594,-4.5594,-4.5522,-4.5467,-4.5419,-4.5371,-4.5273,-4.5159,-4.5063,-4.4985,-4.4903,-4.4812,-4.4739,-4.4751,-4.4599,-4.4379,-4.425,-4.4064,-4.4033,-4.4048,-4.4064,-4.4094,-4.4033,-4.4002,-4.4005,-4.3974,-4.3976,-4.3945,-4.3958,-4.3942,-4.3913,-4.3865,-4.3883,-4.3867,-4.3853,-4.3804,-4.3753,-4.3736,-4.3719,-4.3635,-4.3924,-4.4098,-4.4485,-4.4929,-4.522,-4.5258,-4.5478,-4.5768,-4.5807,-4.5807,-4.5807,-4.5807,-4.5807,-4.5807,-4.5807,-4.5807,-4.5807,-4.5807,-4.5807,-4.5807,-4.5807,-4.5807,-4.5807,-4.5807,-4.58,-4.5807,-4.5807,-4.58,-4.5807,-4.58,-4.5805,-4.581,-4.581,-4.581,-4.581,-4.5817,-4.5805,-4.58,-4.5807,-4.5778,-4.5734,-4.5746,-4.5739,-4.5743,-4.5727,-4.57,-4.5692,-4.5684,-4.5676,-4.5687,-4.5687,-4.5682,-4.5657,-4.5648,-4.5648,-4.564,-4.5612,-4.5594,-4.5594,-4.5594,-4.5594,-4.5594,-4.5594,-4.5594,-4.5594,-4.5594,-4.5594,-4.5594,-4.5594,-4.5594,-4.5594,-4.5594,-4.5594,-4.5594,-4.5594,-4.5594,-4.5594,-4.5568,-4.5522,-4.5522,-4.5504,-4.5485,-4.539,-4.5381,-4.5312,-4.5302,-4.518,-4.503,-4.5019,-4.4985,-4.4714,-4.4538,-4.4416,-4.4346,-4.443,-4.4346,-4.4221,-4.4166,-4.4091,-4.4002,-4.3989,-4.3989,-4.4005,-4.3989,-4.3989,-4.3955,-4.3942,-4.3945,-4.3945,-4.3929,-4.3881,-4.3835,-4.3853,-4.3837,-4.3753,-4.3653,-4.3169,-4.3285,-4.373,-4.4381,-4.4439,-4.4891,-4.5529,-4.5633,-4.571,-4.5807,-4.5807,-4.5807,-4.5807,-4.5807,-4.5807,-4.5807,-4.5807,-4.5807,-4.5807,-4.5807,-4.5807,-4.5807,-4.5807,-4.5807,-4.5807,-4.5807,-4.5807,-4.5807,-4.5807,-4.5807,-4.5807,-4.5807,-4.58,-4.5807,-4.58,-4.5807,-4.5807,-4.5807,-4.5807,-4.5805,-4.5817,-4.5803,-4.5761,-4.5739,-4.5715,-4.5696,-4.5696,-4.5696,-4.5708,-4.5708,-4.5676,-4.5679,-4.5671,-4.5671,-4.5662,-4.5648,-4.564,-4.5622,-4.5614,-4.5614,-4.5594,-4.5594,-4.5594,-4.5594,-4.5594,-4.5594,-4.5594,-4.5594,-4.5594,-4.5594,-4.5594,-4.5594,-4.5594,-4.5594,-4.5594,-4.5594,-4.5594,-4.5594,-4.5594,-4.5586,-4.5605,-4.5605,-4.5605,-4.5586,-4.5594,-4.554,-4.5429,-4.5332,-4.5263,-4.5118,-4.5019,-4.4931,-4.4896,-4.4788,-4.4637,-4.4438,-4.4388,-4.4322,-4.4136,-4.402,-4.4005,-4.4005,-4.4005,-4.3989,-4.3989,-4.3989,-4.3992,-4.3989,-4.3989,-4.3942,-4.3913,-4.3897,-4.3881,-4.3867,-4.1816,-4.2299,-4.2995,-4.3401,-4.3556,-4.355,-4.404,-4.4755,-4.4833,-4.5162,-4.5543,-4.5768,-4.5807,-4.5807,-4.5807,-4.5807,-4.5807,-4.5807,-4.5807,-4.5807,-4.5807,-4.5807,-4.5807,-4.5807,-4.5807,-4.5807,-4.5807,-4.5807,-4.5807,-4.5807,-4.5807,-4.5807,-4.5807,-4.5807,-4.5807,-4.5807,-4.5807,-4.5807,-4.5807,-4.5807,-4.5807,-4.5812,-4.5812,-4.5798,-4.5795,-4.5803,-4.5783,-4.5769,-4.5781,-4.5785,-4.575,-4.5715,-4.57,-4.5711,-4.5711,-4.5703,-4.5671,-4.5673,-4.5665,-4.5648,-4.562,-4.5612,-4.5612,-4.5622,-4.5603,-4.5594,-4.5594,-4.5594,-4.5594,-4.5594,-4.5594,-4.5594,-4.5594,-4.5594,-4.5594,-4.5594,-4.5594,-4.5594,-4.5594,-4.5594,-4.5594,-4.5586,-4.5586,-4.5586,-4.5586,-4.5594,-4.5594,-4.5504,-4.5495,-4.5466,-4.5457,-4.541,-4.5342,-4.5118,-4.4884,-4.4849,-4.4714,-4.4637,-4.4498,-4.425,-4.4079,-4.4005,-4.4005,-4.4005,-4.4005,-4.4005,-4.4005,-4.4005,-4.4005,-4.3989,-4.3989,-4.3974,-4.3974,-4.3942,-4.3929]},{"header":{"parameterUnit":"m.s-1","parameterCategory":1,"la1":31.0,"la2":29.5877,"lo1":-88.7671,"lo2":-86.6584,"dy":0.0162,"dx":0.0185,"nx":115,"ny":88,"refTime":"2024-07-16T06:00:00:Z","depth":0,"parameterNumber":3,"parameterNumberName":"V-component_of_WINDS"},"data":[0.0,0.0,0.0,0.0,0.0,0.0,0.0,0.0,0.0,0.0,0.0,0.0,0.0,0.0,0.0,0.0,0.0,0.0,0.0,0.0,0.0,0.0,0.0,0.0,0.0,0.0,0.0,0.0,0.0,0.0,0.0,0.0,0.0,0.0,0.0,0.0,0.0,0.0,0.0,0.0,0.0,0.0,0.0,0.0,0.0,0.0,0.0,0.0,0.0,0.0,0.0,0.0,0.0,0.0,0.0,0.0,0.0,0.0,0.0,0.0,0.0,0.0,0.0,0.0,0.0,0.0,0.0,0.0,0.0,0.0,0.0,0.0,0.0,0.0,0.0,0.0,0.0,0.0,0.0,0.0,0.0,0.0,0.0,0.0,0.0,0.0,0.0,0.0,0.0,0.0,0.0,0.0,0.0,0.0,0.0,0.0,0.0,0.0,0.0,0.0,0.0,0.0,0.0,0.0,0.0,0.0,0.0,0.0,0.0,0.0,0.0,0.0,0.0,0.0,0.0,0.0,0.0,0.0,0.0,0.0,0.0,0.0,0.0,0.0,0.0,0.0,0.0,0.0,0.0,0.0,0.0,0.0,0.0,0.0,0.0,0.0,0.0,0.0,0.0,0.0,0.0,0.0,0.0,0.0,0.0,0.0,0.0,0.0,0.0,0.0,0.0,0.0,0.0,0.0,0.0,0.0,0.0,0.0,0.0,0.0,0.0,0.0,0.0,0.0,0.0,0.0,0.0,0.0,0.0,0.0,0.0,0.0,0.0,0.0,0.0,0.0,0.0,0.0,0.0,0.0,0.0,0.0,0.0,0.0,0.0,0.0,0.0,0.0,0.0,0.0,0.0,0.0,0.0,0.0,0.0,0.0,0.0,0.0,0.0,0.0,0.0,0.0,0.0,0.0,0.0,0.0,0.0,0.0,0.0,0.0,0.0,0.0,0.0,0.0,0.0,0.0,0.0,0.0,0.0,0.0,0.0,0.0,0.0,0.0,0.0,0.0,0.0,0.0,0.0,0.0,0.0,0.0,0.0,0.0,0.0,0.0,0.0,0.0,0.0,0.0,0.0,0.0,0.0,0.0,0.0,0.0,0.0,0.0,0.0,0.0,0.0,0.0,0.0,0.0,0.0,0.0,0.0,0.0,0.0,0.0,0.0,0.0,0.0,0.0,0.0,0.0,0.0,0.0,0.0,0.0,0.0,0.0,0.0,0.0,0.0,0.0,0.0,0.0,0.0,0.0,0.0,0.0,0.0,0.0,0.0,0.0,0.0,0.0,0.0,0.0,0.0,0.0,0.0,0.0,0.0,0.0,0.0,0.0,0.0,0.0,0.0,0.0,0.0,0.0,0.0,0.0,0.0,0.0,0.0,0.0,0.0,0.0,0.0,0.0,0.0,0.0,0.0,0.0,0.0,0.0,0.0,0.0,0.0,0.0,0.0,0.0,0.0,0.0,0.0,0.0,0.0,0.0,0.0,0.0,0.0,0.0,0.0,0.0,0.0,0.0,0.0,0.0,0.0,0.0,0.0,0.0,0.0,0.0,0.0,0.0,0.0,0.0,0.0,0.0,0.0,0.0,0.0,0.0,0.0,0.0,0.0,0.0,0.0,0.0,0.0,0.0,0.0,0.0,0.0,0.0,0.0,0.0,0.0,0.0,0.0,0.0,0.0,0.0,0.0,0.0,0.0,0.0,0.0,0.0,0.0,0.0,0.0,0.0,0.0,0.0,0.0,0.0,0.0,0.0,0.0,0.0,0.0,0.0,0.0,0.0,0.0,0.0,0.0,0.0,0.0,0.0,0.0,0.0,0.0,0.0,0.0,0.0,0.0,0.0,0.0,0.0,0.0,0.0,0.0,0.0,0.0,0.0,0.0,0.0,0.0,0.0,0.0,0.0,0.0,0.0,0.0,0.0,0.0,0.0,0.0,0.0,0.0,0.0,0.0,0.0,0.0,0.0,0.0,0.0,0.0,0.0,0.0,0.0,0.0,0.0,0.0,0.0,0.0,0.0,0.0,0.0,0.0,0.0,0.0,0.0,0.0,0.0,0.0,0.0,0.0,0.0,0.0,0.0,0.0,0.0,0.0,0.0,0.0,0.0,0.0,0.0,0.0,0.0,0.0,0.0,0.0,0.0,0.0,0.0,0.0,0.0,0.0,0.0,0.0,0.0,0.0,0.0,0.0,0.0,0.0,0.0,0.0,0.0,0.0,0.0,0.0,0.0,0.0,0.0,0.0,0.0,0.0,0.0,0.0,0.0,0.0,0.0,0.0,0.0,0.0,0.0,0.0,0.0,0.0,0.0,0.0,0.0,0.0,0.0,0.0,0.0,0.0,0.0,0.0,0.0,0.0,0.0,0.0,0.0,0.0,0.0,0.0,0.0,0.0,0.0,0.0,0.0,0.0,0.0,0.0,0.0,0.0,0.0,0.0,0.0,0.0,0.0,0.0,0.0,0.0,0.0,0.0,0.0,0.0,0.0,0.0,0.0,0.0,0.0,0.0,0.0,0.0,0.0,0.0,0.0,0.0,0.0,0.0,0.0,0.0,0.0,0.0,0.0,0.0,0.0,0.0,0.0,0.0,0.0,0.0,0.0,0.0,0.0,0.0,0.0,0.0,0.0,0.0,0.0,0.0,0.0,0.0,0.0,0.0,0.0,0.0,0.0,0.0,0.0,0.0,0.0,0.0,0.0,0.0,0.0,0.0,0.0,0.0,0.0,0.0,0.0,0.0,0.0,0.0,0.0,0.0,0.0,0.0,0.0,0.0,0.0,0.0,0.0,0.0,0.0,0.0,0.0,0.0,0.0,0.0,0.0,0.0,0.0,0.0,0.0,0.0,0.0,0.0,0.0,0.0,0.0,0.0,0.0,0.0,0.0,0.0,0.0,0.0,0.0,0.0,0.0,0.0,0.0,0.0,0.0,0.0,0.0,0.0,0.0,0.0,0.0,0.0,0.0,0.0,0.0,0.0,0.0,0.0,0.0,0.0,0.0,0.0,0.0,0.0,0.0,0.0,0.0,0.0,0.0,0.0,0.0,0.0,0.0,0.0,0.0,0.0,0.0,0.0,0.0,0.0,0.0,0.0,0.0,0.0,0.0,0.0,0.0,0.0,0.0,0.0,0.0,0.0,0.0,0.0,0.0,0.0,0.0,0.0,0.0,0.0,0.0,0.0,0.0,0.0,0.0,0.0,0.0,0.0,0.0,0.0,0.0,0.0,0.0,0.0,0.0,0.0,0.0,0.0,0.0,0.0,0.0,0.0,0.0,0.0,0.0,0.0,0.0,0.0,0.0,0.0,0.0,0.0,0.0,0.0,0.0,0.0,0.0,0.0,0.0,0.0,0.0,0.0,0.0,0.0,0.0,0.0,0.0,0.0,0.0,0.0,0.0,0.0,0.0,0.0,0.0,0.0,0.0,0.0,0.0,0.0,0.0,0.0,0.0,0.0,0.0,0.0,0.0,0.0,0.0,0.0,0.0,0.0,0.0,0.0,0.0,0.0,0.0,0.0,0.0,0.0,0.0,0.0,0.0,0.0,0.0,0.0,0.0,0.0,0.0,0.0,0.0,0.0,0.0,0.0,0.0,0.0,0.0,0.0,0.0,0.0,0.0,0.0,0.0,0.0,0.0,0.0,0.0,0.0,0.0,0.0,0.0,0.0,0.0,0.0,0.0,0.0,0.0,0.0,0.0,0.0,0.0,0.0,0.0,0.0,0.0,0.0,0.0,0.0,0.0,0.0,0.0,0.0,0.0,0.0,0.0,0.0,0.0,0.0,0.0,0.0,0.0,0.0,0.0,0.0,0.0,0.0,0.0,0.0,0.0,0.0,0.0,0.0,0.0,0.0,0.0,0.0,0.0,0.0,0.0,0.0,0.0,0.0,0.0,0.0,0.0,0.0,0.0,0.0,0.0,0.0,0.0,0.0,0.0,0.0,0.0,0.0,0.0,0.0,0.0,0.0,0.0,0.0,0.0,0.0,0.0,0.0,0.0,0.0,0.0,0.0,0.0,0.0,0.0,0.0,0.0,0.0,0.0,0.0,0.0,0.0,0.0,0.0,0.0,0.0,0.0,0.0,0.0,0.0,0.0,0.0,0.0,0.0,0.0,0.0,0.0,0.0,0.0,0.0,0.0,0.0,0.0,0.0,0.0,0.0,0.0,0.0,0.0,0.0,0.0,0.0,0.0,0.0,0.0,0.0,0.0,0.0,0.0,0.0,0.0,0.0,0.0,0.0,0.0,0.0,0.0,0.0,0.0,0.0,0.0,0.0,0.0,-0.7832,0.0,0.0,0.0,0.0,0.0,0.0,0.0,0.0,0.0,0.0,0.0,0.0,0.0,0.0,0.0,0.0,0.0,0.0,0.0,0.0,0.0,0.0,0.0,0.0,0.0,0.0,0.0,0.0,0.0,0.0,0.0,0.0,0.0,0.0,0.0,0.0,0.0,0.0,0.0,0.0,0.0,0.0,0.0,0.0,0.0,0.0,0.0,0.0,0.0,0.0,0.0,0.0,0.0,0.0,0.0,0.0,0.0,0.0,0.0,0.0,0.0,0.0,0.0,0.0,0.0,0.0,0.0,0.0,0.0,0.0,0.0,0.0,0.0,0.0,0.0,0.0,0.0,0.0,0.0,0.0,0.0,0.0,0.0,0.0,0.0,0.0,0.0,0.0,0.0,0.0,0.0,0.0,0.0,0.0,0.0,0.0,0.0,0.0,0.0,0.0,0.0,0.0,0.0,0.0,0.0,0.0,0.0,0.0,0.0,0.0,-0.8651,-0.8791,-0.8212,-0.7905,-0.7892,0.0,0.0,0.0,0.0,0.0,0.0,0.0,0.0,0.0,0.0,0.0,0.0,0.0,0.0,0.0,0.0,0.0,0.0,0.0,0.0,0.0,0.0,0.0,0.0,0.0,0.0,0.0,0.0,0.0,0.0,0.0,0.0,0.0,0.0,0.0,0.0,0.0,0.0,0.0,0.0,0.0,0.0,0.0,0.0,0.0,0.0,0.0,0.0,0.0,0.0,0.0,0.0,0.0,0.0,0.0,0.0,0.0,0.0,0.0,0.0,0.0,0.0,0.0,0.0,0.0,0.0,0.0,0.0,0.0,0.0,0.0,0.0,0.0,0.0,0.0,0.0,0.0,0.0,0.0,0.0,0.0,0.0,0.0,0.0,0.0,0.0,0.0,0.0,0.0,0.0,0.0,0.0,0.0,0.0,0.0,0.0,0.0,0.0,0.0,0.0,0.0,0.0,0.0,0.0,0.0,0.0,0.0,0.0,0.0,0.0,0.0,0.0,-0.8438,-0.8139,-0.7999,0.0,0.0,0.0,0.0,0.0,0.0,0.0,0.0,0.0,0.0,0.0,0.0,0.0,0.0,0.0,0.0,0.0,0.0,0.0,0.0,0.0,0.0,0.0,0.0,0.0,0.0,0.0,0.0,0.0,0.0,0.0,0.0,0.0,0.0,0.0,0.0,0.0,0.0,0.0,0.0,0.0,0.0,0.0,0.0,0.0,0.0,0.0,0.0,0.0,0.0,0.0,0.0,0.0,0.0,0.0,0.0,0.0,0.0,0.0,0.0,0.0,0.0,0.0,0.0,0.0,0.0,0.0,0.0,0.0,0.0,0.0,0.0,0.0,0.0,0.0,0.0,0.0,0.0,0.0,0.0,0.0,0.0,0.0,0.0,0.0,0.0,0.0,0.0,0.0,0.0,0.0,0.0,0.0,0.0,0.0,0.0,0.0,0.0,0.0,0.0,0.0,0.0,0.0,0.0,0.0,0.0,0.0,0.0,0.0,0.0,-0.8637,-0.9158,-0.9111,0.0,-0.8402,0.0,0.0,0.0,0.0,0.0,0.0,0.0,0.0,0.0,0.0,0.0,0.0,0.0,0.0,0.0,0.0,0.0,0.0,0.0,0.0,0.0,0.0,0.0,0.0,0.0,0.0,0.0,0.0,0.0,0.0,0.0,0.0,0.0,0.0,0.0,0.0,0.0,0.0,0.0,0.0,0.0,0.0,0.0,0.0,0.0,0.0,0.0,0.0,0.0,0.0,0.0,0.0,0.0,0.0,0.0,0.0,0.0,0.0,0.0,0.0,0.0,0.0,0.0,0.0,0.0,0.0,0.0,0.0,0.0,0.0,0.0,0.0,0.0,0.0,0.0,0.0,0.0,0.0,0.0,0.0,0.0,0.0,0.0,0.0,0.0,0.0,0.0,0.0,0.0,0.0,0.0,0.0,0.0,0.0,0.0,0.0,0.0,0.0,0.0,0.0,0.0,0.0,0.0,0.0,0.0,0.0,0.0,0.0,0.0,0.0,0.0,-0.9176,-0.9051,-0.8771,0.0,0.0,0.0,0.0,0.0,0.0,0.0,0.0,0.0,0.0,0.0,0.0,0.0,0.0,0.0,0.0,0.0,0.0,0.0,0.0,0.0,0.0,0.0,0.0,0.0,0.0,0.0,0.0,0.0,0.0,0.0,0.0,0.0,0.0,0.0,0.0,0.0,0.0,0.0,0.0,0.0,0.0,0.0,0.0,0.0,0.0,0.0,0.0,0.0,0.0,0.0,0.0,0.0,0.0,0.0,0.0,0.0,0.0,0.0,0.0,0.0,0.0,0.0,0.0,0.0,0.0,0.0,0.0,0.0,0.0,0.0,0.0,0.0,0.0,0.0,0.0,0.0,0.0,0.0,0.0,0.0,0.0,0.0,0.0,0.0,0.0,0.0,0.0,0.0,0.0,0.0,0.0,0.0,0.0,0.0,0.0,0.0,0.0,0.0,0.0,0.0,0.0,0.0,0.0,0.0,0.0,0.0,0.0,0.0,0.0,-0.8671,0.0,-0.9411,-0.9171,-0.8838,-0.8409,0.0,0.0,0.0,0.0,0.0,0.0,0.0,0.0,0.0,0.0,0.0,0.0,0.0,0.0,0.0,0.0,0.0,0.0,0.0,0.0,0.0,0.0,0.0,0.0,0.0,0.0,0.0,0.0,0.0,0.0,0.0,0.0,0.0,0.0,0.0,0.0,0.0,0.0,0.0,0.0,0.0,0.0,0.0,0.0,0.0,0.0,0.0,0.0,0.0,0.0,0.0,0.0,0.0,0.0,0.0,0.0,0.0,0.0,0.0,0.0,0.0,0.0,0.0,0.0,0.0,0.0,0.0,0.0,0.0,0.0,0.0,0.0,0.0,0.0,0.0,0.0,0.0,0.0,0.0,0.0,0.0,0.0,0.0,0.0,0.0,0.0,0.0,0.0,0.0,0.0,0.0,0.0,0.0,0.0,0.0,0.0,0.0,0.0,0.0,0.0,0.0,0.0,0.0,0.0,0.0,0.0,0.0,0.0,0.0,-0.9065,-0.9218,-1.001,-0.9793,-0.9245,0.0,0.0,0.0,0.0,0.0,0.0,0.0,0.0,0.0,0.0,0.0,0.0,0.0,0.0,0.0,0.0,0.0,0.0,0.0,0.0,0.0,0.0,0.0,0.0,0.0,0.0,0.0,0.0,0.0,0.0,0.0,0.0,0.0,0.0,0.0,0.0,0.0,0.0,0.0,0.0,0.0,0.0,0.0,0.0,0.0,0.0,0.0,0.0,0.0,0.0,0.0,0.0,0.0,0.0,0.0,0.0,0.0,0.0,0.0,0.0,0.0,0.0,0.0,0.0,0.0,0.0,0.0,0.0,0.0,0.0,0.0,0.0,0.0,0.0,0.0,0.0,0.0,0.0,0.0,0.0,0.0,0.0,0.0,0.0,0.0,0.0,0.0,0.0,0.0,0.0,0.0,0.0,0.0,0.0,0.0,0.0,0.0,0.0,0.0,0.0,0.0,0.0,0.0,0.0,0.0,0.0,0.0,0.0,0.0,-0.7963,-0.8485,-0.9499,0.0,-0.9773,-0.9058,0.0,0.0,0.0,0.0,0.0,0.0,0.0,0.0,0.0,0.0,0.0,0.0,0.0,0.0,0.0,0.0,0.0,0.0,0.0,0.0,0.0,0.0,0.0,0.0,0.0,0.0,0.0,0.0,0.0,0.0,0.0,0.0,0.0,0.0,0.0,0.0,0.0,0.0,0.0,0.0,0.0,0.0,0.0,0.0,0.0,0.0,0.0,0.0,0.0,0.0,0.0,0.0,0.0,0.0,0.0,0.0,0.0,0.0,0.0,0.0,0.0,0.0,0.0,0.0,0.0,0.0,0.0,0.0,0.0,0.0,0.0,0.0,0.0,0.0,0.0,0.0,0.0,0.0,0.0,0.0,0.0,0.0,0.0,0.0,0.0,0.0,0.0,0.0,0.0,0.0,0.0,0.0,0.0,0.0,0.0,0.0,0.0,0.0,0.0,0.0,0.0,0.0,0.0,0.0,0.0,0.0,0.0,0.0,0.0,-0.7889,0.0,-1.0,0.0,-0.9766,-0.8958,0.0,0.0,0.0,0.0,0.0,0.0,0.0,0.0,0.0,0.0,0.0,0.0,0.0,0.0,0.0,0.0,0.0,0.0,0.0,0.0,0.0,0.0,0.0,0.0,0.0,0.0,0.0,0.0,0.0,0.0,0.0,0.0,0.0,0.0,0.0,0.0,0.0,0.0,0.0,0.0,0.0,0.0,0.0,0.0,0.0,0.0,0.0,0.0,0.0,0.0,0.0,0.0,0.0,0.0,0.0,0.0,0.0,0.0,0.0,0.0,0.0,0.0,0.0,0.0,0.0,0.0,0.0,0.0,0.0,0.0,0.0,0.0,0.0,0.0,0.0,0.0,0.0,0.0,0.0,0.0,0.0,0.0,0.0,0.0,0.0,0.0,0.0,0.0,0.0,0.0,0.0,0.0,0.0,0.0,0.0,0.0,0.0,0.0,0.0,0.0,0.0,0.0,0.0,0.0,0.0,0.0,0.0,0.0,-0.7879,-0.9586,-1.0468,-1.0661,-1.0167,-0.9833,-0.9005,0.0,0.0,0.0,0.0,0.0,0.0,0.0,0.0,0.0,0.0,0.0,0.0,0.0,0.0,0.0,0.0,0.0,0.0,0.0,0.0,0.0,0.0,0.0,0.0,0.0,0.0,0.0,0.0,0.0,0.0,0.0,0.0,0.0,0.0,0.0,0.0,0.0,0.0,0.0,0.0,0.0,0.0,0.0,0.0,0.0,0.0,0.0,0.0,0.0,0.0,0.0,0.0,0.0,0.0,0.0,0.0,0.0,0.0,0.0,0.0,0.0,0.0,0.0,0.0,0.0,0.0,0.0,0.0,0.0,0.0,0.0,0.0,0.0,0.0,0.0,0.0,0.0,0.0,0.0,0.0,0.0,0.0,0.0,0.0,0.0,0.0,0.0,0.0,0.0,0.0,0.0,0.0,0.0,0.0,0.0,0.0,0.0,0.0,0.0,0.0,0.0,0.0,0.0,0.0,0.0,0.0,0.0,0.0,0.0,-0.9344,-1.0003,-1.0695,-1.1243,-0.9866,-0.9058,0.0,0.0,0.0,0.0,0.0,0.0,0.0,0.0,0.0,0.0,0.0,0.0,0.0,0.0,0.0,0.0,0.0,0.0,0.0,0.0,0.0,0.0,0.0,0.0,0.0,0.0,0.0,0.0,0.0,0.0,0.0,0.0,0.0,0.0,0.0,0.0,0.0,0.0,0.0,0.0,0.0,0.0,0.0,0.0,0.0,0.0,0.0,0.0,0.0,0.0,0.0,0.0,0.0,0.0,0.0,0.0,0.0,0.0,0.0,0.0,0.0,0.0,0.0,0.0,0.0,0.0,0.0,0.0,0.0,0.0,0.0,0.0,0.0,0.0,0.0,0.0,0.0,0.0,0.0,0.0,0.0,0.0,0.0,0.0,0.0,0.0,0.0,0.0,0.0,0.0,0.0,0.0,0.0,0.0,0.0,0.0,0.0,0.0,0.0,0.0,0.0,0.0,0.0,0.0,0.0,0.0,0.0,0.0,0.0,-1.0247,-1.0909,-1.1456,-1.1893,-1.0432,-0.9479,-0.9199,0.0,0.0,0.0,0.0,0.0,0.0,0.0,0.0,0.0,0.0,0.0,0.0,0.0,0.0,0.0,0.0,0.0,0.0,0.0,0.0,0.0,0.0,0.0,0.0,0.0,0.0,0.0,0.0,0.0,0.0,0.0,0.0,0.0,0.0,0.0,0.0,0.0,0.0,0.0,0.0,0.0,0.0,0.0,0.0,0.0,0.0,0.0,0.0,0.0,0.0,0.0,0.0,0.0,0.0,0.0,0.0,0.0,0.0,0.0,0.0,0.0,0.0,0.0,0.0,0.0,0.0,0.0,0.0,0.0,0.0,0.0,0.0,0.0,0.0,0.0,0.0,0.0,0.0,0.0,0.0,0.0,0.0,0.0,0.0,0.0,0.0,0.0,0.0,0.0,0.0,0.0,0.0,0.0,0.0,0.0,0.0,0.0,0.0,0.0,0.0,0.0,0.0,0.0,0.0,0.0,0.0,0.0,0.0,-1.1973,-1.2852,-1.2913,-1.2107,-1.1424,-1.0247,0.0,0.0,0.0,0.0,0.0,0.0,0.0,0.0,0.0,0.0,0.0,0.0,0.0,0.0,0.0,0.0,0.0,0.0,0.0,0.0,0.0,0.0,0.0,0.0,0.0,0.0,0.0,0.0,0.0,0.0,0.0,0.0,0.0,0.0,0.0,0.0,0.0,0.0,0.0,0.0,0.0,0.0,0.0,0.0,0.0,0.0,0.0,0.0,0.0,0.0,0.0,0.0,0.0,0.0,0.0,0.0,0.0,0.0,0.0,0.0,0.0,0.0,0.0,0.0,0.0,0.0,0.0,0.0,0.0,0.0,0.0,0.0,0.0,0.0,0.0,0.0,0.0,0.0,0.0,0.0,0.0,0.0,0.0,0.0,0.0,0.0,0.0,0.0,0.0,0.0,0.0,0.0,0.0,0.0,0.0,0.0,0.0,0.0,0.0,0.0,0.0,0.0,0.0,0.0,0.0,0.0,0.0,0.0,0.0,-1.2846,-1.4148,-1.4509,-1.3821,-1.2449,-1.1156,0.0,0.0,0.0,0.0,0.0,0.0,0.0,0.0,0.0,0.0,0.0,0.0,0.0,0.0,0.0,0.0,0.0,0.0,0.0,0.0,0.0,0.0,0.0,0.0,0.0,0.0,0.0,0.0,0.0,0.0,0.0,0.0,0.0,0.0,0.0,0.0,0.0,0.0,0.0,0.0,0.0,0.0,0.0,0.0,0.0,0.0,0.0,0.0,0.0,0.0,0.0,0.0,0.0,0.0,0.0,0.0,0.0,0.0,0.0,0.0,0.0,0.0,0.0,0.0,0.0,0.0,0.0,0.0,0.0,0.0,0.0,0.0,0.0,0.0,0.0,0.0,0.0,0.0,0.0,0.0,0.0,0.0,0.0,0.0,0.0,0.0,0.0,0.0,0.0,0.0,0.0,0.0,0.0,0.0,0.0,0.0,0.0,0.0,0.0,0.0,0.0,0.0,0.0,0.0,0.0,0.0,0.0,0.0,-1.2204,-1.3561,-1.513,-1.5732,-1.5271,-1.3661,-1.2127,0.0,0.0,0.0,0.0,0.0,0.0,0.0,0.0,0.0,0.0,0.0,0.0,0.0,0.0,0.0,0.0,0.0,0.0,0.0,0.0,0.0,0.0,0.0,0.0,0.0,0.0,0.0,0.0,0.0,0.0,0.0,0.0,0.0,0.0,0.0,0.0,0.0,0.0,0.0,0.0,0.0,0.0,0.0,0.0,0.0,0.0,0.0,0.0,0.0,0.0,0.0,0.0,0.0,0.0,0.0,0.0,0.0,0.0,0.0,0.0,0.0,0.0,0.0,0.0,0.0,0.0,0.0,0.0,0.0,0.0,0.0,0.0,0.0,0.0,0.0,0.0,0.0,0.0,0.0,0.0,0.0,0.0,0.0,0.0,0.0,0.0,0.0,0.0,0.0,0.0,0.0,0.0,0.0,0.0,0.0,0.0,0.0,0.0,0.0,0.0,0.0,0.0,0.0,0.0,0.0,0.0,0.0,0.0,-1.2913,-1.4211,-1.5832,-1.658,-1.6342,-1.4897,-1.3072,0.0,0.0,0.0,0.0,0.0,0.0,0.0,0.0,0.0,0.0,0.0,0.0,0.0,0.0,0.0,0.0,0.0,0.0,0.0,0.0,0.0,0.0,0.0,0.0,0.0,0.0,0.0,0.0,0.0,0.0,0.0,0.0,0.0,0.0,0.0,0.0,0.0,0.0,0.0,0.0,0.0,0.0,0.0,0.0,0.0,0.0,0.0,0.0,0.0,0.0,0.0,0.0,0.0,0.0,0.0,0.0,0.0,0.0,0.0,0.0,0.0,0.0,0.0,0.0,0.0,0.0,0.0,0.0,0.0,0.0,0.0,0.0,0.0,0.0,0.0,0.0,0.0,0.0,0.0,0.0,0.0,0.0,0.0,0.0,0.0,0.0,0.0,0.0,0.0,0.0,0.0,0.0,0.0,0.0,0.0,0.0,0.0,0.0,0.0,0.0,0.0,0.0,0.0,0.0,0.0,0.0,0.0,0.0,-1.3106,-1.4794,-1.6046,-1.6673,-1.6607,-1.5197,-1.3427,0.0,0.0,0.0,0.0,0.0,0.0,0.0,0.0,0.0,0.0,0.0,0.0,0.0,0.0,0.0,0.0,0.0,0.0,0.0,0.0,0.0,0.0,0.0,0.0,0.0,0.0,0.0,0.0,0.0,0.0,0.0,0.0,0.0,0.0,0.0,0.0,0.0,0.0,0.0,0.0,0.0,0.0,0.0,0.0,0.0,0.0,0.0,0.0,-1.2349,0.0,0.0,0.0,0.0,0.0,0.0,0.0,0.0,0.0,0.0,0.0,0.0,0.0,0.0,0.0,0.0,0.0,0.0,0.0,0.0,0.0,0.0,0.0,0.0,0.0,0.0,0.0,0.0,0.0,0.0,0.0,0.0,0.0,0.0,0.0,0.0,0.0,0.0,0.0,0.0,0.0,0.0,0.0,0.0,0.0,0.0,0.0,0.0,0.0,0.0,0.0,0.0,0.0,0.0,0.0,0.0,0.0,0.0,0.0,-1.33,-1.5304,-1.6239,-1.6707,-1.666,-1.5551,-1.3955,0.0,0.0,0.0,0.0,0.0,0.0,0.0,0.0,0.0,0.0,0.0,0.0,0.0,0.0,0.0,0.0,0.0,0.0,0.0,0.0,0.0,0.0,0.0,0.0,0.0,0.0,0.0,0.0,0.0,0.0,0.0,0.0,0.0,0.0,0.0,0.0,0.0,0.0,0.0,0.0,0.0,0.0,0.0,0.0,0.0,0.0,0.0,0.0,0.0,0.0,0.0,0.0,0.0,0.0,0.0,0.0,0.0,0.0,0.0,0.0,0.0,0.0,0.0,0.0,0.0,0.0,0.0,0.0,0.0,0.0,0.0,0.0,0.0,0.0,0.0,0.0,0.0,0.0,0.0,0.0,0.0,0.0,0.0,0.0,0.0,0.0,0.0,0.0,0.0,0.0,0.0,0.0,0.0,0.0,0.0,0.0,0.0,0.0,0.0,0.0,0.0,0.0,0.0,0.0,0.0,0.0,0.0,-1.1888,-1.3494,-1.5858,-1.6493,-1.6754,-1.6693,-1.5858,-1.4402,-1.2318,0.0,0.0,0.0,0.0,0.0,0.0,0.0,0.0,0.0,0.0,0.0,0.0,0.0,0.0,0.0,0.0,0.0,0.0,0.0,0.0,0.0,0.0,0.0,0.0,0.0,0.0,0.0,0.0,0.0,0.0,0.0,0.0,0.0,0.0,0.0,0.0,0.0,0.0,-1.0766,-1.2006,0.0,0.0,0.0,0.0,0.0,0.0,0.0,0.0,-1.3626,0.0,0.0,0.0,0.0,0.0,0.0,0.0,0.0,0.0,0.0,0.0,0.0,0.0,0.0,0.0,0.0,0.0,0.0,0.0,0.0,0.0,0.0,0.0,0.0,0.0,0.0,0.0,0.0,0.0,0.0,0.0,0.0,0.0,0.0,0.0,0.0,0.0,0.0,0.0,0.0,0.0,0.0,0.0,0.0,0.0,0.0,0.0,0.0,0.0,0.0,0.0,0.0,0.0,0.0,0.0,0.0,-1.2493,-1.2375,-1.3687,-1.648,-1.6901,-1.7012,-1.6693,-1.5852,-1.4309,-1.2087,0.0,0.0,0.0,0.0,0.0,0.0,0.0,0.0,0.0,0.0,0.0,0.0,0.0,0.0,0.0,0.0,0.0,0.0,0.0,0.0,0.0,0.0,0.0,0.0,0.0,0.0,0.0,0.0,0.0,0.0,0.0,0.0,0.0,0.0,0.0,0.0,0.0,0.0,0.0,-1.3396,-1.3864,0.0,0.0,0.0,0.0,0.0,0.0,0.0,0.0,-1.439,0.0,0.0,0.0,0.0,0.0,0.0,0.0,0.0,0.0,0.0,0.0,0.0,0.0,0.0,0.0,0.0,0.0,0.0,0.0,0.0,0.0,0.0,0.0,0.0,0.0,0.0,0.0,0.0,0.0,0.0,0.0,0.0,0.0,0.0,0.0,0.0,0.0,0.0,0.0,0.0,0.0,0.0,0.0,0.0,0.0,0.0,0.0,0.0,0.0,0.0,0.0,0.0,0.0,0.0,0.0,-1.2094,-1.2576,-1.4055,-1.6593,-1.67,-1.67,-1.6673,-1.5264,-1.3547,0.0,0.0,0.0,0.0,0.0,0.0,0.0,0.0,0.0,0.0,0.0,0.0,0.0,0.0,0.0,0.0,0.0,0.0,0.0,0.0,0.0,0.0,0.0,0.0,0.0,0.0,0.0,0.0,0.0,0.0,0.0,0.0,0.0,0.0,0.0,0.0,0.0,0.0,0.0,0.0,-1.4042,-1.4462,-1.517,0.0,0.0,0.0,0.0,0.0,0.0,-1.4986,-1.5014,0.0,0.0,0.0,0.0,0.0,0.0,0.0,0.0,0.0,0.0,0.0,0.0,0.0,0.0,0.0,0.0,0.0,0.0,0.0,0.0,0.0,0.0,0.0,0.0,0.0,0.0,0.0,0.0,0.0,0.0,0.0,0.0,0.0,0.0,0.0,0.0,0.0,0.0,0.0,0.0,0.0,0.0,0.0,0.0,0.0,0.0,0.0,0.0,0.0,0.0,0.0,0.0,0.0,0.0,0.0,-1.156,-1.2703,-1.4376,-1.6493,-1.6453,-1.644,-1.658,-1.4689,-1.2907,0.0,0.0,0.0,0.0,0.0,0.0,0.0,0.0,0.0,0.0,0.0,0.0,0.0,0.0,0.0,0.0,0.0,0.0,0.0,0.0,0.0,0.0,0.0,0.0,0.0,0.0,0.0,0.0,0.0,0.0,0.0,0.0,0.0,0.0,0.0,0.0,0.0,0.0,0.0,0.0,0.0,-1.5035,-1.5807,-1.5558,0.0,0.0,0.0,0.0,-1.5408,-1.5898,0.0,0.0,0.0,0.0,0.0,0.0,0.0,0.0,0.0,0.0,0.0,0.0,0.0,0.0,0.0,0.0,0.0,0.0,0.0,0.0,0.0,0.0,0.0,0.0,0.0,0.0,0.0,0.0,0.0,0.0,0.0,0.0,0.0,0.0,0.0,0.0,0.0,0.0,0.0,0.0,0.0,0.0,0.0,0.0,0.0,0.0,0.0,0.0,0.0,0.0,0.0,0.0,0.0,0.0,0.0,0.0,-1.156,-1.2898,-1.4482,-1.6219,-1.654,-1.6553,-1.6355,-1.4583,-1.2907,0.0,0.0,0.0,0.0,0.0,0.0,0.0,0.0,0.0,0.0,0.0,0.0,0.0,0.0,0.0,0.0,0.0,0.0,0.0,0.0,0.0,0.0,0.0,0.0,0.0,0.0,0.0,0.0,0.0,0.0,0.0,0.0,0.0,0.0,0.0,0.0,0.0,0.0,0.0,0.0,0.0,-1.5748,-1.5744,-1.578,-1.5928,0.0,0.0,0.0,-1.7625,-1.8343,0.0,0.0,0.0,0.0,0.0,0.0,0.0,0.0,0.0,0.0,0.0,0.0,0.0,0.0,0.0,0.0,0.0,0.0,0.0,0.0,0.0,0.0,0.0,0.0,0.0,0.0,0.0,0.0,0.0,0.0,0.0,0.0,0.0,0.0,0.0,0.0,0.0,0.0,0.0,0.0,0.0,0.0,0.0,0.0,0.0,0.0,0.0,0.0,0.0,0.0,0.0,0.0,0.0,0.0,0.0,-0.9621,-1.1256,-1.3012,-1.4583,-1.5959,-1.6146,-1.6152,-1.6019,-1.3828,-1.2104,0.0,0.0,0.0,0.0,0.0,0.0,0.0,0.0,0.0,0.0,0.0,0.0,0.0,0.0,0.0,0.0,0.0,0.0,0.0,0.0,0.0,0.0,0.0,0.0,0.0,0.0,0.0,0.0,0.0,0.0,0.0,0.0,0.0,0.0,0.0,0.0,0.0,0.0,0.0,0.0,0.0,0.0,-1.6958,-1.7185,0.0,0.0,0.0,-1.8062,-1.8254,0.0,0.0,0.0,0.0,0.0,0.0,0.0,0.0,0.0,0.0,0.0,0.0,0.0,0.0,0.0,0.0,0.0,0.0,0.0,0.0,0.0,0.0,0.0,0.0,0.0,0.0,0.0,0.0,0.0,0.0,0.0,0.0,0.0,0.0,0.0,0.0,0.0,0.0,0.0,0.0,0.0,0.0,0.0,0.0,0.0,0.0,0.0,0.0,0.0,0.0,0.0,0.0,0.0,0.0,0.0,0.0,0.0,-1.0995,-1.3106,-1.4689,-1.5631,-1.5792,-1.5798,-1.5685,-1.3434,0.0,0.0,0.0,0.0,0.0,0.0,0.0,0.0,0.0,0.0,0.0,0.0,0.0,0.0,0.0,0.0,0.0,0.0,0.0,0.0,0.0,0.0,0.0,0.0,0.0,0.0,0.0,-0.5581,0.0,0.0,0.0,0.0,0.0,0.0,0.0,0.0,0.0,0.0,0.0,0.0,0.0,0.0,-1.6999,-1.7981,-1.8448,-1.8891,0.0,0.0,-1.9039,-1.8952,-1.9454,-1.9195,0.0,0.0,0.0,0.0,0.0,0.0,0.0,0.0,0.0,0.0,0.0,0.0,0.0,0.0,0.0,0.0,0.0,0.0,0.0,0.0,0.0,0.0,0.0,0.0,0.0,0.0,0.0,0.0,0.0,0.0,0.0,0.0,0.0,0.0,0.0,0.0,0.0,0.0,0.0,0.0,0.0,0.0,0.0,0.0,0.0,0.0,0.0,0.0,0.0,0.0,0.0,0.0,0.0,0.0,0.0,-1.1022,-1.33,-1.479,-1.5404,-1.5691,-1.5651,-1.5418,-1.3921,-1.2432,0.0,0.0,0.0,0.0,0.0,0.0,0.0,0.0,0.0,0.0,0.0,0.0,0.0,0.0,0.0,0.0,0.0,0.0,0.0,0.0,0.0,0.0,0.0,0.0,0.0,0.0,0.0,0.0,0.0,0.0,0.0,0.0,0.0,0.0,0.0,0.0,0.0,0.0,0.0,0.0,0.0,-1.7722,-1.8055,-1.8915,-1.9822,0.0,0.0,-2.0188,-2.0401,-2.1302,-2.0766,-1.7307,0.0,0.0,0.0,0.0,0.0,0.0,0.0,0.0,0.0,0.0,0.0,0.0,0.0,0.0,0.0,0.0,0.0,0.0,0.0,0.0,0.0,0.0,0.0,0.0,0.0,0.0,0.0,0.0,0.0,0.0,0.0,0.0,0.0,0.0,0.0,0.0,0.0,0.0,0.0,0.0,0.0,0.0,0.0,0.0,0.0,0.0,0.0,0.0,0.0,0.0,0.0,0.0,0.0,-0.9546,-1.0767,-1.3233,-1.4716,-1.5124,-1.5418,-1.5424,-1.5137,-1.3694,-1.2268,0.0,0.0,0.0,0.0,0.0,0.0,0.0,0.0,0.0,0.0,0.0,0.0,0.0,0.0,0.0,0.0,0.0,0.0,0.0,0.0,0.0,0.0,0.0,0.0,0.0,0.0,0.0,0.0,-0.9286,-0.9551,-1.0108,0.0,0.0,0.0,0.0,0.0,0.0,0.0,0.0,0.0,0.0,-1.88,-2.0062,-2.0552,0.0,0.0,-2.1528,-2.1296,-2.1377,-2.0819,-1.9769,-1.7808,-1.6328,0.0,0.0,0.0,0.0,0.0,0.0,0.0,0.0,0.0,0.0,0.0,0.0,0.0,0.0,0.0,0.0,0.0,0.0,0.0,0.0,0.0,0.0,0.0,0.0,0.0,0.0,0.0,0.0,0.0,0.0,0.0,0.0,0.0,0.0,0.0,0.0,0.0,0.0,0.0,0.0,0.0,0.0,0.0,0.0,0.0,0.0,0.0,0.0,0.0,0.0,0.0,0.0,-0.9519,-1.072,-1.322,-1.4703,-1.5084,-1.5291,-1.5257,-1.4988,-1.3822,-1.2489,0.0,0.0,0.0,0.0,0.0,0.0,0.0,0.0,0.0,0.0,0.0,0.0,0.0,0.0,0.0,0.0,0.0,0.0,0.0,0.0,0.0,0.0,0.0,0.0,0.0,0.0,0.0,0.0,-1.0279,-1.0426,-1.0858,0.0,0.0,0.0,0.0,0.0,0.0,0.0,0.0,0.0,0.0,-1.9793,-2.1271,-2.154,-2.1726,-2.2068,-2.1875,-2.1553,-2.1172,-2.041,-1.9453,-1.8213,0.0,0.0,0.0,0.0,0.0,0.0,0.0,0.0,0.0,0.0,0.0,0.0,0.0,0.0,0.0,0.0,0.0,0.0,0.0,0.0,0.0,0.0,0.0,0.0,0.0,0.0,0.0,0.0,0.0,0.0,-0.5691,0.0,0.0,0.0,0.0,0.0,0.0,0.0,0.0,0.0,0.0,0.0,0.0,0.0,0.0,0.0,0.0,0.0,0.0,0.0,0.0,0.0,0.0,0.0,-1.0989,-1.3327,-1.4803,-1.5351,-1.5391,-1.5251,-1.4995,-1.4412,-1.3347,-1.1879,0.0,0.0,0.0,0.0,0.0,0.0,0.0,0.0,0.0,0.0,0.0,0.0,0.0,0.0,0.0,0.0,0.0,0.0,0.0,0.0,0.0,0.0,0.0,0.0,0.0,0.0,-0.8938,-1.0095,-1.0849,0.0,0.0,0.0,0.0,0.0,0.0,0.0,0.0,0.0,0.0,-1.9189,-2.0703,-2.1161,-2.1621,-2.1758,-2.1337,-2.1249,-2.0791,-1.9658,-2.0371,-2.043,0.0,0.0,0.0,0.0,0.0,0.0,0.0,0.0,0.0,0.0,0.0,0.0,0.0,0.0,0.0,0.0,0.0,0.0,0.0,0.0,0.0,0.0,0.0,0.0,0.0,0.0,0.0,-0.7956,-0.7752,0.0,0.0,0.0,0.0,0.0,0.0,0.0,0.0,0.0,0.0,0.0,-1.0975,-1.1082,0.0,0.0,0.0,0.0,0.0,0.0,0.0,0.0,0.0,0.0,0.0,0.0,-1.027,-1.1302,-1.3614,-1.4955,-1.5097,-1.5156,-1.497,-1.4669,-1.4059,-1.3006,-1.1336,0.0,0.0,0.0,0.0,0.0,0.0,0.0,0.0,0.0,0.0,0.0,0.0,0.0,0.0,0.0,0.0,0.0,0.0,0.0,0.0,0.0,0.0,0.0,0.0,0.0,-0.8921,0.0,0.0,0.0,0.0,0.0,0.0,0.0,0.0,0.0,0.0,0.0,-1.6816,-1.8809,-1.9687,-2.0498,-2.1523,-2.1797,-2.2031,0.0,0.0,0.0,0.0,0.0,0.0,0.0,0.0,0.0,0.0,0.0,0.0,0.0,0.0,-1.9775,-1.6672,-1.584,-1.5751,-1.6211,0.0,0.0,0.0,0.0,0.0,0.0,0.0,0.0,0.0,0.0,0.0,0.0,0.0,0.0,-0.9519,0.0,-0.8591,0.0,0.0,0.0,0.0,0.0,0.0,0.0,0.0,-1.1249,-1.2058,-1.2727,-1.2879,-1.2772,0.0,-1.1897,-1.0459,0.0,0.0,0.0,0.0,0.0,0.0,0.0,0.0,-1.0802,-1.1637,-1.3856,-1.5055,-1.5149,-1.5062,-1.4823,-1.4522,-1.3813,-1.2899,-1.1637,-1.0436,-0.9364,0.0,0.0,0.0,0.0,0.0,0.0,0.0,0.0,0.0,0.0,0.0,0.0,0.0,0.0,0.0,0.0,0.0,0.0,0.0,0.0,0.0,0.0,0.0,-0.9491,0.0,0.0,0.0,0.0,0.0,0.0,0.0,0.0,0.0,-1.5079,-1.6638,-1.849,-2.0361,-2.0859,-2.1191,-2.1602,0.0,0.0,0.0,0.0,0.0,0.0,0.0,-1.9404,-1.9485,-1.8877,-1.8643,-1.96,-2.1055,-2.1924,-2.1307,0.0,0.0,-1.9121,-1.8271,-1.8252,-1.8838,-1.8584,-1.8437,-1.9014,-1.9258,-1.9355,0.0,0.0,0.0,0.0,0.0,0.0,0.0,0.0,-1.1089,-1.1223,0.0,-1.0287,0.0,0.0,0.0,0.0,0.0,0.0,0.0,0.0,-1.4108,-1.479,-1.3773,-1.4035,-1.4008,-1.3693,-1.364,-1.3066,-1.1906,-0.9702,0.0,0.0,0.0,0.0,0.0,0.0,-1.135,-1.2013,-1.3996,-1.5156,-1.5351,-1.5149,-1.481,-1.4476,-1.362,-1.306,-1.2788,-1.1658,-1.0494,-0.9317,-0.8176,0.0,0.0,0.0,0.0,0.0,0.0,0.0,0.0,0.0,0.0,0.0,0.0,0.0,0.0,0.0,0.0,0.0,0.0,0.0,0.0,-0.8584,0.0,0.0,0.0,0.0,0.0,0.0,0.0,0.0,0.0,0.0,-1.6989,-1.8588,-2.0391,-2.167,0.0,0.0,0.0,0.0,-2.1914,-2.0361,-2.04,-2.0273,-1.9104,-2.0576,-2.1709,-2.1307,0.0,0.0,-2.2168,-2.2334,-2.2412,-2.1522,-2.2779,-2.3711,-2.3188,-2.1738,-2.1016,-2.1709,-2.0937,-2.0381,-2.1093,-2.1611,-2.1894,-1.3233,0.0,0.0,0.0,0.0,-1.2138,-1.261,-1.348,-1.302,-1.2781,-1.2665,-1.2154,0.0,0.0,0.0,0.0,0.0,0.0,-1.2699,-1.3661,-1.4687,-1.5351,-1.5818,-1.5698,-1.5605,-1.5498,-1.489,-1.4516,-1.4322,-1.2866,-1.0996,-0.8865,0.0,0.0,0.0,0.0,-1.2118,-1.3114,-1.4543,-1.5211,-1.5135,-1.5048,-1.4623,-1.3866,-1.3407,-1.3066,-1.279,-1.2218,-1.1483,-1.0496,-0.9573,0.0,0.0,0.0,0.0,0.0,0.0,0.0,0.0,0.0,0.0,0.0,0.0,0.0,0.0,0.0,0.0,0.0,0.0,0.0,-0.9,-0.9938,-1.0723,0.0,0.0,0.0,0.0,0.0,0.0,0.0,0.0,0.0,-1.9855,-1.9874,-2.0283,0.0,0.0,-2.082,-2.0762,-2.1504,-2.2207,-2.2617,0.0,0.0,0.0,-2.2471,-2.2051,-2.2529,-2.3525,-2.4111,-2.375,-2.4261,-2.469,-2.4417,-2.4806,-2.5089,-2.4923,-2.4092,-2.3428,-2.3603,-2.3369,-2.3193,-2.3403,-2.3613,-2.3691,-1.5376,-1.4408,-1.3453,-1.3294,-1.3796,-1.3734,-1.4206,-1.506,-1.4799,-1.4649,-1.4556,-1.4028,-1.3373,-1.2552,-1.2228,0.0,0.0,0.0,-1.4028,-1.5224,-1.5518,-1.6032,-1.666,-1.6455,-1.6273,-1.6288,-1.5618,-1.5391,-1.5545,-1.4459,-1.3,-1.1196,0.0,0.0,-1.0463,-1.1864,-1.2979,-1.3828,-1.4856,-1.5257,-1.5008,-1.4623,-1.4188,-1.362,-1.3247,-1.2978,-1.279,-1.2458,-1.2004,-1.1397,-1.0533,-0.9332,0.0,0.0,0.0,0.0,0.0,0.0,0.0,0.0,0.0,0.0,0.0,-0.5464,0.0,0.0,0.0,0.0,-0.7646,-0.8777,-0.9998,-1.0549,0.0,0.0,0.0,0.0,0.0,0.0,0.0,-1.7856,-1.9862,-2.1396,-2.1873,-2.1639,-2.1719,-2.236,-2.2187,-2.1934,-2.1855,0.0,-2.3369,-2.3955,-2.3818,-2.3916,-2.4668,-2.3922,-2.3433,-2.4062,-2.458,-2.4884,-2.4914,-2.5352,-2.5664,-2.5684,-2.5684,-2.5684,-2.5684,-2.5235,-2.4941,-2.4884,-2.4795,-2.4736,-2.4893,-2.4884,-2.4941,-1.688,-1.6907,-1.5064,-1.4314,-1.44,-1.4928,-1.5471,-1.6042,-1.6255,-1.6486,-1.6673,-1.5872,-1.5351,-1.5082,-1.3975,0.0,0.0,-1.5042,-1.5611,-1.6409,-1.6647,-1.676,-1.6727,-1.6446,-1.6293,-1.6315,-1.5972,-1.5825,-1.5744,-1.4965,-1.4462,-1.4142,-1.3373,-1.2764,-1.2405,-1.32,-1.376,-1.4122,-1.4943,-1.5276,-1.5008,-1.4102,-1.3593,-1.356,-1.3065,-1.2737,-1.271,-1.2422,-1.2111,-1.1859,-1.1075,-1.0104,-0.8918,0.0,0.0,0.0,0.0,0.0,0.0,0.0,0.0,0.0,0.0,0.0,0.0,0.0,0.0,0.0,-0.8898,0.0,-1.0919,-1.1002,0.0,0.0,0.0,-1.5685,-1.8115,-1.9795,-2.082,-2.086,0.0,0.0,0.0,0.0,-2.415,-2.456,-2.4844,-2.4783,-2.3945,-2.4521,-2.498,-2.4668,-2.4573,-2.4648,-2.4922,-2.498,-2.5166,-2.5508,-2.5684,-2.5635,-2.5625,-2.5664,-2.5684,-2.5684,-2.5684,-2.5684,-2.5684,-2.5654,-2.5684,-2.5635,-2.5391,-2.5244,-2.5528,-2.5606,-2.5596,-1.6932,-1.677,-1.6314,-1.6196,-1.6392,-1.6342,-1.654,-1.6899,-1.6939,-1.7032,-1.7065,-1.658,-1.6353,-1.6273,-1.5999,-1.5992,-1.6199,-1.6549,-1.679,-1.7005,-1.7235,-1.7255,-1.7079,-1.674,-1.6486,-1.6266,-1.5972,-1.5825,-1.5818,-1.5578,-1.5257,-1.4814,-1.4579,-1.3876,-1.275,-1.3307,-1.3853,-1.4416,-1.485,-1.5082,-1.4988,-1.4102,-1.35,-1.3313,-1.2732,-1.2335,-1.212,-1.179,-1.1603,-1.153,-1.1122,-1.0461,-0.9512,-0.8094,0.0,0.0,0.0,0.0,0.0,0.0,0.0,0.0,0.0,-0.7256,-0.5808,0.0,-0.8031,0.0,-0.9721,-1.1681,-1.356,-1.4098,0.0,0.0,-1.8347,-1.9309,-2.124,-2.208,-2.2646,-2.2988,-2.3672,-2.4375,-2.5029,-2.5498,-2.5928,-2.6318,-2.5342,-2.4492,-2.4307,-2.5019,-2.5664,-2.5898,-2.6172,-2.6514,-2.6699,-2.6406,-2.5977,-2.5713,-2.5684,-2.5684,-2.5684,-2.5684,-2.5684,-2.5684,-2.5684,-2.5684,-2.5684,-2.5684,-2.5684,-2.5684,-2.5596,-2.5605,-2.5664,-2.5684,-2.5684,-1.7183,-1.7038,-1.6923,-1.6813,-1.6756,-1.6725,-1.6893,-1.7128,-1.7167,-1.7244,-1.738,-1.7168,-1.7094,-1.7094,-1.7101,-1.7094,-1.7108,-1.7268,-1.7393,-1.74,-1.7561,-1.7481,-1.7192,-1.6847,-1.6553,-1.6315,-1.5972,-1.5758,-1.5645,-1.5765,-1.5598,-1.5164,-1.5284,-1.4803,-1.3822,-1.3808,-1.4001,-1.4329,-1.4616,-1.483,-1.4975,-1.4102,-1.334,-1.2819,-1.2225,-1.171,-1.1337,-1.1129,-1.1042,-1.1029,-1.0762,-1.0321,-0.9699,-0.8563,-0.7625,0.0,0.0,0.0,0.0,0.0,0.0,0.0,0.0,0.0,0.0,0.0,-0.9385,0.0,-1.1229,0.0,-1.409,-1.5377,-1.6992,-1.9142,-2.0123,-2.1453,-2.3442,-2.3988,-2.4463,-2.4893,-2.5312,-2.583,-2.6514,-2.6807,-2.7109,-2.7519,-2.6758,-2.6074,-2.5937,-2.6309,-2.6748,-2.7168,-2.7432,-2.75,-2.7432,-2.6826,-2.624,-2.5791,-2.5684,-2.5684,-2.5684,-2.5684,-2.5684,-2.5684,-2.5684,-2.5684,-2.5684,-2.5684,-2.5684,-2.5684,-2.5684,-2.5684,-2.5684,-2.5684,-2.5684,-1.7485,-1.7461,-1.7237,-1.6869,-1.6435,-1.668,-1.6787,-1.6883,-1.6975,-1.718,-1.7468,-1.7549,-1.7589,-1.7589,-1.7589,-1.7589,-1.7589,-1.7589,-1.7589,-1.7582,-1.7601,-1.7427,-1.7132,-1.6787,-1.65,-1.6213,-1.5952,-1.5698,-1.5458,-1.5671,-1.5631,-1.5357,-1.5505,-1.5384,-1.4901,-1.4342,-1.4088,-1.4088,-1.4369,-1.4643,-1.4928,-1.3968,-1.306,-1.2325,-1.1657,-1.1082,-1.062,-1.0553,-1.0533,-1.0526,-1.0261,-1.004,-0.9869,-0.9012,-0.8308,0.0,-0.7243,0.0,0.0,0.0,0.0,0.0,0.0,0.0,0.0,-1.0512,-1.1096,-1.1717,-1.3006,-1.3896,-1.4129,-1.6118,-1.8032,-1.9704,-2.1147,-2.2804,-2.4649,-2.5402,-2.5888,-2.6366,-2.6734,-2.7162,-2.7542,-2.7692,-2.7785,-2.8111,-2.8091,-2.7867,-2.7783,-2.7676,-2.7812,-2.8252,-2.8301,-2.7939,-2.7217,-2.6738,-2.6318,-2.583,-2.5684,-2.5684,-2.5684,-2.5684,-2.5684,-2.5684,-2.5684,-2.5684,-2.5684,-2.5684,-2.5684,-2.5684,-2.5684,-2.5684,-2.5684,-2.5684,-2.5684,-1.7485,-1.7473,-1.743,-1.7352,-1.7237,-1.7089,-1.6539,-1.5819,-1.6034,-1.6397,-1.6907,-1.7375,-1.7589,-1.7589,-1.7589,-1.7589,-1.7589,-1.7589,-1.7589,-1.7575,-1.7393,-1.7125,-1.6787,-1.6486,-1.6206,-1.5919,-1.5858,-1.5751,-1.5738,-1.5565,-1.5331,-1.5089,-1.4856,-1.4596,-1.4311,0.0,0.0,0.0,-1.4376,-1.4549,-1.4556,-1.326,-1.2478,-1.2278,-1.131,0.0,-1.0593,-1.0327,-1.02,-1.02,-1.0147,0.0,0.0,0.0,0.0,0.0,0.0,0.0,0.0,0.0,0.0,0.0,-1.0856,-1.0823,-1.1062,-1.1893,-1.2717,-1.3548,-1.4426,-1.561,-1.7125,-1.8863,-2.0117,-2.0743,-2.2772,-2.4088,-2.407,-2.505,-2.6056,-2.6531,-2.6697,-2.7012,-2.7384,-2.7479,-2.7605,-2.7887,-2.797,-2.8048,-2.8174,-2.8154,-2.8193,-2.8281,-2.8281,-2.7969,-2.7139,-2.6924,-2.6553,-2.5918,-2.5684,-2.5684,-2.5684,-2.5684,-2.5684,-2.5684,-2.5684,-2.5684,-2.5684,-2.5684,-2.5684,-2.5684,-2.5684,-2.5684,-2.5684,-2.5684,-2.5684,-1.7485,0.0,-1.7485,-1.7334,0.0,-1.6954,-1.6338,-1.5557,-1.6047,-1.6465,-1.6742,-1.7029,-1.716,-1.714,-1.7029,-1.6955,-1.6935,-1.6803,-1.6794,-1.6921,-1.6837,-1.669,-1.6486,-1.6339,-1.6119,-1.5832,-1.5825,-1.5704,-1.5565,-1.5464,-1.5251,-1.497,-1.495,-1.4883,-1.4743,-1.4877,-1.4803,-1.4529,-1.4663,-1.4736,-1.4703,-1.3721,-1.2899,-1.2305,0.0,0.0,0.0,0.0,0.0,0.0,0.0,0.0,0.0,0.0,0.0,-1.0689,-1.0316,-1.0361,-1.0915,-1.0975,-1.149,-1.2645,-1.314,-1.314,-1.2534,-1.346,-1.4302,-1.4897,-1.5564,-1.643,-1.7563,-1.8997,-2.0008,-2.035,-2.1944,-2.3098,-2.356,-2.4537,-2.5549,-2.6285,-2.6836,-2.7214,-2.7403,-2.7431,-2.7485,-2.7647,-2.7638,-2.7691,-2.7862,-2.813,-2.8301,-2.8281,-2.8096,-2.7754,-2.7158,-2.6816,-2.6514,-2.5849,-2.5684,-2.5684,-2.5684,-2.5684,-2.5684,-2.5684,-2.5684,-2.5684,-2.5684,-2.5684,-2.5684,-2.5684,-2.5684,-2.5684,-2.5684,-2.5684,-2.5684,-1.7485,-1.7485,-1.7485,-1.7231,-1.6839,-1.6839,-1.641,-1.5728,0.0,0.0,0.0,-1.6634,-1.6685,-1.6704,-1.6465,-1.6367,-1.6335,-1.617,-1.6149,-1.6377,-1.6373,-1.6319,-1.6321,-1.6268,-1.6066,-1.5832,-1.5825,-1.5664,-1.5478,-1.5424,-1.5277,-1.5084,-1.5284,-1.5418,-1.5484,-1.5712,-1.5591,-1.5182,-1.5055,-1.5015,-1.4995,-1.4342,-1.3487,-1.2405,-1.181,-1.1256,-1.0767,-1.0747,-1.0767,-1.0821,-1.0821,-1.0981,-1.1276,-1.1249,-1.1383,-1.171,-1.1702,-1.1961,-1.2565,-1.2619,-1.3113,-1.4235,-1.5037,-1.5044,-1.3979,-1.493,-1.5671,-1.5959,-1.6473,-1.6901,-1.7246,-1.8455,-1.9272,-1.9531,-2.0759,-2.2089,-2.3129,-2.4148,-2.5151,-2.5999,-2.6795,-2.7269,-2.7215,-2.7215,-2.7269,-2.7314,-2.7239,-2.722,-2.7381,-2.7858,-2.8237,-2.8271,-2.8066,-2.7646,-2.7109,-2.6777,-2.6318,-2.5801,-2.5684,-2.5684,-2.5684,-2.5684,-2.5684,-2.5684,-2.5684,-2.5684,-2.5684,-2.5684,-2.5684,-2.5684,-2.5684,-2.5684,-2.5684,-2.5684,-2.5684,-1.7485,-1.7485,-1.7485,-1.7443,-1.7376,-1.737,-1.705,-1.6465,-1.5946,-1.5801,-1.6037,-1.6272,-1.6514,-1.667,-1.6654,-1.6615,-1.6662,-1.6912,-1.6879,0.0,-1.666,-1.6513,-1.6266,-1.6012,-1.5872,-1.5832,-1.5825,-1.5764,-1.5745,-1.5511,-1.5371,-1.5337,-1.5378,-1.5511,-1.5752,-1.5805,-1.5785,-1.5698,-1.5217,-1.5015,-1.5001,-1.4142,-1.3387,-1.2744,-1.2161,-1.165,-1.1323,-1.1309,-1.1423,-1.1705,-1.1718,-1.1966,-1.2489,-1.2288,-1.2371,-1.2899,-1.2959,-1.3213,-1.3829,-1.3834,-1.4235,-1.5117,-1.5558,-1.5585,-1.5217,-1.5758,-1.6273,-1.6553,-1.6918,-1.7259,-1.758,-1.853,-1.9124,-1.9332,-2.1261,-2.2735,-2.2844,-2.4302,-2.5448,-2.5744,-2.6354,-2.6682,-2.6736,-2.6745,-2.6836,-2.6943,-2.6763,-2.6664,-2.6943,-2.7471,-2.7994,-2.8237,-2.8242,-2.7871,-2.7246,-2.6992,-2.6611,-2.581,-2.5723,-2.5723,-2.5684,-2.5684,-2.5684,-2.5684,-2.5684,-2.5684,-2.5684,-2.5684,-2.5684,-2.5684,-2.5684,-2.5684,-2.5684,-2.5684,-2.5684,-1.7485,-1.7485,-1.7485,-1.7485,-1.7461,-1.7177,-1.6923,-1.6616,-1.5868,-1.5569,-1.5684,-1.5801,-1.5925,-1.6005,-1.583,-1.5831,-1.6014,-1.598,-1.6003,-1.6003,-1.598,-1.6064,-1.6058,-1.5876,-1.5825,-1.5825,-1.5825,-1.5825,-1.5798,-1.5538,-1.5324,-1.5177,-1.5164,-1.5304,-1.5585,-1.5704,-1.5825,-1.5778,-1.5571,-1.5357,-1.519,-1.4649,-1.4075,-1.3527,-1.3046,-1.2654,-1.2405,-1.2231,-1.2285,-1.2585,-1.2476,-1.265,-1.318,-1.3106,-1.3187,-1.3647,-1.3687,-1.3874,-1.4295,-1.4616,-1.497,-1.5371,-1.5665,-1.5852,-1.5872,-1.5965,-1.6219,-1.6653,-1.6834,-1.7094,-1.7522,-1.8048,-1.8297,-1.8304,-1.942,-2.0238,-2.0909,-2.181,-2.3077,-2.4386,-2.5058,-2.5666,-2.6509,-2.6591,-2.6526,-2.6495,-2.6254,-2.6277,-2.6561,-2.7059,-2.7584,-2.796,-2.8067,-2.7921,-2.7419,-2.7373,-2.7002,-2.623,-2.6094,-2.5937,-2.5762,-2.5684,-2.5684,-2.5684,-2.5684,-2.5684,-2.5684,-2.5684,-2.5684,-2.5684,-2.5684,-2.5684,-2.5684,-2.5684,-2.5684,-1.7485,-1.7485,-1.7485,-1.7485,-1.743,-1.6923,-1.67,-1.6628,-1.591,-1.5553,-1.5499,-1.5439,-1.5445,-1.5457,-1.5204,-1.5274,-1.5452,-1.5357,-1.5355,-1.5449,-1.546,-1.5616,-1.5716,-1.5693,-1.573,-1.573,-1.5778,-1.5825,-1.5798,-1.5598,-1.5351,-1.5129,-1.5042,-1.5156,-1.5398,-1.5638,-1.5825,-1.5825,-1.5825,-1.5718,-1.5498,-1.5271,-1.485,-1.4222,-1.3955,-1.3666,-1.3414,-1.3152,-1.312,-1.346,-1.3213,-1.3333,-1.3746,-1.374,-1.3866,-1.4229,-1.4215,-1.4349,-1.4703,-1.5137,-1.5424,-1.5498,-1.5698,-1.5925,-1.6119,-1.5965,-1.6106,-1.6687,-1.6894,-1.7121,-1.7495,-1.7635,-1.7687,-1.7891,-1.7943,-1.861,-1.9465,-1.9919,-2.084,-2.2898,-2.386,-2.4785,-2.5811,-2.6418,-2.6426,-2.6131,-2.6085,-2.6185,-2.6352,-2.6684,-2.7133,-2.7511,-2.7669,-2.7516,-2.7398,-2.7269,-2.689,-2.6188,-2.6161,-2.5937,-2.5713,-2.5635,-2.5684,-2.5684,-2.5684,-2.5684,-2.5684,-2.5684,-2.5684,-2.5684,-2.5684,-2.5684,-2.5684,-2.5684,-2.5684,-1.7485,-1.7485,-1.7485,-1.7485,-1.7424,-1.6917,-1.67,-1.6622,-1.6091,-1.5716,-1.5487,-1.5246,-1.5276,-1.5475,-1.5427,-1.5581,-1.5824,-1.6082,-1.5896,-1.5531,-1.5739,-1.5628,-1.522,-1.5417,-1.554,-1.554,-1.5737,-1.5778,-1.5778,-1.5738,-1.5631,-1.5357,-1.5142,-1.5104,-1.5384,-1.5624,-1.5825,-1.5825,-1.5825,-1.5771,-1.5744,-1.5765,-1.5344,-1.4459,-1.4456,-1.4302,-1.3995,-1.368,-1.378,-1.4315,-1.4088,-1.4088,-1.4355,-1.4188,-1.4331,-1.4841,-1.4616,-1.4716,-1.5231,-1.5371,-1.5504,-1.5711,-1.5751,-1.5798,-1.5851,-1.5818,-1.6192,-1.6965,-1.7387,-1.7448,-1.7575,-1.7582,-1.7943,-1.8662,-1.8812,-1.9487,-2.03,-2.1075,-2.1462,-2.1643,-2.305,-2.4339,-2.4613,-2.552,-2.6218,-2.5844,-2.5973,-2.6171,-2.6157,-2.6424,-2.6727,-2.6987,-2.6968,-2.6793,-2.6526,-2.6231,-2.6023,-2.5376,-2.5478,-2.5625,-2.5528,-2.5528,-2.5684,-2.5684,-2.5684,-2.5684,-2.5684,-2.5684,-2.5684,-2.5684,-2.5684,-2.5684,-2.5684,-2.5684,-2.5684,-1.7485,-1.7485,-1.7485,-1.7485,-1.7412,-1.6923,-1.67,-1.6646,-1.6121,-1.5747,-1.5481,-1.5221,-1.5167,-1.527,-1.527,-1.5409,-1.565,-1.5761,-1.571,-1.5511,-1.5469,-1.5282,-1.5136,-1.5194,-1.5267,-1.5315,-1.5493,-1.5635,-1.5609,-1.5611,-1.5424,-1.5209,-1.5062,-1.4988,-1.4923,-1.5344,-1.5571,-1.5585,-1.5691,-1.5825,-1.5825,-1.5825,-1.5498,-1.487,-1.4783,-1.4643,-1.4335,-1.3853,-1.3953,-1.4663,-1.4175,-1.4041,-1.4446,-1.4242,-1.4188,-1.4472,-1.4502,-1.4623,-1.4863,-1.5197,-1.5444,-1.5565,-1.5691,-1.5892,-1.6072,-1.6092,-1.6393,-1.7052,-1.7108,-1.7128,-1.7367,-1.7482,-1.7793,-1.8146,-1.8258,-1.8461,-1.8878,-1.9143,-1.9542,-2.0567,-2.1286,-2.2201,-2.3239,-2.3866,-2.4384,-2.4717,-2.5082,-2.5316,-2.5844,-2.6379,-2.6609,-2.6662,-2.637,-2.6194,-2.6352,-2.6304,-2.5866,-2.5474,-2.546,-2.553,-2.5381,-2.5382,-2.5489,-2.5645,-2.5693,-2.5684,-2.5684,-2.5684,-2.5684,-2.5684,-2.5684,-2.5684,-2.5684,-2.5684,-2.5684,-1.7485,-1.7485,-1.7485,-1.7443,-1.7334,-1.6899,-1.6658,-1.6531,-1.6085,-1.5783,-1.559,-1.533,-1.502,-1.4751,-1.4955,-1.5252,-1.5481,-1.5499,-1.5457,-1.5348,-1.5108,-1.4961,-1.4918,-1.4986,-1.4987,-1.5035,-1.5356,-1.554,-1.5555,-1.5438,-1.5291,-1.5142,-1.5048,-1.4856,-1.4716,-1.5157,-1.5351,-1.5304,-1.5558,-1.5678,-1.5598,-1.5591,-1.5391,-1.5048,-1.4928,-1.4736,-1.4522,-1.3993,-1.4095,-1.4776,-1.4148,-1.3953,-1.4462,-1.4242,-1.4128,-1.4208,-1.4396,-1.4596,-1.4743,-1.5084,-1.5351,-1.5518,-1.5785,-1.6039,-1.6219,-1.6273,-1.646,-1.6851,-1.6787,-1.686,-1.7286,-1.7514,-1.7575,-1.7589,-1.7589,-1.7589,-1.7641,-1.7589,-1.8167,-1.9306,-1.9852,-2.0557,-2.234,-2.2815,-2.3122,-2.372,-2.393,-2.4077,-2.5045,-2.5611,-2.6054,-2.5973,-2.5581,-2.5755,-2.6237,-2.5923,-2.5594,-2.5387,-2.523,-2.5265,-2.5136,-2.5098,-2.5284,-2.544,-2.5547,-2.5645,-2.5684,-2.5684,-2.5684,-2.5684,-2.5684,-2.5684,-2.5684,-2.5684,-2.5684,-1.7485,-1.7485,-1.7485,-1.7334,-1.7092,-1.6803,-1.6543,-1.6198,-1.5958,-1.582,-1.5654,-1.5473,-1.4705,-1.3663,-1.4485,-1.52,-1.5417,-1.5481,-1.536,-1.5137,-1.4847,-1.4576,-1.4322,-1.4592,-1.4742,-1.4736,-1.5213,-1.554,-1.5717,-1.5505,-1.5391,-1.5357,-1.5097,-1.4957,-1.4937,-1.5197,-1.5244,-1.5037,-1.5291,-1.5304,-1.5109,-1.5068,-1.5048,-1.4968,-1.4696,-1.4549,-1.4489,-1.4229,-1.4229,-1.4543,-1.4235,-1.4195,-1.4456,-1.4242,-1.4202,-1.4436,-1.4496,-1.475,-1.5164,-1.5156,-1.5211,-1.5712,-1.6005,-1.6239,-1.6226,-1.6259,-1.6375,-1.6395,-1.6633,-1.6961,-1.7402,-1.7535,-1.7582,-1.7589,-1.7589,-1.7589,-1.7589,-1.7589,-1.7589,-1.8034,-1.8971,-2.0236,-2.2096,-2.2823,-2.2679,-2.2879,-2.3031,-2.3143,-2.3462,-2.4253,-2.4633,-2.4579,-2.4792,-2.5372,-2.5368,-2.5191,-2.469,-2.4477,-2.4616,-2.4824,-2.4745,-2.4726,-2.4992,-2.5197,-2.5198,-2.5295,-2.5557,-2.5684,-2.5635,-2.5684,-2.5693,-2.5693,-2.5684,-2.5684,-2.5684,-1.7485,-1.7467,-1.7304,-1.7171,-1.705,-1.6622,-1.5989,-1.5208,-1.4916,-1.4374,-1.3675,-1.3371,-1.2934,-1.2468,-1.2828,-1.3445,-1.4253,-1.4938,-1.5197,-1.5083,-1.4835,-1.457,-1.4322,-1.4394,-1.4442,-1.449,-1.4831,-1.5118,-1.5309,-1.5259,-1.5204,-1.5134,-1.487,-1.4736,-1.477,-1.4977,-1.4977,-1.4763,-1.5144,-1.5257,-1.5001,-1.4776,-1.4676,-1.4676,-1.4539,-1.4516,-1.4516,-1.4235,-1.4309,-1.4783,-1.4355,-1.4215,-1.4449,-1.4249,-1.4128,-1.4229,-1.4242,-1.4416,-1.4776,-1.4923,-1.5176,-1.5511,-1.5818,-1.6005,-1.6019,-1.6166,-1.6395,-1.654,-1.6814,-1.7159,-1.7313,-1.7521,-1.7589,-1.7582,-1.7582,-1.7589,-1.7589,-1.7589,-1.7655,-1.7923,-1.8557,-1.9213,-1.9659,-2.0093,-2.0683,-2.138,-2.1715,-2.2112,-2.2862,-2.3424,-2.3492,-2.3154,-2.2983,-2.2814,-2.2552,-2.3788,-2.4205,-2.3966,-2.3876,-2.3912,-2.3866,-2.3858,-2.405,-2.4553,-2.4697,-2.4733,-2.4936,-2.543,-2.5479,-2.5528,-2.5586,-2.5479,-2.5684,-2.5479,-2.5528,-1.6644,-1.625,-1.602,-1.5868,-1.5749,-1.5344,-1.468,-1.3892,-1.3687,-1.3181,-1.2438,-1.2212,-1.1847,-1.1412,-1.1639,-1.1905,-1.2475,-1.3507,-1.4027,-1.3943,-1.3729,-1.3516,-1.3303,-1.3318,-1.3323,-1.3318,-1.3565,-1.4004,-1.4544,-1.4592,-1.4725,-1.5012,-1.4734,-1.4591,-1.4566,-1.4774,-1.4694,-1.4512,-1.487,-1.4963,-1.4733,-1.4489,-1.4382,-1.4382,-1.4382,-1.4376,-1.4376,-1.4195,-1.4291,-1.4606,-1.4338,-1.4182,-1.4329,-1.4195,-1.4088,-1.4088,-1.4088,-1.4215,-1.4502,-1.4796,-1.5135,-1.5391,-1.5752,-1.5972,-1.5985,-1.6152,-1.6359,-1.6573,-1.6827,-1.7038,-1.7038,-1.7288,-1.7542,-1.7541,-1.7574,-1.7582,-1.7589,-1.7589,-1.7675,-1.7856,-1.8123,-1.8251,-1.8156,-1.8591,-1.9309,-2.0082,-2.0409,-2.0973,-2.1496,-2.2063,-2.2055,-2.155,-2.1468,-2.1285,-2.115,-2.1866,-2.2748,-2.2611,-2.3048,-2.3048,-2.2931,-2.2943,-2.3185,-2.3746,-2.4055,-2.4068,-2.4422,-2.4982,-2.5226,-2.5274,-2.5069,-2.4864,-2.502,-2.5128,-2.502,-1.4917,-1.393,-1.3487,-1.351,-1.3383,-1.3192,-1.2707,-1.245,-1.2422,-1.2254,-1.1923,-1.2127,-1.1269,-1.0571,-1.1031,-1.1071,-1.0501,-1.1276,-1.1875,-1.1917,-1.1747,-1.1627,-1.1473,-1.1517,-1.1512,-1.1512,-1.156,-1.2344,-1.3366,-1.3468,-1.3884,-1.4727,-1.4418,-1.4151,-1.445,-1.4347,-1.4317,-1.4127,-1.4295,-1.4386,-1.4135,-1.4128,-1.4128,-1.4115,-1.4122,-1.4122,-1.4115,-1.4095,-1.4108,-1.4128,-1.4115,-1.4088,-1.4122,-1.4088,-1.4088,-1.4088,-1.4088,-1.4229,-1.4522,-1.4816,-1.5142,-1.5451,-1.5939,-1.6206,-1.6159,-1.6259,-1.6368,-1.6353,-1.6587,-1.666,-1.6589,-1.7105,-1.7448,-1.7286,-1.7395,-1.7528,-1.7549,-1.7569,-1.7589,-1.7649,-1.7876,-1.7975,-1.8156,-1.8415,-1.889,-1.9061,-1.93,-1.9509,-1.9568,-2.0152,-2.0176,-1.9752,-1.9723,-1.9836,-1.9865,-2.0039,-2.0603,-2.1162,-2.1904,-2.2268,-2.1984,-2.1886,-2.1964,-2.2417,-2.2478,-2.2547,-2.307,-2.3651,-2.4322,-2.4421,-2.4264,-2.3998,-2.4007,-2.4007,-2.4048,-1.4083,-1.3677,-1.3277,-1.3098,-1.2937,-1.2663,-1.2087,-1.1278,-1.1214,-1.0781,-1.008,-0.9974,-0.9686,-0.9332,-0.9418,-0.9275,-0.8882,-0.928,-1.0183,-1.1336,-1.1527,-1.1373,-1.1203,-1.117,-1.1219,-1.1224,-1.1272,-1.1512,-1.1853,-1.1901,-1.2193,-1.2544,-1.2405,-1.2297,-1.2562,-1.2963,-1.3112,-1.2931,-1.3798,-1.411,-1.3897,-1.3997,-1.4088,-1.4088,-1.4088,-1.4088,-1.4088,-1.4088,-1.4088,-1.4088,-1.4088,-1.4088,-1.4088,-1.4088,-1.4088,-1.4088,-1.4088,-1.4322,-1.4756,-1.4968,-1.519,-1.5638,-1.6059,-1.6139,-1.6059,-1.6339,-1.644,-1.6359,-1.6744,-1.6878,-1.6569,-1.6924,-1.7259,-1.7206,-1.728,-1.734,-1.7333,-1.734,-1.7434,-1.7549,-1.7669,-1.7809,-1.7949,-1.8235,-1.8375,-1.8604,-1.8731,-1.8731,-1.8742,-1.8768,-1.872,-1.8289,-1.8334,-1.8282,-1.8187,-1.8219,-1.8663,-1.9376,-2.0237,-2.1015,-2.0857,-2.0721,-2.0857,-2.0965,-2.1005,-2.1304,-2.1871,-2.2442,-2.3153,-2.3103,-2.2693,-2.2643,-2.2693,-2.2785,-2.2776,-1.2706,-1.2243,-1.1824,-1.1672,-1.1625,-1.127,-1.0731,-1.0076,-1.0021,-0.9588,-0.8992,-0.8937,-0.8855,-0.8703,-0.855,-0.8404,-0.8327,-0.8214,-0.8931,-1.0138,-1.0356,-1.0225,-1.0068,-0.9998,-0.9998,-0.9998,-0.9998,-1.0243,-1.0587,-1.0636,-1.0877,-1.1288,-1.1231,-1.1263,-1.1355,-1.1754,-1.1943,-1.1949,-1.2589,-1.2954,-1.2955,-1.3313,-1.3568,-1.361,-1.3913,-1.4088,-1.4088,-1.4088,-1.4088,-1.4088,-1.4088,-1.4088,-1.4088,-1.4088,-1.4128,-1.4208,-1.4175,-1.4295,-1.475,-1.4997,-1.5257,-1.5665,-1.6139,-1.6299,-1.6139,-1.6393,-1.64,-1.6239,-1.6513,-1.6723,-1.6426,-1.6687,-1.6961,-1.7032,-1.7032,-1.7038,-1.7032,-1.7032,-1.7166,-1.7367,-1.7474,-1.7575,-1.7782,-1.7955,-1.8042,-1.8297,-1.8417,-1.833,-1.8223,-1.7996,-1.7655,-1.7281,-1.7079,-1.6847,-1.6359,-1.647,-1.6765,-1.7529,-1.8418,-1.9166,-1.9497,-1.9442,-1.9524,-1.9757,-1.9859,-2.0373,-2.0885,-2.1543,-2.2131,-2.1625,-2.1237,-2.1261,-2.1312,-2.1363,-2.1405,-1.0902,-0.9774,-0.9559,-0.9541,-0.9551,-0.9223,-0.9154,-0.8992,-0.8992,-0.8992,-0.8937,-0.8937,-0.8866,-0.8716,-0.8564,-0.8414,-0.8282,-0.8157,-0.8153,-0.8374,-0.8494,-0.8538,-0.84,-0.8382,-0.8379,-0.8283,-0.8237,-0.868,-0.946,-0.9509,-1.0047,-1.073,-1.0707,-1.093,-1.07,-1.0758,-1.0868,-1.096,-1.1069,-1.1241,-1.1408,-1.232,-1.279,-1.2833,-1.361,-1.4088,-1.4088,-1.4088,-1.4088,-1.4088,-1.4088,-1.4088,-1.4088,-1.4095,-1.4255,-1.4416,-1.4235,-1.4329,-1.4609,-1.507,-1.5431,-1.5611,-1.6226,-1.658,-1.6313,-1.6273,-1.6213,-1.5945,-1.6206,-1.6359,-1.6353,-1.6567,-1.67,-1.6653,-1.666,-1.6673,-1.6687,-1.6687,-1.682,-1.7105,-1.7199,-1.732,-1.7589,-1.7842,-1.7922,-1.8035,-1.8217,-1.7989,-1.7736,-1.7442,-1.7088,-1.6734,-1.6406,-1.6199,-1.5972,-1.6027,-1.6298,-1.6548,-1.7203,-1.7643,-1.8118,-1.8118,-1.8116,-1.8359,-1.8731,-1.9292,-1.9675,-2.0089,-2.0483,-2.0347,-2.0064,-1.9943,-1.9937,-2.004,-2.0143,-1.0059,-0.9646,-0.9459,-0.9317,-0.9198,-0.9011,-0.8937,-0.8937,-0.8937,-0.8937,-0.8937,-0.8937,-0.8861,-0.8797,-0.8598,-0.8459,-0.8387,-0.8269,-0.8211,-0.8214,-0.8292,-0.8184,-0.8015,-0.7988,-0.7988,-0.7988,-0.7988,-0.8137,-0.8382,-0.8531,-0.8676,-0.8825,-0.9015,-0.8951,-0.8822,-0.9325,-0.9478,-0.9692,-1.0372,-1.0674,-1.089,-1.1972,-1.2705,-1.279,-1.3568,-1.4046,-1.4088,-1.4088,-1.4088,-1.4088,-1.4088,-1.4088,-1.4102,-1.4262,-1.4329,-1.4255,-1.4349,-1.4529,-1.483,-1.5177,-1.5565,-1.6019,-1.642,-1.6567,-1.6306,-1.6273,-1.6126,-1.5992,-1.6259,-1.6486,-1.6366,-1.652,-1.65,-1.6166,-1.6266,-1.6386,-1.6386,-1.64,-1.65,-1.6774,-1.7052,-1.728,-1.7541,-1.7642,-1.7796,-1.7916,-1.7776,-1.7574,-1.7288,-1.6921,-1.6593,-1.6413,-1.6152,-1.5992,-1.5865,-1.5845,-1.5872,-1.592,-1.617,-1.6312,-1.6574,-1.6622,-1.6688,-1.6773,-1.7287,-1.7859,-1.7796,-1.7878,-1.8289,-1.8993,-1.8839,-1.8674,-1.87,-1.8722,-1.8923,-0.9683,-0.9588,-0.9374,-0.9292,-0.9193,-0.8998,-0.8937,-0.8937,-0.8937,-0.8937,-0.8937,-0.8937,-0.8937,-0.8906,-0.8621,-0.8538,-0.8462,-0.8388,-0.8235,-0.817,-0.8167,-0.8116,-0.8002,-0.7988,-0.7988,-0.7988,-0.7988,-0.7988,-0.8038,-0.7988,-0.7988,-0.8088,-0.7988,-0.7988,-0.8117,-0.8293,-0.8534,-0.8625,-0.9107,-0.9372,-0.9559,-1.0626,-1.1402,-1.1843,-1.2705,-1.3355,-1.3695,-1.3786,-1.387,-1.4039,-1.4088,-1.4088,-1.4095,-1.4229,-1.4309,-1.4255,-1.4329,-1.4502,-1.4923,-1.5237,-1.5658,-1.6179,-1.654,-1.66,-1.6473,-1.6359,-1.6146,-1.5884,-1.6286,-1.6386,-1.6346,-1.6433,-1.6286,-1.5972,-1.5985,-1.6086,-1.6092,-1.6086,-1.6226,-1.6466,-1.668,-1.6998,-1.738,-1.744,-1.7555,-1.7675,-1.7468,-1.7266,-1.7005,-1.6576,-1.6254,-1.6092,-1.6019,-1.5899,-1.5845,-1.5832,-1.5825,-1.5825,-1.5825,-1.5825,-1.5825,-1.5825,-1.596,-1.6162,-1.6234,-1.6326,-1.6533,-1.6754,-1.7279,-1.7742,-1.7567,-1.771,-1.7823,-1.7948,-1.8053,-0.9539,-0.9561,-0.9273,-0.92,-0.9163,-0.8998,-0.8937,-0.8937,-0.8937,-0.8937,-0.8937,-0.8937,-0.8937,-0.8861,-0.8625,-0.8535,-0.8476,-0.8419,-0.8248,-0.8167,-0.8116,-0.8029,-0.7995,-0.7988,-0.7988,-0.7988,-0.7988,-0.7988,-0.7988,-0.7988,-0.7988,-0.7988,-0.7988,-0.7988,-0.8007,-0.7924,-0.7839,-0.7947,-0.7986,-0.8102,-0.8351,-0.9135,-0.9932,-1.0582,-1.1714,-1.2619,-1.3222,-1.344,-1.361,-1.4004,-1.4039,-1.3997,-1.4004,-1.4059,-1.4215,-1.4396,-1.4349,-1.4509,-1.491,-1.5277,-1.5678,-1.6248,-1.6506,-1.6653,-1.6547,-1.6333,-1.6079,-1.5804,-1.6099,-1.6266,-1.6286,-1.6342,-1.6152,-1.5905,-1.5845,-1.5832,-1.5825,-1.5825,-1.5932,-1.6179,-1.6295,-1.6603,-1.6911,-1.7159,-1.7246,-1.7295,-1.7146,-1.6904,-1.6627,-1.6339,-1.6079,-1.5919,-1.5872,-1.5845,-1.5832,-1.5825,-1.5825,-1.5825,-1.5825,-1.5825,-1.5825,-1.5825,-1.5825,-1.5899,-1.6025,-1.6112,-1.6206,-1.6453,-1.6734,-1.6985,-1.7163,-1.7365,-1.7481,-1.7571,-1.7676,-0.9294,-0.9415,-0.9289,-0.9089,-0.8991,-0.8895,-0.8937,-0.8937,-0.8937,-0.8878,-0.8878,-0.8878,-0.8878,-0.8861,-0.8625,-0.8535,-0.8528,-0.8425,-0.8411,-0.8384,-0.8262,-0.8147,-0.8015,-0.7988,-0.7988,-0.7988,-0.7988,-0.7988,-0.7988,-0.7988,-0.7988,-0.7988,-0.7988,-0.7988,-0.7968,-0.7906,-0.7804,-0.7815,-0.7745,-0.7734,-0.7881,-0.8569,-0.9205,-0.9671,-1.1058,-1.2357,-1.3179,-1.3398,-1.344,-1.3525,-1.3568,-1.361,-1.3812,-1.4031,-1.4177,-1.4249,-1.4603,-1.4823,-1.5017,-1.5424,-1.5879,-1.6213,-1.6362,-1.6359,-1.6346,-1.6112,-1.5925,-1.5879,-1.6086,-1.6259,-1.6321,-1.6273,-1.6112,-1.5899,-1.5825,-1.5825,-1.5825,-1.5825,-1.5872,-1.5952,-1.6132,-1.6326,-1.6522,-1.6764,-1.68,-1.6847,-1.6707,-1.6473,-1.6306,-1.6146,-1.5985,-1.5825,-1.5825,-1.5825,-1.5825,-1.5825,-1.5825,-1.5825,-1.5825,-1.5825,-1.5825,-1.5825,-1.5825,-1.5784,-1.5818,-1.5939,-1.6025,-1.6152,-1.6426,-1.667,-1.6871,-1.7065,-1.7226,-1.7266,-1.7313,-0.8919,-0.9129,-0.8971,-0.8893,-0.8892,-0.8937,-0.8937,-0.8937,-0.8937,-0.8841,-0.8804,-0.8844,-0.8844,-0.8815,-0.8598,-0.8535,-0.8442,-0.833,-0.8313,-0.8319,-0.8228,-0.8116,-0.8012,-0.7988,-0.7988,-0.7988,-0.7988,-0.7988,-0.7988,-0.7988,-0.7988,-0.7988,-0.7988,-0.7988,-0.7988,-0.7904,-0.7882,-0.7801,-0.776,-0.7705,-0.7689,-0.8054,-0.8609,-0.899,-1.0231,-1.1311,-1.1655,-1.2186,-1.2357,-1.2534,-1.2839,-1.3222,-1.3564,-1.3868,-1.3976,-1.4063,-1.4337,-1.4766,-1.4996,-1.5305,-1.565,-1.6233,-1.6159,-1.6172,-1.6159,-1.5999,-1.5845,-1.5892,-1.6072,-1.6273,-1.6308,-1.6112,-1.5979,-1.5885,-1.5825,-1.5825,-1.5825,-1.5825,-1.5825,-1.5852,-1.5972,-1.6126,-1.6279,-1.642,-1.6573,-1.668,-1.6589,-1.6368,-1.6259,-1.6099,-1.5939,-1.5825,-1.5825,-1.5825,-1.5825,-1.5825,-1.5825,-1.5825,-1.5825,-1.5825,-1.5825,-1.5825,-1.5825,-1.5784,-1.5791,-1.5784,-1.5919,-1.6039,-1.6152,-1.6359,-1.6573,-1.676,-1.6887,-1.6934,-1.6967,-0.853,-0.8807,-0.8541,-0.8598,-0.8823,-0.8823,-0.8881,-0.8937,-0.8937,-0.8828,-0.8788,-0.8886,-0.8876,-0.8737,-0.8564,-0.8482,-0.8377,-0.8208,-0.8153,-0.8258,-0.8136,-0.8015,-0.7988,-0.7988,-0.7988,-0.7988,-0.7988,-0.7988,-0.7988,-0.7988,-0.7988,-0.7988,-0.7988,-0.7988,-0.7988,-0.7985,-0.7924,-0.7868,-0.7797,-0.7706,-0.7494,-0.7559,-0.7863,-0.8616,-0.9231,-0.9923,-1.0313,-1.0794,-1.1192,-1.1327,-1.2092,-1.2765,-1.3298,-1.3609,-1.3805,-1.3868,-1.4225,-1.45,-1.4811,-1.5053,-1.5395,-1.6131,-1.5855,-1.587,-1.6017,-1.5951,-1.5864,-1.5979,-1.6132,-1.6288,-1.6192,-1.6019,-1.5879,-1.5825,-1.5825,-1.5825,-1.5825,-1.5825,-1.5825,-1.5832,-1.5879,-1.5985,-1.6086,-1.6199,-1.6366,-1.6466,-1.6313,-1.6248,-1.6132,-1.6059,-1.5899,-1.5825,-1.5825,-1.5825,-1.5825,-1.5825,-1.5825,-1.5825,-1.5825,-1.5825,-1.5825,-1.5825,-1.5825,-1.5825,-1.5825,-1.5825,-1.5825,-1.5899,-1.6025,-1.6172,-1.6346,-1.6553,-1.6633,-1.6653,-1.672,-0.8106,-0.8385,-0.8168,-0.8263,-0.8543,-0.854,-0.8709,-0.8881,-0.8875,-0.8871,-0.8834,-0.8865,-0.8841,-0.8804,-0.8591,-0.8425,-0.8279,-0.8126,-0.8116,-0.8211,-0.8109,-0.7988,-0.7988,-0.7988,-0.7988,-0.7988,-0.7988,-0.7988,-0.7988,-0.7988,-0.7988,-0.7988,-0.7988,-0.7988,-0.7988,-0.7988,-0.7978,-0.7914,-0.7885,-0.7736,-0.7584,-0.7491,-0.7695,-0.8351,-0.8693,-0.9073,-0.9655,-1.0028,-1.0491,-1.1208,-1.169,-1.2273,-1.2859,-1.3265,-1.3609,-1.4045,-1.4343,-1.4545,-1.4708,-1.4933,-1.5203,-1.5497,-1.5436,-1.5506,-1.5701,-1.5742,-1.5775,-1.6031,-1.6152,-1.6172,-1.5925,-1.5818,-1.5791,-1.5778,-1.5778,-1.5825,-1.5825,-1.5825,-1.5825,-1.5825,-1.5791,-1.5798,-1.5945,-1.6005,-1.6079,-1.6159,-1.6079,-1.6005,-1.5965,-1.5932,-1.5858,-1.5825,-1.5825,-1.5825,-1.5825,-1.5825,-1.5825,-1.5825,-1.5825,-1.5825,-1.5825,-1.5825,-1.5825,-1.5825,-1.5825,-1.5825,-1.5825,-1.5825,-1.5872,-1.5992,-1.6172,-1.6359,-1.6406,-1.646,-1.6647,-0.7732,-0.8007,-0.7879,-0.7992,-0.8266,-0.8429,-0.8595,-0.8699,-0.8746,-0.8774,-0.872,-0.8699,-0.8659,-0.857,-0.8459,-0.8292,-0.816,-0.8035,-0.8035,-0.8123,-0.8025,-0.7988,-0.7988,-0.7988,-0.7988,-0.7988,-0.7988,-0.7988,-0.7988,-0.7988,-0.7988,-0.7988,-0.7988,-0.7988,-0.7988,-0.7988,-0.7988,-0.7968,-0.7907,-0.7851,-0.7706,-0.7563,-0.7763,-0.79,-0.8049,-0.828,-0.8639,-0.9259,-0.9624,-1.0097,-1.0714,-1.1323,-1.1812,-1.2186,-1.2688,-1.3731,-1.4235,-1.4483,-1.4637,-1.4829,-1.5064,-1.5404,-1.5356,-1.5452,-1.5689,-1.5757,-1.5775,-1.5951,-1.6046,-1.5944,-1.5662,-1.5737,-1.5737,-1.5683,-1.5737,-1.5784,-1.5825,-1.5825,-1.5825,-1.5825,-1.5832,-1.5784,-1.5832,-1.5858,-1.5838,-1.5825,-1.5825,-1.5825,-1.5825,-1.5825,-1.5825,-1.5825,-1.5825,-1.5825,-1.5825,-1.5825,-1.5825,-1.5825,-1.5825,-1.5825,-1.5825,-1.5825,-1.5825,-1.5825,-1.5825,-1.5825,-1.5825,-1.5825,-1.5825,-1.5852,-1.6079,-1.6253,-1.6233,-1.6299,-1.6466,-0.7412,-0.7683,-0.7589,-0.7645,-0.7901,-0.8202,-0.8336,-0.8394,-0.854,-0.8478,-0.8338,-0.8433,-0.8438,-0.834,-0.8279,-0.8191,-0.7998,-0.7988,-0.7995,-0.7998,-0.7995,-0.7988,-0.7988,-0.7988,-0.7988,-0.7988,-0.7988,-0.7988,-0.7988,-0.7988,-0.7988,-0.7988,-0.7988,-0.7988,-0.7988,-0.7988,-0.7988,-0.7988,-0.7985,-0.7911,-0.7818,-0.7678,-0.7597,-0.7597,-0.7597,-0.763,-0.784,-0.8339,-0.8846,-0.9279,-0.9799,-1.0407,-1.074,-1.0853,-1.164,-1.3059,-1.3701,-1.4124,-1.4538,-1.4634,-1.4825,-1.5213,-1.5261,-1.5404,-1.5722,-1.579,-1.5871,-1.5811,-1.5932,-1.5871,-1.5716,-1.573,-1.5737,-1.5689,-1.573,-1.5825,-1.5825,-1.5825,-1.5825,-1.5825,-1.5825,-1.5825,-1.5825,-1.5825,-1.5825,-1.5825,-1.5825,-1.5825,-1.5825,-1.5825,-1.5825,-1.5825,-1.5825,-1.5825,-1.5825,-1.5825,-1.5825,-1.5825,-1.5825,-1.5825,-1.5825,-1.5825,-1.5825,-1.5825,-1.5825,-1.5825,-1.5825,-1.5825,-1.5825,-1.5892,-1.6066,-1.6172,-1.6206,-1.6166,-1.6213,-0.7232,-0.7287,-0.7274,-0.7318,-0.7463,-0.7656,-0.7744,-0.784,-0.8173,-0.8094,-0.7944,-0.8259,-0.834,-0.819,-0.8248,-0.8177,-0.8029,-0.7988,-0.7988,-0.7988,-0.7988,-0.7988,-0.7988,-0.7988,-0.7988,-0.7988,-0.7988,-0.7988,-0.7988,-0.7988,-0.7988,-0.7988,-0.7988,-0.7988,-0.7988,-0.7988,-0.7988,-0.7988,-0.7988,-0.7917,-0.7831,-0.7695,-0.7641,-0.7624,-0.7628,-0.7638,-0.7655,-0.7935,-0.8204,-0.8898,-0.9286,-0.9927,-1.0653,-1.1042,-1.1167,-1.1721,-1.2372,-1.3318,-1.4052,-1.4244,-1.4442,-1.4736,-1.4682,-1.4873,-1.5347,-1.5855,-1.5929,-1.5798,-1.5971,-1.5949,-1.5681,-1.5737,-1.5784,-1.5737,-1.573,-1.5778,-1.5825,-1.5825,-1.5825,-1.5825,-1.5825,-1.5825,-1.5825,-1.5825,-1.5825,-1.5825,-1.5825,-1.5825,-1.5825,-1.5825,-1.5825,-1.5825,-1.5825,-1.5825,-1.5825,-1.5825,-1.5825,-1.5825,-1.5825,-1.5825,-1.5825,-1.5825,-1.5825,-1.5825,-1.5825,-1.5825,-1.5825,-1.5825,-1.5825,-1.5899,-1.6025,-1.6139,-1.6233,-1.6159,-1.6079,-0.7087,-0.7202,-0.7086,-0.7141,-0.72,-0.7345,-0.749,-0.7716,-0.7938,-0.806,-0.8043,-0.8112,-0.8133,-0.8075,-0.8106,-0.8106,-0.7998,-0.7988,-0.7988,-0.7988,-0.7988,-0.7988,-0.7988,-0.7988,-0.7988,-0.7988,-0.7988,-0.7988,-0.7988,-0.7988,-0.7988,-0.7988,-0.7988,-0.7988,-0.7988,-0.7988,-0.7988,-0.7988,-0.7985,-0.7955,-0.794,-0.7882,-0.7796,-0.7841,-0.7838,-0.7834,-0.7834,-0.7848,-0.7994,-0.843,-0.8548,-0.8713,-0.9116,-0.9367,-0.9604,-1.0342,-1.0632,-1.1707,-1.3071,-1.336,-1.3854,-1.4496,-1.4592,-1.4783,-1.5245,-1.546,-1.5621,-1.543,-1.5514,-1.5466,-1.5395,-1.5452,-1.5499,-1.5499,-1.5642,-1.573,-1.5778,-1.5825,-1.5825,-1.5825,-1.5778,-1.5737,-1.5689,-1.5737,-1.5737,-1.5825,-1.5825,-1.5825,-1.5825,-1.5825,-1.5825,-1.5825,-1.5825,-1.5825,-1.5825,-1.5825,-1.5825,-1.5825,-1.5825,-1.5825,-1.5825,-1.5825,-1.5825,-1.5825,-1.5825,-1.5825,-1.5825,-1.5825,-1.5825,-1.5892,-1.5972,-1.6046,-1.6126,-1.6213,-1.6132,-0.6994,-0.7193,-0.6999,-0.694,-0.6931,-0.7048,-0.7183,-0.7324,-0.7634,-0.784,-0.7886,-0.7902,-0.7952,-0.7992,-0.8002,-0.7998,-0.7992,-0.7988,-0.7988,-0.7988,-0.7988,-0.7988,-0.7988,-0.7988,-0.7988,-0.7988,-0.7988,-0.7988,-0.7988,-0.7988,-0.7988,-0.7988,-0.7988,-0.7988,-0.7988,-0.7988,-0.7988,-0.7988,-0.7988,-0.7982,-0.7971,-0.7975,-0.7971,-0.7978,-0.7988,-0.7988,-0.7988,-0.7975,-0.8024,-0.8021,-0.8064,-0.8163,-0.8219,-0.8372,-0.8577,-0.9118,-0.9361,-1.0047,-1.1365,-1.2145,-1.298,-1.3811,-1.464,-1.4736,-1.4933,-1.5029,-1.5131,-1.5178,-1.5191,-1.5054,-1.4933,-1.5213,-1.5261,-1.5315,-1.541,-1.5547,-1.5642,-1.5594,-1.5547,-1.5506,-1.5458,-1.5506,-1.5506,-1.5553,-1.5642,-1.5778,-1.5825,-1.5778,-1.5778,-1.5778,-1.5825,-1.5825,-1.5825,-1.5825,-1.5825,-1.5825,-1.5825,-1.5825,-1.5825,-1.5825,-1.5825,-1.5825,-1.5825,-1.5825,-1.5825,-1.5825,-1.5825,-1.5825,-1.5832,-1.5872,-1.5905,-1.5925,-1.5999,-1.6106,-1.6132,-0.7196,-0.7191,-0.6907,-0.682,-0.6825,-0.6806,-0.6725,-0.6692,-0.7211,-0.7283,-0.7252,-0.74,-0.7793,-0.7942,-0.7988,-0.7988,-0.7988,-0.7988,-0.7988,-0.7988,-0.7988,-0.7988,-0.7988,-0.7988,-0.7988,-0.7988,-0.7988,-0.7988,-0.7988,-0.7988,-0.7988,-0.7988,-0.7988,-0.7988,-0.7988,-0.7988,-0.7988,-0.7988,-0.7988,-0.7988,-0.7988,-0.7988,-0.7988,-0.7988,-0.7988,-0.7988,-0.7988,-0.7988,-0.7988,-0.7988,-0.7988,-0.7988,-0.7988,-0.7988,-0.8233,-0.8283,-0.8382,-0.9019,-0.9899,-1.0877,-1.1804,-1.2829,-1.3661,-1.4292,-1.4442,-1.4831,-1.5029,-1.4981,-1.4933,-1.4987,-1.4987,-1.5131,-1.5077,-1.5131,-1.5178,-1.5267,-1.5315,-1.5267,-1.5226,-1.5178,-1.5178,-1.5274,-1.5315,-1.5363,-1.5458,-1.5553,-1.573,-1.573,-1.5778,-1.5778,-1.5778,-1.5825,-1.5825,-1.5825,-1.5825,-1.5825,-1.5825,-1.5825,-1.5825,-1.5825,-1.5825,-1.5825,-1.5825,-1.5825,-1.5825,-1.5825,-1.5825,-1.5825,-1.5825,-1.5825,-1.5845,-1.5872,-1.5879,-1.5945,-1.5952,-0.7007,-0.7172,-0.6738,-0.6706,-0.6907,-0.6834,-0.6851,-0.6935,-0.7177,-0.7334,-0.7402,-0.7585,-0.7743,-0.7939,-0.7988,-0.7988,-0.7988,-0.7988,-0.7988,-0.7988,-0.7988,-0.7988,-0.7988,-0.7988,-0.7988,-0.7988,-0.7988,-0.7988,-0.7988,-0.7988,-0.7988,-0.7988,-0.7988,-0.7988,-0.7988,-0.7988,-0.7988,-0.7988,-0.7988,-0.7988,-0.7988,-0.7988,-0.7988,-0.7988,-0.7988,-0.7988,-0.7988,-0.7988,-0.7988,-0.7988,-0.7988,-0.7988,-0.7988,-0.7988,-0.7988,-0.7988,-0.7988,-0.8283,-0.8726,-0.9653,-1.0681,-1.156,-1.2296,-1.2829,-1.3414,-1.3607,-1.4052,-1.4298,-1.4586,-1.4544,-1.4592,-1.4736,-1.4838,-1.4892,-1.4939,-1.5035,-1.5035,-1.4987,-1.4981,-1.4933,-1.5035,-1.5178,-1.5131,-1.5131,-1.5226,-1.5322,-1.5499,-1.5635,-1.5642,-1.5689,-1.5689,-1.5689,-1.5689,-1.5737,-1.573,-1.5778,-1.5778,-1.5825,-1.5825,-1.5825,-1.5825,-1.5825,-1.5825,-1.5825,-1.5825,-1.5825,-1.5825,-1.5825,-1.5825,-1.5825,-1.5825,-1.5832,-1.5832,-1.5825,-1.5825,-0.6842,-0.7048,-0.6703,-0.6714,-0.695,-0.6815,-0.6851,-0.7006,-0.7102,-0.7297,-0.7626,-0.7532,-0.759,-0.7739,-0.7739,-0.7739,-0.7739,-0.7793,-0.7892,-0.7892,-0.7939,-0.7988,-0.7988,-0.7988,-0.7988,-0.7988,-0.7988,-0.7988,-0.7988,-0.7988,-0.7988,-0.7988,-0.7988,-0.7988,-0.7988,-0.7988,-0.7988,-0.7988,-0.7988,-0.7988,-0.7988,-0.7988,-0.7988,-0.7988,-0.7988,-0.7988,-0.7988,-0.7988,-0.7988,-0.7988,-0.7988,-0.7988,-0.7988,-0.7988,-0.7988,-0.7988,-0.7988,-0.7988,-0.8283,-0.9019,-0.9899,-1.0632,-1.1219,-1.1707,-1.2047,-1.2242,-1.2635,-1.3125,-1.3516,-1.3806,-1.3902,-1.4202,-1.4496,-1.4592,-1.464,-1.4688,-1.4742,-1.4742,-1.4736,-1.4783,-1.4838,-1.4838,-1.479,-1.479,-1.4981,-1.5077,-1.5267,-1.5356,-1.5363,-1.541,-1.5452,-1.5458,-1.5506,-1.5594,-1.5689,-1.5689,-1.5683,-1.5825,-1.5825,-1.5825,-1.5825,-1.5825,-1.5825,-1.5825,-1.5825,-1.5825,-1.5825,-1.5825,-1.5825,-1.5825,-1.5825,-1.5825,-1.5825,-1.5825,-1.5825,-0.6866,-0.697,-0.6831,-0.6847,-0.694,-0.6728,-0.6638,-0.6711,-0.6904,-0.7094,-0.724,-0.7197,-0.7238,-0.7288,-0.7338,-0.7338,-0.7388,-0.754,-0.7643,-0.7693,-0.7842,-0.7939,-0.7988,-0.7988,-0.7988,-0.7988,-0.7988,-0.7988,-0.7988,-0.7988,-0.7988,-0.7988,-0.7988,-0.7988,-0.7988,-0.7988,-0.7988,-0.7988,-0.7988,-0.7988,-0.7988,-0.7988,-0.7988,-0.7988,-0.7988,-0.7988,-0.7988,-0.7988,-0.7988,-0.7988,-0.7988,-0.7988,-0.7988,-0.7988,-0.7988,-0.7988,-0.7988,-0.7988,-0.8088,-0.9019,-0.946,-0.9657,-1.0145,-1.0779,-1.1126,-1.1224,-1.1414,-1.2004,-1.229,-1.2678,-1.3071,-1.3468,-1.3806,-1.4148,-1.4148,-1.4346,-1.4346,-1.4496,-1.4544,-1.4592,-1.4442,-1.4346,-1.4346,-1.44,-1.4688,-1.4831,-1.5035,-1.5131,-1.5131,-1.5226,-1.5267,-1.5315,-1.5315,-1.5363,-1.5452,-1.5499,-1.5594,-1.573,-1.5825,-1.5825,-1.5825,-1.5825,-1.5825,-1.5825,-1.5825,-1.5825,-1.5825,-1.5825,-1.5825,-1.5825,-1.5825,-1.5825,-1.5825,-1.5825,-1.5825,-0.6755,-0.6844,-0.6643,-0.6624,-0.6839,-0.6779,-0.6741,-0.6725,-0.6763,-0.6853,-0.7008,-0.6989,-0.7039,-0.7135,-0.7185,-0.7185,-0.7188,-0.7235,-0.7391,-0.7596,-0.7693,-0.7842,-0.7942,-0.7939,-0.7988,-0.7988,-0.7988,-0.7988,-0.7988,-0.7988,-0.7988,-0.7988,-0.7988,-0.7988,-0.7988,-0.7988,-0.7988,-0.7988,-0.7988,-0.7988,-0.7988,-0.7988,-0.7988,-0.7988,-0.7988,-0.7988,-0.7988,-0.7988,-0.7988,-0.7988,-0.7988,-0.7988,-0.7988,-0.7988,-0.7988,-0.7988,-0.7988,-0.7988,-0.8038,-0.8382,-0.8531,-0.8726,-0.9019,-0.9604,-0.9998,-1.0096,-1.0489,-1.0979,-1.1365,-1.1658,-1.1853,-1.195,-1.2296,-1.3022,-1.3318,-1.3757,-1.395,-1.425,-1.4394,-1.4394,-1.4298,-1.4298,-1.4298,-1.4298,-1.4496,-1.4592,-1.4742,-1.4838,-1.4838,-1.5029,-1.5172,-1.5172,-1.5178,-1.5178,-1.522,-1.5261,-1.5404,-1.5547,-1.5683,-1.5825,-1.5825,-1.5778,-1.5778,-1.5784,-1.5778,-1.5825,-1.5825,-1.5825,-1.5825,-1.5825,-1.5825,-1.5825,-1.5825,-1.5825,-1.5825,-0.663,-0.6711,-0.6521,-0.6551,-0.6722,-0.6738,-0.6738,-0.6717,-0.6611,-0.6658,-0.674,-0.6723,-0.6739,-0.6886,-0.6936,-0.6936,-0.6939,-0.7039,-0.7089,-0.7347,-0.7444,-0.754,-0.769,-0.7842,-0.7739,-0.7789,-0.7939,-0.7988,-0.7842,-0.7939,-0.7988,-0.7988,-0.7988,-0.7988,-0.7988,-0.7988,-0.7988,-0.7988,-0.7988,-0.7988,-0.7988,-0.7988,-0.7988,-0.7988,-0.7988,-0.7988,-0.7988,-0.7988,-0.7988,-0.7988,-0.7988,-0.7988,-0.7988,-0.7988,-0.7988,-0.7988,-0.7988,-0.7988,-0.8038,-0.8038,-0.8137,-0.8137,-0.7988,-0.8333,-0.892,-0.9019,-0.9312,-0.9805,-1.0391,-1.0587,-1.0632,-1.0685,-1.1321,-1.2101,-1.2344,-1.278,-1.3022,-1.3221,-1.3661,-1.3709,-1.4052,-1.4106,-1.425,-1.4298,-1.4346,-1.44,-1.4448,-1.4544,-1.4592,-1.4736,-1.4885,-1.4885,-1.4885,-1.4885,-1.4933,-1.5029,-1.5166,-1.5309,-1.5499,-1.5642,-1.5683,-1.5635,-1.5689,-1.5784,-1.5784,-1.5778,-1.5825,-1.5825,-1.5778,-1.5778,-1.5825,-1.5825,-1.5825,-1.5825,-1.5825,-0.6505,-0.6538,-0.6435,-0.6505,-0.6551,-0.6613,-0.6613,-0.6551,-0.6441,-0.6395,-0.6442,-0.6445,-0.6487,-0.6437,-0.6437,-0.6484,-0.6537,-0.6689,-0.6792,-0.6892,-0.7092,-0.7238,-0.7338,-0.749,-0.749,-0.7487,-0.7587,-0.769,-0.7643,-0.7743,-0.7839,-0.7939,-0.7889,-0.7889,-0.7939,-0.7939,-0.7939,-0.7988,-0.7988,-0.7988,-0.7988,-0.7988,-0.7988,-0.7988,-0.7988,-0.7988,-0.7988,-0.7988,-0.7988,-0.7988,-0.7988,-0.7988,-0.7988,-0.7988,-0.7988,-0.7988,-0.7988,-0.7988,-0.7988,-0.7988,-0.7988,-0.7988,-0.7988,-0.8038,-0.8137,-0.8283,-0.8528,-0.8775,-0.9167,-0.941,-0.9558,-1.0145,-1.0783,-1.1028,-1.1126,-1.1414,-1.1609,-1.1999,-1.2484,-1.2877,-1.3414,-1.3661,-1.3854,-1.3956,-1.3859,-1.4346,-1.44,-1.44,-1.4448,-1.44,-1.4544,-1.4496,-1.4496,-1.4496,-1.4592,-1.4783,-1.4933,-1.507,-1.5172,-1.5315,-1.5404,-1.5445,-1.5499,-1.5553,-1.5689,-1.573,-1.573,-1.573,-1.5778,-1.5778,-1.5778,-1.5825,-1.5825,-1.5825,-1.5825,-0.6456,-0.6433,-0.64,-0.6408,-0.6435,-0.6441,-0.6438,-0.643,-0.6395,-0.6387,-0.6387,-0.6387,-0.6387,-0.6387,-0.6387,-0.6387,-0.6437,-0.6489,-0.6642,-0.6792,-0.6892,-0.7039,-0.7188,-0.7238,-0.7238,-0.7288,-0.7338,-0.7437,-0.7341,-0.7441,-0.759,-0.7693,-0.7693,-0.7693,-0.7693,-0.7693,-0.7793,-0.7892,-0.7939,-0.7939,-0.7939,-0.7939,-0.7939,-0.7992,-0.7988,-0.7988,-0.7988,-0.7988,-0.7988,-0.7988,-0.7988,-0.7988,-0.7988,-0.7988,-0.7988,-0.7988,-0.7988,-0.7988,-0.7988,-0.7988,-0.7988,-0.7988,-0.7988,-0.7988,-0.7988,-0.7988,-0.7988,-0.8233,-0.8333,-0.8627,-0.8775,-0.9217,-0.9706,-0.9948,-1.0096,-1.0293,-1.0534,-1.1072,-1.1556,-1.2047,-1.2538,-1.278,-1.3022,-1.3119,-1.3125,-1.3908,-1.425,-1.4154,-1.425,-1.425,-1.4298,-1.4298,-1.4346,-1.44,-1.4442,-1.4586,-1.4688,-1.4838,-1.4885,-1.5029,-1.5124,-1.522,-1.522,-1.5315,-1.5458,-1.5499,-1.5588,-1.5588,-1.5594,-1.5737,-1.5784,-1.5778,-1.5825,-1.5778,-1.5825,-0.6387,-0.6387,-0.6387,-0.6387,-0.6387,-0.6387,-0.6387,-0.6387,-0.6387,-0.6387,-0.6387,-0.6387,-0.6387,-0.6387,-0.6387,-0.6387,-0.6387,-0.6437,-0.6489,-0.6589,-0.6642,-0.6739,-0.6889,-0.6989,-0.6939,-0.6989,-0.7089,-0.7188,-0.7089,-0.7188,-0.7338,-0.7441,-0.7441,-0.7441,-0.7441,-0.7441,-0.749,-0.759,-0.769,-0.7686,-0.7739,-0.7793,-0.7842,-0.7892,-0.7939,-0.7988,-0.7988,-0.7988,-0.7988,-0.7988,-0.7988,-0.7988,-0.7988,-0.7988,-0.7988,-0.7988,-0.7988,-0.7988,-0.7988,-0.7988,-0.7988,-0.7988,-0.7988,-0.7988,-0.7988,-0.7988,-0.7988,-0.8088,-0.8038,-0.8038,-0.8038,-0.8088,-0.8478,-0.8871,-0.9069,-0.9262,-0.9752,-1.0243,-1.073,-1.1121,-1.1463,-1.1658,-1.1848,-1.1999,-1.2193,-1.2538,-1.2883,-1.3028,-1.3516,-1.4052,-1.4202,-1.4298,-1.4298,-1.4346,-1.4394,-1.4442,-1.4496,-1.4592,-1.4592,-1.4688,-1.4838,-1.4933,-1.4981,-1.5077,-1.5131,-1.522,-1.5309,-1.5356,-1.5363,-1.5506,-1.5642,-1.5642,-1.5689,-1.5778,-1.5778,-0.6363,-0.6371,-0.6434,-0.6387,-0.6387,-0.6387,-0.6387,-0.6387,-0.6387,-0.6387,-0.6387,-0.6387,-0.6387,-0.6387,-0.6387,-0.6387,-0.6387,-0.6387,-0.6387,-0.6387,-0.6439,-0.6537,-0.6589,-0.6642,-0.6689,-0.6689,-0.6739,-0.6889,-0.6892,-0.6939,-0.7036,-0.7135,-0.7188,-0.7188,-0.7191,-0.7191,-0.7191,-0.7138,-0.7188,-0.7185,-0.7338,-0.7441,-0.7593,-0.7643,-0.7793,-0.7942,-0.7942,-0.7939,-0.7939,-0.7939,-0.7939,-0.7939,-0.7988,-0.7988,-0.7988,-0.7988,-0.7988,-0.7988,-0.7988,-0.7988,-0.7988,-0.7988,-0.7988,-0.7988,-0.7988,-0.7988,-0.7988,-0.7988,-0.7988,-0.7988,-0.7988,-0.7988,-0.8233,-0.8379,-0.8478,-0.8577,-0.8821,-0.9262,-0.9608,-0.9948,-1.0145,-1.0386,-1.0877,-1.1072,-1.1365,-1.137,-1.1614,-1.2004,-1.2393,-1.327,-1.3811,-1.4052,-1.425,-1.425,-1.4346,-1.4346,-1.4346,-1.4346,-1.4346,-1.4442,-1.4592,-1.4688,-1.4736,-1.4783,-1.4831,-1.4933,-1.5029,-1.5077,-1.5124,-1.5226,-1.5363,-1.5452,-1.5499,-1.5594,-1.5737,-0.6225,-0.6317,-0.6399,-0.6387,-0.6387,-0.6387,-0.6387,-0.6387,-0.6387,-0.6387,-0.6387,-0.6387,-0.6387,-0.6387,-0.6387,-0.6387,-0.6387,-0.6387,-0.6387,-0.6387,-0.6387,-0.6387,-0.6387,-0.6489,-0.6439,-0.6437,-0.6537,-0.6639,-0.6589,-0.6639,-0.6739,-0.6892,-0.6892,-0.6892,-0.6892,-0.6892,-0.6839,-0.6736,-0.6736,-0.6886,-0.7135,-0.7185,-0.7288,-0.7391,-0.7543,-0.759,-0.759,-0.759,-0.764,-0.7693,-0.7693,-0.7793,-0.7988,-0.7988,-0.7988,-0.7988,-0.7988,-0.7988,-0.7988,-0.7988,-0.7988,-0.7988,-0.7988,-0.7988,-0.7988,-0.7988,-0.7988,-0.7988,-0.7988,-0.7988,-0.7988,-0.7988,-0.7988,-0.7988,-0.7988,-0.7988,-0.7988,-0.8283,-0.8581,-0.8726,-0.8871,-0.9262,-0.9805,-1.0145,-1.0489,-1.0832,-1.1121,-1.1414,-1.1365,-1.195,-1.2883,-1.3318,-1.4052,-1.4148,-1.41,-1.4052,-1.3956,-1.4148,-1.4244,-1.4298,-1.4394,-1.4448,-1.4544,-1.4442,-1.449,-1.464,-1.4783,-1.479,-1.4838,-1.4939,-1.5083,-1.5172,-1.522,-1.5267,-1.5506,-0.6173,-0.6198,-0.6252,-0.6314,-0.6355,-0.6361,-0.6341,-0.6381,-0.6387,-0.6387,-0.6387,-0.6387,-0.6387,-0.6387,-0.6387,-0.6387,-0.6387,-0.6387,-0.6387,-0.6387,-0.6387,-0.6387,-0.6387,-0.6387,-0.6437,-0.6387,-0.6387,-0.6437,-0.6387,-0.6437,-0.6539,-0.6642,-0.6642,-0.6642,-0.6642,-0.6592,-0.6539,-0.6437,-0.6387,-0.6587,-0.6886,-0.6939,-0.6989,-0.7092,-0.7191,-0.7238,-0.7288,-0.7338,-0.7388,-0.7441,-0.7441,-0.7593,-0.7743,-0.7793,-0.7793,-0.7842,-0.7889,-0.7988,-0.7988,-0.7988,-0.7988,-0.7988,-0.7988,-0.7988,-0.7988,-0.7988,-0.7988,-0.7988,-0.7988,-0.7988,-0.7988,-0.7988,-0.7988,-0.7988,-0.7988,-0.7988,-0.7988,-0.8137,-0.8283,-0.8283,-0.8382,-0.8482,-0.8874,-0.8924,-0.9167,-0.9217,-0.9706,-1.0293,-1.0342,-1.0489,-1.1512,-1.2247,-1.2684,-1.2926,-1.2635,-1.2926,-1.3414,-1.3661,-1.3902,-1.4244,-1.4346,-1.4346,-1.4298,-1.4346,-1.4346,-1.4388,-1.449,-1.4544,-1.4544,-1.4592,-1.4736,-1.4933,-1.4939,-1.4987,-1.5172,-0.6135,-0.6067,-0.6083,-0.6146,-0.6287,-0.6295,-0.6309,-0.6399,-0.6363,-0.6373,-0.6387,-0.6387,-0.6387,-0.6387,-0.6387,-0.6387,-0.6387,-0.6387,-0.6387,-0.6387,-0.6387,-0.6387,-0.6387,-0.6387,-0.6387,-0.6387,-0.6387,-0.6387,-0.6387,-0.6387,-0.6387,-0.6387,-0.6387,-0.6437,-0.6387,-0.6437,-0.6387,-0.6387,-0.6387,-0.6387,-0.6539,-0.6592,-0.6692,-0.6839,-0.6989,-0.7138,-0.7135,-0.7135,-0.7135,-0.7188,-0.7188,-0.7388,-0.749,-0.754,-0.754,-0.759,-0.7793,-0.7842,-0.7942,-0.7992,-0.7992,-0.7988,-0.7988,-0.7988,-0.7988,-0.7988,-0.7988,-0.7988,-0.7988,-0.7988,-0.7988,-0.7988,-0.7988,-0.7988,-0.7988,-0.7988,-0.7988,-0.7988,-0.7988,-0.7988,-0.8038,-0.8041,-0.8041,-0.8041,-0.8038,-0.7988,-0.8184,-0.8676,-0.9069,-0.9312,-0.9899,-1.0342,-1.0632,-1.0779,-1.1219,-1.1804,-1.2533,-1.278,-1.3076,-1.3757,-1.425,-1.4298,-1.4298,-1.4298,-1.4346,-1.4346,-1.4346,-1.44,-1.4346,-1.4346,-1.449,-1.464,-1.4688,-1.4736,-1.4838,-0.5877,-0.5945,-0.6043,-0.61,-0.6121,-0.6169,-0.6189,-0.629,-0.6301,-0.6347,-0.6299,-0.6381,-0.6387,-0.6387,-0.6387,-0.6387,-0.6387,-0.6387,-0.6387,-0.6387,-0.6387,-0.6387,-0.6387,-0.6387,-0.6387,-0.6387,-0.6387,-0.6387,-0.6387,-0.6387,-0.6387,-0.6387,-0.6387,-0.6387,-0.6387,-0.6387,-0.6387,-0.6387,-0.6387,-0.6387,-0.6387,-0.6489,-0.6489,-0.6589,-0.6742,-0.6692,-0.6689,-0.6789,-0.6842,-0.6945,-0.7042,-0.7138,-0.7238,-0.7291,-0.7291,-0.7341,-0.754,-0.7643,-0.7693,-0.7793,-0.7839,-0.7889,-0.7889,-0.7942,-0.7939,-0.7988,-0.7988,-0.7988,-0.7988,-0.7988,-0.7988,-0.7988,-0.7988,-0.7988,-0.7988,-0.7988,-0.7988,-0.7988,-0.7988,-0.7988,-0.7988,-0.8038,-0.8038,-0.8038,-0.8038,-0.7988,-0.7988,-0.8382,-0.8432,-0.8478,-0.8528,-0.8775,-0.9019,-0.9899,-1.0828,-1.0974,-1.1512,-1.1804,-1.2393,-1.3318,-1.4004,-1.4298,-1.4298,-1.4298,-1.4298,-1.4298,-1.4298,-1.4298,-1.4298,-1.4346,-1.4346,-1.4394,-1.4394,-1.449,-1.4592]}]]